[[{"header":{"parameterUnit":"m.s-1","parameterCategory":1,"la1":30.6,"la2":29.2853,"lo1":-89.7004,"lo2":-87.6739,"dx":0.0162,"dy":0.0183,"nx":112,"ny":82,"refTime":"2022-11-07T18:00:00:Z","depth":0,"parameterNumber":2,"parameterNumberName":"U-component_of_WINDS"},"data":[0.0,0.0,0.0,0.0,0.0,0.0,0.0,0.0,0.0,0.0,0.0,0.0,0.0,0.0,0.0,0.0,0.0,0.0,0.0,0.0,0.0,0.0,0.0,0.0,0.0,0.0,0.0,0.0,0.0,0.0,0.0,0.0,0.0,0.0,0.0,0.0,0.0,0.0,0.0,0.0,0.0,0.0,0.0,0.0,0.0,0.0,0.0,0.0,0.0,0.0,0.0,0.0,0.0,0.0,0.0,0.0,0.0,0.0,0.0,0.0,0.0,0.0,0.0,0.0,0.0,0.0,0.0,0.0,0.0,0.0,0.0,0.0,0.0,0.0,0.0,0.0,0.0,0.0,0.0,0.0,0.0,0.0,0.0,0.0,0.0,0.0,0.0,0.0,0.0,0.0,3.7926,4.0079,4.2801,4.4446,4.4446,4.3379,4.1014,3.7032,0.0,0.0,0.0,0.0,0.0,0.0,0.0,0.0,0.0,0.0,0.0,0.0,0.0,0.0,0.0,0.0,0.0,0.0,0.0,0.0,0.0,0.0,0.0,0.0,0.0,0.0,0.0,0.0,0.0,0.0,0.0,0.0,0.0,0.0,0.0,0.0,0.0,0.0,0.0,0.0,0.0,0.0,0.0,0.0,0.0,0.0,0.0,0.0,0.0,0.0,0.0,0.0,0.0,0.0,0.0,0.0,0.0,0.0,0.0,0.0,0.0,0.0,0.0,0.0,0.0,0.0,0.0,0.0,0.0,0.0,0.0,0.0,0.0,0.0,0.0,0.0,0.0,0.0,0.0,0.0,0.0,0.0,0.0,0.0,0.0,0.0,0.0,0.0,0.0,0.0,0.0,0.0,0.0,0.0,0.0,0.0,0.0,0.0,0.0,0.0,0.0,0.0,0.0,0.0,3.8003,4.3778,4.4855,4.5155,4.5155,4.4436,4.2312,3.838,0.0,0.0,0.0,0.0,0.0,0.0,0.0,0.0,0.0,0.0,0.0,0.0,0.0,0.0,0.0,0.0,0.0,0.0,0.0,0.0,0.0,0.0,0.0,0.0,0.0,0.0,0.0,0.0,0.0,0.0,0.0,0.0,0.0,0.0,0.0,0.0,0.0,0.0,0.0,0.0,0.0,0.0,0.0,0.0,0.0,0.0,0.0,0.0,0.0,0.0,0.0,0.0,0.0,0.0,0.0,0.0,0.0,0.0,0.0,0.0,0.0,0.0,0.0,0.0,0.0,0.0,0.0,0.0,0.0,0.0,0.0,0.0,0.0,0.0,0.0,0.0,0.0,0.0,0.0,0.0,0.0,0.0,0.0,0.0,0.0,0.0,0.0,0.0,0.0,0.0,0.0,0.0,0.0,0.0,0.0,0.0,0.0,0.0,0.0,0.0,0.0,0.0,0.0,3.7704,4.0516,4.5313,4.5822,4.5822,4.5822,4.5244,4.3,3.8679,3.5699,0.0,0.0,0.0,0.0,0.0,0.0,0.0,0.0,0.0,0.0,0.0,0.0,0.0,0.0,0.0,0.0,0.0,0.0,0.0,0.0,0.0,0.0,0.0,0.0,0.0,0.0,0.0,0.0,0.0,0.0,0.0,0.0,0.0,0.0,0.0,0.0,0.0,0.0,0.0,0.0,0.0,0.0,0.0,0.0,0.0,0.0,0.0,0.0,0.0,0.0,0.0,0.0,0.0,0.0,0.0,0.0,0.0,0.0,0.0,0.0,0.0,0.0,0.0,0.0,0.0,0.0,0.0,0.0,0.0,0.0,0.0,0.0,0.0,0.0,0.0,0.0,0.0,0.0,0.0,0.0,0.0,0.0,0.0,0.0,0.0,0.0,0.0,0.0,0.0,0.0,0.0,0.0,0.0,0.0,0.0,0.0,0.0,0.0,0.0,0.0,0.0,0.0,4.1833,4.4068,4.6741,4.6988,4.6929,4.6779,4.6172,4.3718,3.8931,3.6656,0.0,0.0,0.0,0.0,0.0,0.0,0.0,0.0,0.0,0.0,0.0,0.0,0.0,0.0,0.0,0.0,0.0,0.0,0.0,0.0,0.0,0.0,0.0,0.0,0.0,0.0,0.0,0.0,0.0,0.0,0.0,0.0,0.0,0.0,0.0,0.0,0.0,0.0,0.0,0.0,0.0,0.0,0.0,0.0,0.0,0.0,0.0,0.0,0.0,0.0,0.0,0.0,0.0,0.0,0.0,0.0,0.0,0.0,0.0,0.0,0.0,0.0,0.0,0.0,0.0,0.0,0.0,0.0,0.0,0.0,0.0,0.0,0.0,0.0,0.0,0.0,0.0,0.0,0.0,0.0,0.0,0.0,0.0,0.0,0.0,0.0,0.0,0.0,0.0,0.0,0.0,0.0,0.0,0.0,0.0,0.0,0.0,0.0,0.0,0.0,0.0,0.0,4.4347,4.8139,4.9007,4.9097,4.8828,4.8229,4.7549,4.4915,3.966,3.6909,0.0,0.0,0.0,0.0,0.0,0.0,0.0,0.0,0.0,0.0,0.0,0.0,0.0,0.0,0.0,0.0,0.0,0.0,0.0,0.0,0.0,0.0,0.0,0.0,0.0,0.0,0.0,0.0,0.0,0.0,0.0,0.0,0.0,0.0,0.0,0.0,0.0,0.0,0.0,0.0,0.0,0.0,0.0,0.0,0.0,0.0,0.0,0.0,0.0,0.0,0.0,0.0,0.0,0.0,0.0,0.0,0.0,0.0,0.0,0.0,0.0,0.0,0.0,0.0,0.0,0.0,0.0,0.0,0.0,0.0,0.0,0.0,0.0,0.0,0.0,0.0,0.0,0.0,0.0,0.0,0.0,0.0,0.0,0.0,0.0,0.0,0.0,0.0,0.0,0.0,0.0,0.0,0.0,0.0,0.0,0.0,0.0,0.0,0.0,0.0,0.0,0.0,4.3316,4.6248,4.9,4.9277,4.9187,4.8947,4.7877,4.5169,4.0341,0.0,0.0,0.0,0.0,0.0,0.0,0.0,0.0,0.0,0.0,0.0,0.0,0.0,0.0,0.0,0.0,0.0,0.0,0.0,0.0,0.0,0.0,0.0,0.0,0.0,0.0,0.0,0.0,0.0,0.0,0.0,0.0,0.0,0.0,0.0,0.0,0.0,0.0,0.0,0.0,0.0,0.0,0.0,0.0,0.0,0.0,0.0,0.0,0.0,0.0,0.0,0.0,0.0,0.0,0.0,0.0,0.0,0.0,0.0,0.0,0.0,0.0,0.0,0.0,0.0,0.0,0.0,0.0,0.0,0.0,0.0,0.0,0.0,0.0,0.0,0.0,0.0,0.0,0.0,0.0,0.0,0.0,0.0,0.0,0.0,0.0,0.0,0.0,0.0,0.0,0.0,0.0,0.0,0.0,0.0,0.0,0.0,0.0,0.0,0.0,0.0,0.0,3.9974,4.2675,4.5321,4.8284,4.9016,4.8997,4.8343,4.7791,4.5296,4.0066,0.0,0.0,0.0,0.0,0.0,0.0,0.0,0.0,0.0,0.0,0.0,0.0,0.0,0.0,0.0,0.0,0.0,0.0,0.0,0.0,0.0,0.0,0.0,0.0,0.0,0.0,0.0,0.0,0.0,0.0,0.0,0.0,0.0,0.0,0.0,0.0,0.0,0.0,0.0,0.0,0.0,0.0,0.0,0.0,0.0,0.0,0.0,0.0,0.0,0.0,0.0,0.0,0.0,0.0,0.0,0.0,0.0,0.0,0.0,0.0,0.0,0.0,0.0,0.0,0.0,0.0,0.0,0.0,0.0,0.0,0.0,0.0,0.0,0.0,0.0,0.0,0.0,0.0,0.0,0.0,0.0,0.0,0.0,0.0,0.0,0.0,0.0,0.0,0.0,0.0,0.0,0.0,0.0,0.0,0.0,0.0,0.0,0.0,0.0,0.0,0.0,0.0,3.86,4.3105,4.633,4.7039,4.8364,4.8332,4.6291,4.7383,4.535,0.0,0.0,0.0,0.0,0.0,0.0,0.0,0.0,0.0,0.0,0.0,0.0,0.0,0.0,0.0,0.0,0.0,0.0,0.0,0.0,0.0,0.0,0.0,0.0,0.0,0.0,0.0,0.0,0.0,0.0,0.0,0.0,0.0,0.0,0.0,0.0,0.0,0.0,0.0,0.0,0.0,0.0,0.0,0.0,0.0,0.0,0.0,0.0,0.0,0.0,0.0,0.0,0.0,0.0,0.0,0.0,0.0,0.0,0.0,0.0,0.0,0.0,0.0,0.0,0.0,0.0,0.0,0.0,0.0,0.0,0.0,0.0,0.0,0.0,0.0,0.0,0.0,0.0,0.0,0.0,0.0,0.0,0.0,0.0,0.0,0.0,0.0,0.0,0.0,0.0,0.0,0.0,0.0,0.0,0.0,0.0,0.0,0.0,0.0,0.0,0.0,0.0,0.0,3.921,4.2969,4.5789,4.6964,4.7453,4.7473,4.6846,4.628,4.3959,3.9309,0.0,0.0,0.0,0.0,0.0,0.0,0.0,0.0,0.0,0.0,0.0,0.0,0.0,0.0,0.0,0.0,0.0,0.0,0.0,0.0,0.0,0.0,0.0,0.0,0.0,0.0,0.0,0.0,0.0,0.0,0.0,0.0,0.0,0.0,0.0,0.0,0.0,0.0,0.0,0.0,0.0,0.0,0.0,0.0,0.0,0.0,0.0,0.0,0.0,0.0,0.0,0.0,0.0,0.0,0.0,0.0,0.0,0.0,0.0,0.0,0.0,0.0,0.0,0.0,0.0,0.0,0.0,0.0,0.0,0.0,0.0,0.0,0.0,0.0,0.0,0.0,0.0,0.0,0.0,0.0,0.0,0.0,0.0,0.0,0.0,0.0,0.0,0.0,0.0,0.0,0.0,0.0,0.0,0.0,0.0,0.0,0.0,0.0,0.0,0.0,0.0,0.0,3.8466,4.2343,4.5158,4.6006,4.6625,4.6624,4.5848,4.5526,4.3717,3.9854,0.0,0.0,0.0,0.0,0.0,0.0,0.0,0.0,0.0,0.0,0.0,0.0,0.0,0.0,0.0,0.0,0.0,0.0,0.0,0.0,0.0,0.0,0.0,0.0,0.0,0.0,0.0,0.0,0.0,0.0,0.0,0.0,0.0,0.0,0.0,0.0,0.0,0.0,0.0,0.0,0.0,0.0,0.0,0.0,0.0,0.0,0.0,0.0,0.0,0.0,0.0,0.0,0.0,0.0,0.0,0.0,0.0,0.0,0.0,0.0,0.0,0.0,0.0,0.0,0.0,0.0,0.0,0.0,0.0,0.0,0.0,0.0,0.0,0.0,0.0,0.0,0.0,0.0,0.0,0.0,0.0,0.0,0.0,0.0,0.0,0.0,0.0,0.0,0.0,0.0,0.0,0.0,0.0,0.0,0.0,0.0,0.0,0.0,0.0,0.0,0.0,0.0,3.7009,4.153,4.4589,4.4589,4.5747,4.5795,4.4029,4.5027,4.42,4.05,0.0,0.0,0.0,0.0,0.0,0.0,0.0,0.0,0.0,0.0,0.0,0.0,0.0,0.0,0.0,0.0,0.0,0.0,0.0,0.0,0.0,0.0,0.0,0.0,0.0,0.0,0.0,0.0,0.0,0.0,0.0,0.0,0.0,0.0,0.0,0.0,0.0,0.0,0.0,0.0,0.0,0.0,0.0,0.0,0.0,0.0,0.0,0.0,0.0,0.0,0.0,0.0,0.0,0.0,0.0,0.0,0.0,0.0,0.0,0.0,2.587,2.2744,0.0,0.0,0.0,0.0,0.0,0.0,0.0,0.0,0.0,0.0,0.0,0.0,0.0,0.0,0.0,0.0,0.0,0.0,0.0,0.0,0.0,0.0,0.0,0.0,0.0,0.0,0.0,0.0,0.0,0.0,0.0,0.0,0.0,0.0,0.0,0.0,0.0,0.0,0.0,0.0,3.7086,4.153,4.4589,4.4589,4.4854,4.4861,4.4443,4.4677,4.3913,4.1568,4.0028,0.0,0.0,0.0,0.0,0.0,0.0,0.0,0.0,0.0,0.0,0.0,0.0,0.0,0.0,0.0,0.0,0.0,0.0,0.0,0.0,0.0,0.0,0.0,0.0,0.0,0.0,0.0,0.0,0.0,0.0,0.0,0.0,0.0,0.0,0.0,0.0,0.0,0.0,0.0,0.0,0.0,0.0,0.0,0.0,0.0,0.0,0.0,0.0,0.0,0.0,0.0,0.0,0.0,0.0,0.0,0.0,0.0,0.0,0.0,2.9654,2.7476,0.0,0.0,0.0,0.0,0.0,0.0,0.0,0.0,0.0,0.0,0.0,0.0,0.0,0.0,0.0,0.0,0.0,0.0,0.0,0.0,0.0,0.0,0.0,0.0,0.0,0.0,0.0,0.0,0.0,0.0,0.0,0.0,0.0,0.0,0.0,0.0,0.0,0.0,0.0,0.0,3.8642,4.3137,4.62,4.62,4.62,4.5969,4.5443,4.5417,4.4771,4.322,4.1724,0.0,0.0,0.0,0.0,0.0,0.0,0.0,0.0,0.0,0.0,0.0,0.0,0.0,0.0,0.0,0.0,0.0,0.0,0.0,0.0,0.0,0.0,0.0,0.0,0.0,0.0,0.0,0.0,0.0,0.0,0.0,0.0,0.0,0.0,0.0,0.0,0.0,0.0,0.0,0.0,0.0,0.0,0.0,0.0,0.0,0.0,0.0,0.0,0.0,0.0,0.0,0.0,0.0,3.2943,3.3621,3.4525,3.4525,3.5527,3.7085,3.3872,3.3244,3.4173,3.0427,0.0,0.0,0.0,0.0,0.0,0.0,0.0,0.0,0.0,0.0,0.0,0.0,0.0,0.0,0.0,0.0,0.0,0.0,0.0,0.0,0.0,0.0,3.666,3.7612,3.9321,3.9697,3.6055,0.0,0.0,0.0,0.0,0.0,0.0,0.0,0.0,0.0,0.0,0.0,4.0852,4.507,4.7908,4.7908,4.7908,4.7556,4.6652,4.6577,4.62,4.5217,4.3555,4.2162,0.0,0.0,0.0,0.0,0.0,0.0,0.0,0.0,0.0,0.0,0.0,0.0,0.0,0.0,0.0,0.0,0.0,0.0,0.0,0.0,0.0,0.0,0.0,0.0,0.0,0.0,0.0,0.0,0.0,0.0,0.0,0.0,2.5971,2.6582,0.0,0.0,0.0,0.0,0.0,0.0,0.0,0.0,0.0,0.0,0.0,0.0,0.0,3.3244,3.3925,3.5931,3.6985,3.7161,3.9069,4.0073,4.0223,4.0223,4.0374,4.0625,4.0123,0.0,3.6659,3.5627,0.0,0.0,0.0,0.0,0.0,0.0,0.0,0.0,0.0,0.0,0.0,0.0,0.0,0.0,0.0,0.0,0.0,0.0,0.0,0.0,0.0,0.0,4.3335,4.346,4.4141,4.4568,4.3966,4.0075,3.6582,3.6281,3.623,3.5376,0.0,0.0,0.0,0.0,0.0,0.0,4.3037,4.6024,4.7908,4.7908,4.7908,4.7857,4.7707,4.7707,4.7631,4.7481,4.6371,4.4817,4.2776,4.1036,0.0,0.0,0.0,0.0,0.0,0.0,0.0,0.0,0.0,0.0,0.0,0.0,0.0,0.0,0.0,0.0,0.0,0.0,0.0,0.0,0.0,0.0,0.0,0.0,0.0,0.0,0.0,0.0,0.0,2.5025,2.6909,2.8072,2.7218,2.6214,0.0,0.0,0.0,0.0,0.0,0.0,0.0,0.0,0.0,3.578,3.6408,3.7262,3.8417,3.937,4.0023,4.0376,4.1329,4.1957,4.2258,4.2258,4.2434,4.2682,4.2384,4.1907,4.1153,3.8417,3.6157,3.4248,0.0,0.0,0.0,0.0,3.2796,3.3373,3.5906,3.6808,3.6733,3.623,0.0,0.0,0.0,0.0,0.0,0.0,0.0,3.8743,4.0904,4.2785,4.4392,4.5317,4.5969,4.6502,4.6778,4.5196,4.309,4.0879,3.9948,3.8542,3.5477,3.6634,0.0,0.0,0.0,4.4066,4.5874,4.8284,4.9816,4.9816,4.9816,4.954,4.8912,4.8862,4.8586,4.7958,4.7481,4.6778,4.5773,4.3564,4.0927,0.0,0.0,0.0,0.0,0.0,0.0,0.0,0.0,0.0,0.0,0.0,0.0,0.0,0.0,0.0,0.0,0.0,0.0,0.0,0.0,0.0,0.0,0.0,0.0,0.0,0.0,0.0,0.0,2.7135,2.8793,2.9835,2.9754,2.907,0.0,0.0,0.0,0.0,0.0,0.0,3.5353,3.6259,3.7614,3.9446,4.0049,4.0927,4.213,4.2155,4.2384,4.2813,4.2813,4.3039,4.3388,4.3388,4.3614,4.3991,4.3589,4.3865,4.4313,4.0902,3.9245,3.8668,3.7037,3.6033,3.5656,3.6611,3.6987,3.7364,4.0049,4.0953,4.0927,4.0777,4.045,3.9848,3.8492,0.0,0.0,0.0,0.0,4.158,4.3416,4.4597,4.5598,4.6853,4.755,4.8052,4.846,4.8887,4.8316,4.5301,4.4116,4.2632,3.9497,4.0752,0.0,4.1306,4.4342,4.728,4.8786,5.0444,5.1448,5.1297,5.1306,5.0946,5.0092,5.0017,4.9665,4.8812,4.8636,4.8485,4.8335,4.6225,4.4321,4.2637,0.0,0.0,0.0,0.0,0.0,0.0,0.0,0.0,0.0,0.0,0.0,0.0,0.0,0.0,0.0,0.0,0.0,0.0,0.0,0.0,0.0,0.0,0.0,0.0,0.0,0.0,0.0,0.0,0.0,3.2939,3.4698,0.0,0.0,0.0,0.0,3.4402,3.5031,3.6585,3.927,3.9948,4.1227,4.3438,4.4041,4.4338,4.4414,4.4414,4.4439,4.4464,4.4464,4.4489,4.4514,4.4514,4.4514,4.4564,4.4514,4.4539,4.4539,4.3815,4.2585,4.11,4.1026,3.9696,3.809,4.0223,4.1026,4.1327,4.3561,4.4338,4.4263,4.3765,4.2534,4.1403,4.2359,4.158,0.0,0.0,4.4292,4.5698,4.7914,4.8894,4.9314,4.9414,4.9841,5.0235,5.0293,5.0285,5.0117,4.9389,4.964,4.9056,4.6276,0.0,4.6923,4.738,4.7657,4.8812,5.1548,5.2,5.1875,5.1348,5.1306,5.128,5.1197,5.1197,5.1205,5.1155,5.0594,5.0067,4.954,4.8894,4.7034,4.379,4.3037,0.0,0.0,0.0,0.0,0.0,0.0,0.0,0.0,0.0,0.0,0.0,0.0,0.0,0.0,0.0,0.0,0.0,0.0,0.0,0.0,0.0,0.0,0.0,0.0,0.0,0.0,0.0,0.0,3.459,3.6307,0.0,3.5374,3.6859,3.8065,3.8392,3.9922,4.1428,4.2785,4.3009,4.3689,4.4844,4.507,4.5347,4.5698,4.5668,4.5668,4.5668,4.5668,4.5668,4.5668,4.5668,4.5869,4.6195,4.5819,4.61,4.6702,4.612,4.4941,4.3435,4.3435,4.3159,4.2911,4.3714,4.4213,4.4614,4.5417,4.5668,4.5719,4.5869,4.5744,4.5618,4.6024,4.5999,4.6029,4.6808,4.7807,4.8837,4.9615,5.0243,5.077,5.1122,5.1348,5.1699,5.2377,5.2528,5.2578,5.2788,5.18,5.0444,4.8711,5.0067,5.0946,4.9715,5.1046,5.2553,5.3592,5.3718,5.3642,5.3441,5.3416,5.314,5.2402,5.2352,5.2051,5.1356,5.1096,5.0896,5.0695,5.0527,4.964,4.8083,4.7531,4.4396,0.0,0.0,0.0,0.0,0.0,0.0,0.0,0.0,0.0,0.0,0.0,0.0,0.0,0.0,0.0,0.0,0.0,0.0,0.0,0.0,0.0,0.0,0.0,0.0,0.0,3.2674,3.4818,3.5207,3.7243,3.8384,3.784,3.9306,4.0713,4.1802,4.3438,4.4518,4.4895,4.5242,4.5618,4.6024,4.6225,4.6476,4.6853,4.6853,4.6954,4.7129,4.7129,4.723,4.7431,4.7431,4.7631,4.7902,4.7581,4.7832,4.846,4.8109,4.7274,4.6245,4.5844,4.5974,4.6301,4.6301,4.6527,4.6878,4.7079,4.7255,4.7506,4.8027,4.8454,4.8786,4.8987,4.9314,4.9647,4.9647,5.0419,5.1239,5.1239,5.1825,5.2512,5.2854,5.2929,5.313,5.3833,5.4135,5.4386,5.4798,5.3542,5.2185,5.1431,5.2779,5.3432,5.1774,5.3406,5.4748,5.4371,5.4647,5.4798,5.4622,5.4597,5.4295,5.3532,5.2804,5.2377,5.2436,5.1733,5.1448,5.1825,5.1122,5.0343,4.9558,4.9213,4.6401,4.113,0.0,0.0,0.0,0.0,0.0,0.0,0.0,0.0,0.0,0.0,0.0,0.0,0.0,0.0,0.0,0.0,0.0,0.0,0.0,0.0,0.0,0.0,0.0,3.0234,3.3325,3.5427,3.4959,3.7783,3.9974,4.0408,4.1056,4.231,4.4415,4.5108,4.5518,4.5573,4.6516,4.7087,4.7174,4.7676,4.7983,4.8008,4.8008,4.8284,4.8868,4.8868,4.917,4.964,4.964,4.964,4.964,4.964,4.964,4.964,4.964,4.964,4.954,4.841,4.7983,4.7983,4.7983,4.8008,4.8083,4.8693,4.9245,4.9741,5.0268,5.0436,5.0569,5.1147,5.1356,5.1348,5.1348,5.2151,5.2945,5.2945,5.3758,5.4597,5.4622,5.4622,5.4622,5.4647,5.5074,5.5415,5.5415,5.5024,5.4647,5.4647,5.4647,5.4471,5.3858,5.4712,0.0,5.3909,5.4737,5.5189,5.4672,5.4597,5.4597,5.4572,5.2612,5.2311,5.4471,5.2587,5.185,5.2895,5.0896,4.9213,4.8109,4.7983,4.7154,4.5573,0.0,0.0,0.0,0.0,0.0,0.0,0.0,0.0,0.0,0.0,0.0,0.0,0.0,0.0,0.0,0.0,0.0,0.0,0.0,0.0,0.0,2.9436,3.2127,3.2893,3.4338,3.5771,3.6996,3.8313,3.93,3.9719,4.1439,4.2884,4.3892,4.4422,4.5458,4.7168,4.6267,4.6685,4.8855,4.9063,4.9515,5.0343,5.0368,5.0476,5.0627,5.0627,5.0703,5.082,5.082,5.082,5.082,5.082,5.082,5.082,5.082,5.082,5.0695,4.9565,4.9364,4.9708,4.9708,4.9992,5.0368,5.0577,5.0728,5.0845,5.0996,5.1322,5.1674,5.1825,5.2427,5.303,5.303,5.3557,5.411,5.411,5.4371,5.4697,5.5099,5.5164,5.5265,5.5666,5.5867,5.5993,5.5993,5.5867,5.5767,5.5767,5.5767,5.5717,5.5541,5.5792,5.5867,5.5566,5.5792,5.5616,5.4697,5.4597,5.4421,5.3984,5.3381,5.3482,5.4522,5.4044,5.3843,5.4145,5.3567,5.2854,5.2126,4.9766,4.8109,0.0,0.0,0.0,0.0,0.0,0.0,0.0,0.0,0.0,0.0,0.0,0.0,0.0,0.0,0.0,0.0,0.0,0.0,0.0,0.0,0.0,0.0,3.1023,3.3374,3.4002,3.505,3.6164,3.7223,3.7997,3.8866,4.0011,4.0882,4.2175,4.4191,4.408,4.4951,4.727,4.6647,4.6755,4.7825,4.9455,5.0232,5.0032,5.1104,5.1749,5.1975,5.2201,5.2461,5.2687,5.2687,5.2687,5.2687,5.2687,5.2687,5.2687,5.2687,5.2687,5.2537,0.0,0.0,0.0,0.0,5.1473,5.2,5.2226,5.2452,5.2687,5.2687,5.2879,5.313,5.313,5.3557,5.4059,5.4059,5.4496,5.4949,5.4949,5.5089,5.534,5.5666,5.5742,5.5817,5.6143,5.6394,5.6533,5.6533,5.6746,0.0,5.6922,5.652,5.6068,5.5591,5.5917,5.6043,5.5591,5.5917,5.5968,5.5315,5.5265,5.5114,5.4787,5.3909,0.0,0.0,0.0,5.3783,5.3557,5.3341,0.0,0.0,0.0,5.015,5.0695,4.8793,0.0,0.0,4.5296,4.497,0.0,0.0,0.0,0.0,0.0,0.0,0.0,0.0,0.0,0.0,0.0,0.0,0.0,0.0,0.0,0.0,3.2746,3.4114,3.4173,3.5463,3.6445,3.6445,3.712,3.8373,4.0366,3.9844,4.0885,4.4487,4.3769,4.4132,4.6419,4.6899,0.0,0.0,0.0,5.0006,4.8308,5.0788,5.226,5.2759,5.3478,5.4059,5.4597,5.4597,5.4597,5.4597,5.4597,5.4597,5.4597,5.4597,5.4597,5.4396,5.2461,5.1682,5.1733,5.2201,5.2678,5.3146,5.3632,0.0,0.0,5.4597,5.4647,5.4697,5.4697,5.4748,5.4798,5.4798,5.5125,5.5491,5.5566,5.5942,5.6319,5.6394,5.6394,5.6394,5.6394,5.6796,5.7085,5.7085,5.7549,5.7901,5.7901,5.7072,5.6068,5.5125,5.5767,5.6043,5.5099,5.5792,5.6319,5.6143,5.6118,0.0,5.6018,5.4235,5.3974,5.6068,5.435,5.3046,5.2578,5.2101,5.185,5.185,5.185,5.2838,5.4798,5.4798,5.4823,5.4723,4.8083,4.6903,0.0,0.0,0.0,0.0,0.0,0.0,0.0,0.0,0.0,0.0,0.0,0.0,0.0,0.0,0.0,3.1269,3.291,3.4231,3.4531,3.5441,3.6095,3.6095,3.6253,3.6785,3.7906,3.9495,4.0882,4.1954,4.2202,4.3254,4.554,4.434,4.4489,4.646,4.7282,4.785,4.8297,5.0438,5.1597,5.1693,5.3541,0.0,5.4597,5.4597,5.4597,5.4597,5.4597,5.4597,5.4597,5.4597,5.4597,5.4572,5.412,5.3969,5.3969,5.4094,5.4195,5.4295,5.4396,5.4496,5.4597,5.4597,5.4898,5.5239,5.5239,5.5541,0.0,5.5892,5.5968,5.6143,5.6559,5.6759,5.696,5.7449,5.7575,5.7575,5.7575,5.765,5.7725,5.7725,5.7826,5.7901,5.7901,5.7725,5.7499,5.7298,5.7449,5.7499,5.7273,5.7449,5.7047,5.5691,5.5541,5.5365,5.4949,5.4522,5.4813,5.6118,5.5817,5.5541,5.5415,5.5315,5.5265,5.5265,5.5265,5.5465,5.5892,5.5892,5.6118,5.6458,5.3758,5.3165,0.0,0.0,0.0,0.0,0.0,0.0,0.0,0.0,0.0,0.0,0.0,2.8242,2.9149,0.0,3.1846,3.2656,3.4062,3.5117,3.5332,3.6113,3.6504,3.604,3.6547,3.7226,3.7871,3.9146,4.052,4.1833,4.1325,4.2014,4.4506,4.3849,4.3748,4.4555,4.6533,4.7339,4.6853,4.911,5.0264,5.0264,5.2677,5.3864,5.39,5.4932,5.539,5.539,5.539,5.539,5.539,5.539,5.539,5.539,5.539,5.5074,5.4622,5.4924,5.5024,5.5049,5.529,5.539,5.539,5.539,5.5566,5.5792,5.5792,5.6194,5.6584,5.6584,5.6821,5.7123,5.7399,5.7474,5.7549,5.7826,5.7901,5.7901,5.7901,5.8102,5.8303,5.8303,5.8529,5.8704,5.8704,5.8704,5.8504,5.7976,5.7901,5.7901,5.7901,5.7901,5.7575,5.6746,5.6646,5.6545,5.6244,5.6244,5.647,5.7022,5.7047,5.7047,5.7047,5.7047,5.7047,5.7047,5.7047,5.7047,5.7047,5.7047,5.7198,5.7449,5.662,5.6394,0.0,0.0,0.0,0.0,0.0,0.0,0.0,2.5903,2.6724,2.8445,2.9316,3.0108,3.1289,3.2101,3.3,3.4271,3.5332,3.604,3.625,3.7012,3.7285,3.6601,3.7422,3.8262,3.8826,3.9141,4.0144,4.2188,4.1003,4.1175,4.3471,4.3704,4.34,4.256,4.5646,4.6562,4.5068,4.7463,4.8648,4.8686,5.127,5.2722,5.3175,5.4856,5.5827,5.6219,5.6219,5.6219,5.6219,5.6319,5.6369,5.6394,5.6495,5.5993,5.5275,5.5465,5.5616,5.5767,5.6219,5.6445,5.6545,5.6545,5.6545,5.6545,5.6545,5.6809,5.7161,5.7161,5.7549,5.7926,5.8027,5.8052,5.8077,5.8177,5.8202,5.8202,5.8202,5.8554,5.888,5.888,5.9207,5.9483,5.9483,5.9483,5.9207,5.8328,5.8202,5.8202,5.8202,5.8202,5.8177,5.8077,5.8052,5.8001,5.7901,5.7901,5.7901,5.7901,5.7901,5.7901,5.7901,5.7901,5.7901,5.7901,5.7901,5.7901,5.7901,5.7901,5.7951,5.8052,5.8052,5.8001,2.2498,2.2576,2.3493,2.541,2.6191,2.7441,0.0,3.0976,3.0723,3.2422,3.282,3.3086,3.3645,3.3821,3.431,3.5586,3.5918,3.6289,3.7051,3.7891,3.8435,3.8337,3.8418,3.8828,3.9668,3.9785,4.027,4.1266,4.117,4.1504,4.2505,4.2585,4.2741,4.2988,4.3434,4.3774,4.3864,4.6019,4.7103,4.7164,4.93,5.1324,5.31,5.3326,5.446,5.6219,5.6219,5.6219,5.6244,5.6709,5.691,5.696,5.7499,5.7625,5.7424,5.647,5.642,5.6835,5.6885,5.7236,5.77,5.77,5.77,5.77,5.77,5.775,5.7801,5.7801,5.7851,5.8001,5.8504,5.8591,5.8755,5.9207,5.9307,5.9307,5.9307,5.9357,5.9408,5.9408,5.9458,5.9483,5.9483,5.9483,5.9458,5.9332,5.9307,5.9307,5.9307,5.9307,5.9131,5.8641,5.8591,5.8428,5.7951,5.7901,5.7901,5.7901,5.7901,5.7901,5.7901,5.7901,5.7901,5.7901,5.7901,5.7901,5.7901,5.7901,5.8152,5.8591,5.8591,5.8378,2.6426,2.6211,2.623,2.8125,2.8945,2.9687,3.1309,3.1465,3.1738,3.3437,3.3809,3.3926,3.4355,3.4863,3.5391,3.5903,3.6606,3.7344,3.7949,3.8555,3.9121,3.9648,3.9941,4.0272,4.0605,4.0683,4.0996,4.1836,4.1894,4.2168,4.2773,4.2812,4.3008,4.3437,4.3437,4.3535,4.3711,4.4576,4.5006,4.5067,4.7422,4.901,4.9922,5.2721,5.4449,5.5272,5.5272,5.5272,5.5297,5.5516,5.6384,5.7549,5.7801,5.7901,5.7851,5.7374,5.7349,5.7524,5.7524,5.77,5.7901,5.7901,5.7901,5.7901,5.7901,5.8127,5.8378,5.8378,5.8604,5.888,5.9106,5.9182,5.9232,5.9433,5.9483,5.9483,5.9483,5.9483,5.9583,5.991,5.9985,6.0085,6.0412,6.0487,6.0487,6.0487,5.991,5.9483,5.9483,5.9483,5.9408,5.9207,5.9182,5.9081,5.8855,5.883,5.883,5.883,5.883,5.883,5.883,5.9131,5.9307,5.9307,5.9633,5.9809,5.9809,5.9809,5.9935,6.0161,6.0161,6.0035,2.8406,2.8484,2.8425,3.0,3.0996,3.1582,3.1582,3.1816,3.2422,3.3821,3.4114,3.431,3.4941,3.5552,3.6133,3.645,3.7422,3.8262,3.8691,3.9219,3.9844,4.0605,4.1074,4.1484,4.1719,4.1601,4.1816,4.2558,4.2598,4.2793,4.3223,4.3242,4.3398,4.3691,4.3711,4.3769,4.3887,4.3887,4.3945,4.4062,4.5918,4.7113,4.7789,5.1866,5.3709,5.3709,5.3709,5.3709,5.3771,5.45,5.5786,5.728,5.805,5.8328,5.8328,5.8328,5.8252,5.8127,5.8127,5.8227,5.8328,5.8328,5.8328,5.8328,5.8328,5.873,5.9093,5.8981,5.9307,5.9734,5.9734,5.9734,5.9759,5.9935,5.996,5.996,5.996,5.996,6.0085,6.0487,6.0563,6.0688,6.1115,6.119,6.119,6.119,6.0487,5.996,5.996,5.996,5.996,5.996,5.996,5.996,5.996,5.996,5.996,5.996,5.996,5.996,5.996,6.0337,6.0563,6.0563,6.0964,6.119,6.119,6.119,6.119,6.119,6.1341,6.1341,2.683,2.7942,2.9199,3.0527,3.2109,3.3308,3.3308,3.3328,3.3496,3.3997,3.4114,3.4486,3.5742,3.5962,3.6391,3.7621,3.8262,3.8728,3.9121,3.9922,4.0644,4.1094,4.1523,4.2109,4.297,4.2637,4.2578,4.3027,4.3066,4.3242,4.3672,4.3691,4.3691,4.3711,4.3711,4.3926,4.4375,4.4375,4.457,4.4938,4.5042,4.6125,4.8169,5.0396,5.1425,5.1425,5.1425,5.1425,5.1608,5.4286,5.543,5.5754,5.8433,5.9433,5.9433,5.9433,5.9131,5.8704,5.8704,5.9031,5.9433,5.9433,5.9433,5.9433,5.9433,5.9834,6.0161,5.9633,5.9859,6.0286,6.0286,6.0286,6.0437,6.0989,6.114,6.114,6.114,6.114,6.114,6.1165,6.1165,6.1165,6.119,6.119,6.119,6.119,6.1165,6.114,6.114,6.114,6.114,6.114,6.114,6.114,6.114,6.114,6.114,6.114,6.114,6.114,6.114,6.114,6.1165,6.1165,6.1165,6.119,6.119,6.119,6.119,6.119,6.1743,6.1692,2.832,2.9453,3.0605,3.2187,3.2977,3.3464,3.3789,3.3848,3.4062,3.4805,3.4505,3.4427,3.541,3.584,3.6348,3.7344,3.834,3.9238,3.998,4.0586,4.1113,4.1543,4.2207,4.2794,4.3087,4.2949,4.3027,4.3457,4.3496,4.3555,4.3691,4.3711,4.3848,4.416,4.416,4.4375,4.4805,4.4824,4.4883,4.4996,4.5312,4.6746,4.9112,4.9846,5.031,5.0546,5.0546,5.0739,5.1124,5.2038,5.3262,5.4701,5.5628,5.5818,5.5579,5.5579,5.6181,5.7242,5.8744,5.9357,5.9558,5.9935,5.9784,5.9558,5.9935,5.991,5.9809,5.9985,6.0186,6.0412,6.0788,6.0889,6.0939,6.114,6.119,6.119,6.119,6.119,6.1291,6.1667,6.1718,6.1843,6.222,6.227,6.227,6.227,6.1642,6.119,6.119,6.119,6.119,6.119,6.119,6.119,6.119,6.119,6.119,6.119,6.119,6.119,6.119,6.1542,6.1718,6.1718,6.2094,6.227,6.227,6.227,6.2471,6.2847,6.3048,6.3199,2.9735,3.0684,3.1523,3.3223,3.3652,3.3769,3.4199,3.4297,3.4551,3.543,3.4805,3.4427,3.543,3.5957,3.6426,3.6973,3.8535,3.9883,4.0411,4.1035,4.1601,4.2187,4.2734,4.3185,4.3281,4.3301,4.3418,4.3691,4.3711,4.3711,4.3711,4.3867,4.4082,4.4394,4.4551,4.4824,4.5254,4.5254,4.541,4.566,4.5996,4.7094,4.889,4.889,4.901,4.9276,4.9276,4.9439,4.9793,5.0377,5.1508,5.2859,5.3666,5.3826,5.3599,5.3778,5.4497,5.5678,5.6973,5.7905,5.861,5.8955,5.898,5.9039,6.0026,6.0362,6.0437,6.0588,6.0763,6.1014,6.1391,6.1492,6.1517,6.1718,6.1768,6.1768,6.1768,6.1768,6.1868,6.222,6.2471,6.2722,6.3073,6.3299,6.3425,6.3425,6.2822,6.222,6.1818,6.1768,6.1768,6.1768,6.1768,6.1768,6.1768,6.1768,6.1768,6.1768,6.1768,6.1768,6.1768,6.2119,6.2295,6.2295,6.2606,6.2882,6.3149,6.3149,6.3425,6.3977,6.4178,6.4329,3.084,3.1582,3.2031,3.3704,3.4114,3.4251,3.4629,3.4746,3.5,3.5747,3.4941,3.4466,3.5644,3.6269,3.6656,3.6734,3.8867,4.0528,4.0567,4.1348,4.2168,4.3029,4.3146,4.3262,4.3672,4.3711,4.3711,4.373,4.373,4.373,4.373,4.418,4.4433,4.4473,4.4844,4.5273,4.5746,4.5766,4.6152,4.6928,4.6889,4.7148,4.7539,4.7539,4.7558,4.7578,4.7598,4.7617,4.7777,4.9448,5.0134,5.035,5.2509,5.3353,5.3375,5.3735,5.3933,5.3929,5.3464,5.4893,5.699,5.7095,5.7486,5.818,5.9881,6.114,6.1868,6.1366,6.1592,6.2019,6.2044,6.2044,6.2169,6.2656,6.2781,6.2781,6.2781,6.2781,6.2807,6.2832,6.335,6.3726,6.3726,6.417,6.4496,6.4496,6.4496,6.4119,6.3048,6.2882,6.2882,6.2882,6.2882,6.2857,6.2832,6.2832,6.2832,6.2781,6.2781,6.2781,6.2781,6.2807,6.2832,6.2832,6.2857,6.3174,6.3726,6.3726,6.4002,6.4572,6.5032,6.5032,3.125,3.2441,3.3535,3.3997,3.4349,3.4668,3.5117,3.5449,3.5566,3.5117,3.4531,3.4016,3.3672,3.4766,3.6035,3.6973,3.9316,4.123,4.1816,4.2402,4.2832,4.3047,4.3359,4.3594,4.3691,4.3711,4.3848,4.4199,4.4219,4.4219,4.4219,4.4629,4.5019,4.5332,4.5449,4.5703,4.6133,4.6445,4.6875,4.7402,4.709,4.6948,4.709,4.709,4.7266,4.7598,4.791,4.8223,4.8607,4.9063,4.923,4.9276,4.9889,4.9912,4.9583,4.9684,5.0591,5.1524,5.0083,5.3037,5.7847,5.9999,6.05,6.0471,6.1332,6.1492,6.1441,6.1718,6.1893,6.2094,6.248,6.2581,6.2606,6.2756,6.2781,6.2781,6.2781,6.2781,6.2907,6.34,6.3902,6.432,6.432,6.4421,6.4496,6.4496,6.4496,6.4396,6.4078,6.4053,6.4053,6.4053,6.4053,6.3877,6.35,6.3475,6.3299,6.2807,6.2781,6.2781,6.2781,6.3249,6.3475,6.3475,6.3852,6.4128,6.432,6.432,6.4555,6.5082,6.5233,6.5434,3.2098,3.3203,3.4153,3.4329,3.4687,3.5019,3.5078,3.5273,3.5195,3.4316,3.3652,3.3117,3.2648,3.4394,3.6133,3.666,3.9551,4.1894,4.2363,4.2793,4.3185,4.332,4.3555,4.3711,4.3711,4.3887,4.4121,4.4375,4.4394,4.4473,4.4668,4.5078,4.543,4.5664,4.5859,4.6152,4.6582,4.6816,4.7148,4.7578,4.7129,4.7084,4.75,4.75,4.7734,4.819,4.8398,4.8679,4.8894,4.8698,4.8574,4.8574,4.8574,4.8418,4.8223,4.8418,4.9165,5.0026,5.0019,5.2353,5.5583,5.6925,5.804,5.9037,6.0122,6.1126,6.1969,6.227,6.237,6.2446,6.2706,6.2781,6.2781,6.2781,6.2781,6.2781,6.2781,6.2781,6.2957,6.3576,6.3927,6.432,6.4798,6.4873,6.4906,6.5157,6.5183,6.5183,6.5183,6.4798,6.4496,6.4496,6.4496,6.4396,6.4094,6.4028,6.3902,6.3576,6.355,6.355,6.355,6.3852,6.4028,6.4028,6.4371,6.4622,6.4873,6.4873,6.5107,6.566,6.566,6.581,3.3094,3.3789,3.4271,3.4609,3.5098,3.5332,3.4824,3.4707,3.4414,3.3347,3.2578,3.2081,3.1964,3.431,3.623,3.6191,3.9513,4.2226,4.2518,4.293,4.3301,4.3652,4.375,4.3789,4.3789,4.4219,4.4512,4.457,4.457,4.4726,4.5098,4.5527,4.5762,4.5762,4.6113,4.6504,4.6889,4.6948,4.7207,4.7623,4.7246,4.7461,4.8125,4.8183,4.8418,4.8815,4.8874,4.8913,4.8874,4.8457,4.8301,4.8301,4.8301,4.8301,4.834,4.8757,4.8913,4.9216,5.1236,5.1937,5.1965,5.206,5.3777,5.6114,5.7668,5.9874,6.1952,6.2265,6.2347,6.2388,6.27,6.2781,6.2781,6.2781,6.2781,6.2781,6.2781,6.2857,6.3099,6.3601,6.3802,6.4203,6.5132,6.5358,6.5559,6.6036,6.6112,6.6112,6.6112,6.5283,6.4722,6.4722,6.4722,6.4697,6.4622,6.4622,6.4597,6.4521,6.4496,6.4496,6.4496,6.4572,6.4622,6.4622,6.4697,6.4931,6.5409,6.5409,6.5634,6.6112,6.6112,6.6112,3.3328,3.3984,3.4609,3.4687,3.5312,3.5703,3.4883,3.4707,3.416,3.2246,3.1738,3.1406,3.0664,3.2422,3.4668,3.6738,3.9199,4.1426,4.3242,4.3555,4.3633,4.3691,4.4043,4.4277,4.4277,4.4668,4.5058,4.5472,4.5449,4.5488,4.5566,4.5957,4.6191,4.6191,4.6269,4.6504,4.6889,4.7285,4.75,4.7578,4.7851,4.7871,4.7695,4.8047,4.8242,4.834,4.8757,4.8913,4.8894,4.8815,4.8796,4.8796,4.8796,4.8796,4.8796,4.8874,4.8913,4.894,4.938,4.9518,5.0119,5.3905,5.5463,5.5943,5.6178,5.6655,5.7478,5.9372,5.9919,6.0362,6.2306,6.2781,6.2781,6.2781,6.2781,6.2781,6.2781,6.3199,6.3576,6.3676,6.4404,6.5082,6.5258,6.566,6.6011,6.6086,6.6112,6.6112,6.6112,6.5936,6.5835,6.5835,6.5835,6.5634,6.5183,6.5157,6.4957,6.4547,6.4496,6.4496,6.4496,6.4949,6.5157,6.5157,6.5584,6.5886,6.5961,6.5961,6.6011,6.6112,6.6112,6.6112,3.3386,3.4043,3.4707,3.4707,3.5371,3.5605,3.4062,3.3711,3.3027,3.0644,3.0351,3.0371,2.9941,3.1816,3.4062,3.5996,3.8672,4.1035,4.25,4.3281,4.3711,4.3711,4.4121,4.4394,4.4394,4.498,4.5449,4.5707,4.5879,4.5996,4.5996,4.6191,4.6406,4.6621,4.6621,4.6933,4.7578,4.7578,4.7695,4.791,4.7891,4.7891,4.791,4.8105,4.832,4.86,4.8815,4.8913,4.8913,4.8913,4.8913,4.8913,4.8913,4.8913,4.8913,4.8913,4.8913,4.8913,4.8913,4.8913,4.9262,5.1552,5.3081,5.408,5.4036,5.5726,5.7906,5.9011,6.0194,6.1366,6.2511,6.2781,6.2781,6.2781,6.2781,6.2781,6.2781,6.3048,6.3249,6.3249,6.3651,6.4103,6.4404,6.4906,6.5358,6.5634,6.5936,6.6112,6.6112,6.6112,6.6112,6.6112,6.6112,6.6011,6.5735,6.571,6.5609,6.5333,6.5333,6.5333,6.5333,6.5584,6.571,6.571,6.5986,6.6112,6.6112,6.6112,6.6112,6.6112,6.6112,6.6112,3.3367,3.4043,3.4707,3.4707,3.5371,3.5449,3.3281,3.2734,3.1953,2.9406,2.9121,2.9383,2.9559,3.1309,3.3281,3.4961,3.7754,4.0156,4.1484,4.2676,4.3535,4.3828,4.4258,4.457,4.4668,4.5371,4.582,4.582,4.6113,4.6308,4.6308,4.6308,4.6445,4.6733,4.6831,4.7201,4.793,4.7793,4.7832,4.8066,4.793,4.7969,4.8203,4.8301,4.8535,4.8913,4.8913,4.8913,4.8913,4.8913,4.8913,4.8913,4.8913,4.8913,4.8913,4.8913,4.8913,4.8913,4.8913,4.8972,4.905,4.905,5.022,5.1757,5.2252,5.4939,5.8011,5.9011,6.0636,6.2158,6.2659,6.2781,6.2781,6.2781,6.2781,6.2832,6.2932,6.2998,6.3048,6.3149,6.3274,6.35,6.3952,6.4479,6.4982,6.5409,6.5835,6.6112,6.6112,6.6112,6.6112,6.6112,6.6112,6.6112,6.6112,6.6112,6.6112,6.6112,6.6112,6.6112,6.6112,6.6112,6.6112,6.6112,6.6112,6.6112,6.6112,6.6112,6.6112,6.6112,6.6112,6.6112,3.3289,3.4043,3.4707,3.4707,3.5371,3.5449,3.3281,3.2531,3.1631,2.9347,2.8652,2.8652,2.9461,3.0106,3.1426,3.4297,3.6035,3.8044,4.0878,4.1992,4.2988,4.4199,4.4707,4.5117,4.5527,4.5976,4.625,4.625,4.6289,4.6308,4.6308,4.6308,4.6328,4.6367,4.6738,4.6928,4.7006,4.7773,4.7969,4.7656,4.8424,4.86,4.8223,4.8659,4.8874,4.8913,4.8913,4.8913,4.8913,4.8913,4.8913,4.8913,4.8913,4.8913,4.8913,4.8913,4.8913,4.8913,4.8913,4.9121,4.9426,4.9426,4.9319,4.961,5.1757,5.2679,5.3903,5.8139,5.9433,6.0087,6.2265,6.2781,6.2781,6.2781,6.2781,6.2932,6.35,6.3626,6.3751,6.427,6.4731,6.5082,6.5132,6.5609,6.5986,6.6036,6.6086,6.6112,6.6112,6.6112,6.6112,6.6112,6.6112,6.6112,6.6112,6.6112,6.6112,6.6112,6.6112,6.6112,6.6112,6.6112,6.6112,6.6112,6.6112,6.6112,6.6112,6.6112,6.6112,6.6112,6.6112,6.6112,3.3211,3.4043,3.4707,3.4707,3.4961,3.4726,3.2851,3.1925,3.0859,2.8945,2.8398,2.8582,2.9442,2.9735,3.0644,3.3144,3.4648,3.6226,3.822,4.0312,4.1973,4.2734,4.4141,4.5195,4.5625,4.6055,4.6308,4.6308,4.6308,4.6308,4.6308,4.6308,4.666,4.7422,4.7109,4.7305,4.8086,4.8164,4.8262,4.8405,4.8737,4.8815,4.8659,4.8815,4.8913,4.8913,4.8913,4.8913,4.8913,4.8913,4.8913,4.8913,4.8913,4.8913,4.8913,4.8913,4.8913,4.8913,4.8913,4.916,4.9484,4.9484,4.9414,4.9444,5.0376,5.1461,5.2832,5.4916,5.759,6.009,6.1299,6.2709,6.3802,6.3802,6.3802,6.3877,6.4145,6.3927,6.3751,6.3952,6.4178,6.4329,6.4329,6.5032,6.5609,6.5609,6.5886,6.6112,6.6112,6.6112,6.6112,6.6112,6.6112,6.6112,6.6112,6.6112,6.6112,6.6112,6.6112,6.6112,6.6112,6.6112,6.6112,6.6112,6.6112,6.6112,6.6112,6.6112,6.6112,6.6112,6.6112,6.6112,3.2969,3.3945,3.4707,3.4707,3.4707,3.4258,3.2589,3.1534,3.0391,2.8652,2.8301,2.8582,2.9442,2.9598,3.0263,3.2285,3.3574,3.4922,3.6656,3.9004,4.0937,4.1875,4.3437,4.4726,4.541,4.5976,4.6308,4.6308,4.6426,4.6543,4.668,4.668,4.7031,4.7812,4.748,4.7754,4.8698,4.8496,4.8555,4.8913,4.8913,4.8913,4.8913,4.8913,4.8913,4.8913,4.8913,4.8913,4.8913,4.8913,4.8913,4.8913,4.8913,4.8913,4.8913,4.8913,4.8913,4.8913,4.905,4.9355,4.9746,4.9863,4.9855,4.9855,4.9855,5.1151,5.2954,5.4643,5.82,6.1541,6.1818,6.32,6.4496,6.4496,6.4496,6.4547,6.4722,6.4429,6.4203,6.4379,6.4404,6.4404,6.4404,6.5032,6.5534,6.5534,6.586,6.6112,6.6112,6.6112,6.6112,6.6112,6.6112,6.6112,6.6112,6.6112,6.6112,6.6112,6.6112,6.6112,6.6112,6.6112,6.6112,6.6112,6.6112,6.6112,6.6112,6.6112,6.6112,6.6112,6.6112,6.6112,3.2461,3.373,3.4707,3.4707,3.4707,3.4258,3.2589,3.1534,3.0391,2.8652,2.8301,2.8582,2.9442,2.9598,3.0165,3.1925,3.2891,3.4336,3.6934,3.8398,4.0019,4.2128,4.2812,4.3613,4.486,4.5801,4.6308,4.6308,4.6699,4.7109,4.7539,4.7578,4.7383,4.6909,4.7754,4.8203,4.8223,4.8633,4.8894,4.8913,4.8913,4.8913,4.8913,4.8913,4.8913,4.8913,4.8913,4.8913,4.8913,4.8913,4.8913,4.8913,4.8913,4.8913,4.8913,4.8913,4.8913,4.8972,4.9375,4.9805,5.0234,5.0664,5.0801,5.0801,5.0801,5.1812,5.3966,5.8802,6.2208,6.4454,6.4454,6.4454,6.4496,6.4496,6.4496,6.4647,6.5157,6.5283,6.5434,6.5986,6.6086,6.6086,6.6086,6.6086,6.6112,6.6112,6.6112,6.6112,6.6112,6.6112,6.6112,6.6112,6.6112,6.6112,6.6112,6.6112,6.6112,6.6112,6.6112,6.6112,6.6112,6.6112,6.6112,6.6112,6.6112,6.6112,6.6112,6.6112,6.6112,6.6112,6.6112,6.6112,3.0439,3.1788,3.2863,3.2246,3.2305,3.2226,3.1074,3.0419,2.9774,2.8887,2.8711,2.8984,2.9844,3.0,3.0791,3.3117,3.3723,3.457,3.6616,3.873,4.0469,4.1465,4.3769,4.5449,4.5859,4.6152,4.6308,4.6308,4.6699,4.6948,4.7129,4.7695,4.8086,4.8242,4.8223,4.834,4.8698,4.8835,4.8913,4.8913,4.8913,4.8913,4.8913,4.8913,4.8913,4.8913,4.8913,4.8913,4.8913,4.8913,4.8913,4.8913,4.8913,4.8913,4.8933,4.9199,4.9316,4.9375,4.9824,5.0254,5.0625,5.0762,5.0801,5.0762,5.0469,5.0724,5.2168,5.729,6.086,6.3505,6.5175,6.5584,6.5584,6.5584,6.5584,6.5634,6.581,6.5559,6.5333,6.5509,6.5559,6.5559,6.5559,6.586,6.6112,6.6112,6.6112,6.6112,6.6112,6.6112,6.6112,6.6112,6.6112,6.6112,6.6112,6.6112,6.6112,6.6112,6.6112,6.6112,6.6112,6.6112,6.6112,6.6112,6.6112,6.6112,6.6112,6.6112,6.6112,6.6112,6.6112,6.6112,2.8816,3.038,3.1592,3.1035,3.1094,3.1094,3.0371,2.9746,2.9238,2.8965,2.8898,2.918,3.0039,3.0195,3.0898,3.3039,3.3528,3.4407,3.6636,3.8574,4.0312,4.1758,4.4219,4.582,4.582,4.6113,4.6367,4.6523,4.6933,4.7246,4.7357,4.8066,4.8574,4.8894,4.864,4.8574,4.8913,4.8913,4.8913,4.8913,4.8913,4.8913,4.8913,4.8913,4.8913,4.8913,4.8913,4.8913,0.0,4.8913,4.8913,4.8913,4.8913,4.8913,4.8952,4.9355,4.9484,4.9562,5.0215,5.0586,5.084,5.0996,5.1035,5.0957,5.0547,5.0865,5.2281,5.6809,6.0078,6.2801,6.516,6.5961,6.6061,6.586,6.5961,6.6112,6.6112,6.5835,6.5609,6.5609,6.5609,6.5609,6.5609,6.5886,6.6112,6.6112,6.6112,6.6112,6.6112,6.6112,6.6112,6.6112,6.6112,6.6112,6.6112,6.6112,6.6112,6.6112,6.6112,6.6112,6.6112,6.6112,6.6112,6.6112,6.6112,6.6112,6.6112,6.6112,6.6112,6.6112,6.6112,6.6112,0.0,2.9258,3.0605,3.0586,3.0625,3.0547,3.0117,2.9434,0.0,2.8918,2.8937,2.9238,3.0176,3.0312,3.0762,3.2198,3.2773,3.4101,3.7012,3.8337,4.0038,4.2872,4.4316,4.5055,4.5035,4.582,4.6484,4.685,4.7324,4.7773,4.8183,4.8659,4.8913,4.8913,4.8913,4.8913,4.8913,4.8913,4.8913,4.8913,4.8913,4.8913,4.8913,4.8913,4.8913,4.8913,4.8913,4.8913,4.8913,4.8913,4.8913,4.8913,4.8933,4.8952,4.9011,4.9433,4.9582,4.9679,5.0566,5.0859,5.0918,5.126,5.1358,5.126,5.0898,5.1926,5.3947,5.7152,5.9712,6.2074,6.4637,6.5531,6.5696,6.5416,6.5735,6.6112,6.6112,6.6112,6.6112,6.6112,6.6112,6.6112,6.6112,6.6112,6.6112,6.6112,6.6112,6.6112,6.6112,6.6112,6.6112,6.6112,6.6112,6.6112,6.6112,6.6112,6.6112,6.6112,6.6112,6.6112,6.6112,6.6112,6.6112,6.6112,6.6112,6.6112,6.6112,6.6112,6.6112,6.6112,6.6112,6.6112,2.4707,0.0,2.7851,2.7519,2.7956,2.8425,0.0,2.8386,2.8633,2.9305,2.9442,2.9911,3.1455,3.1426,3.1953,3.4258,3.5307,3.6499,3.8476,4.0918,4.2891,4.3965,4.5215,4.5879,4.5566,4.5996,4.6484,4.685,4.7324,4.7773,4.8183,4.8659,4.8913,4.8913,4.8913,4.8913,4.8913,4.8913,4.8913,4.8913,4.8913,4.8913,4.8913,4.8913,4.8913,4.8913,4.8913,4.8913,4.8913,4.8913,4.8913,4.8933,4.9238,4.9375,4.9473,5.0215,5.0508,5.0586,5.1065,5.1289,5.126,5.1358,5.1162,5.0879,5.0449,5.2175,5.4666,5.6863,5.7984,5.9538,6.4129,6.4069,6.3326,6.5449,6.6011,6.6112,6.6112,6.6112,6.6112,6.6112,6.6112,6.6112,6.6112,6.6112,6.6112,6.6112,6.6112,6.6112,6.6112,6.6112,6.6112,6.6112,6.6112,6.6112,6.6112,6.6112,6.6112,6.6112,6.6112,6.6112,6.6112,6.6112,6.6112,6.6112,6.6112,6.6112,6.6112,6.6112,6.6112,6.6112,6.6112,6.6112,2.373,2.5371,2.6953,2.6738,2.7461,2.8242,2.8242,2.8418,2.8769,2.9461,2.9755,3.0302,3.1621,3.2324,3.3223,3.4824,3.6465,3.8239,4.0117,4.2305,4.3945,4.4609,4.5469,4.5996,4.5976,4.6172,4.6562,4.7187,4.7441,4.7851,4.8476,4.8776,4.8913,4.8913,4.8913,4.8913,4.8913,4.8913,4.8913,4.8913,4.8913,4.8913,4.8913,4.8913,4.8913,4.8913,4.8913,4.8913,4.8913,4.8913,4.9031,4.918,4.9433,4.9648,4.9902,5.0566,5.0801,5.084,5.1074,5.1104,5.1172,5.1319,5.1221,5.1016,5.0586,5.1566,5.3212,5.514,5.5914,5.7266,6.2312,6.2862,6.2725,6.5171,6.5936,6.6112,6.6112,6.6112,6.6112,6.6112,6.6112,6.6112,6.6112,6.6112,6.6112,6.6112,6.6112,6.6112,6.6112,6.6112,6.6112,6.6112,6.6112,6.6112,6.6112,6.6112,6.6112,6.6112,6.6112,6.6112,6.6112,6.6112,6.6112,6.6112,6.6112,6.6112,6.6112,6.6112,6.6112,6.6112,6.6112,6.6112,2.3828,2.5566,2.7123,2.6869,2.7806,2.8828,2.8828,2.884,2.9062,2.9598,3.0028,3.0664,3.1875,3.3242,3.4414,3.5176,3.7305,3.9629,4.1797,4.3144,4.418,4.4899,4.5469,4.5879,4.6172,4.6269,4.666,4.7519,4.7578,4.7994,4.8855,4.8913,4.8913,4.8913,4.8913,4.8913,4.8913,4.8913,4.8913,4.8913,4.8913,4.8913,4.8913,4.8913,4.8913,4.8913,4.8913,4.8913,4.8913,4.8913,4.9121,4.9484,4.959,4.9902,5.0332,5.0742,5.0859,5.0801,5.0801,5.084,5.0957,5.126,5.1377,5.1299,5.0937,5.0859,5.1212,5.2888,5.3855,5.5521,6.0335,6.1994,6.2897,6.4929,6.5785,6.6112,6.6112,6.6112,6.6112,6.6112,6.6112,6.6112,6.6112,6.6112,6.6112,6.6112,6.6112,6.6112,6.6112,6.6112,6.6112,6.6112,6.6112,6.6112,6.6112,6.6112,6.6112,6.6112,6.6112,6.6112,6.6112,6.6112,6.6112,6.6112,6.6112,6.6112,6.6112,6.6112,6.6112,6.6112,6.6112,6.6112,2.4574,2.647,2.7754,2.6264,2.7168,2.8398,2.8398,2.8672,2.9113,2.9941,3.0469,3.1601,3.4297,3.4687,3.5351,3.7617,3.9238,4.0976,4.3105,4.4219,4.4863,4.4957,4.5723,4.6094,4.5801,4.6094,4.666,4.7519,4.7578,4.7994,4.8855,4.8913,4.8913,4.8913,4.8913,4.8913,4.8913,4.8913,4.8913,4.8913,4.8913,4.8913,4.8913,4.8913,4.8913,4.8913,4.8913,4.8913,4.8913,4.8913,4.9121,4.9523,4.9941,5.0332,5.0762,5.1172,5.1113,5.0801,5.0801,5.1035,5.1299,5.1358,5.1377,5.1299,5.0937,5.1055,5.1298,5.128,5.2564,5.5092,6.0287,6.1732,6.2624,6.5345,6.6061,6.6112,6.6112,6.6112,6.6112,6.6112,6.6112,6.6112,6.6112,6.6112,6.6112,6.6112,6.6112,6.6112,6.6112,6.6112,6.6112,6.6112,6.6112,6.6112,6.6112,6.6112,6.6112,6.6112,6.6112,6.6112,6.6112,6.6112,6.6112,6.6112,6.6112,6.6112,6.6112,6.6112,6.6112,6.6112,6.6112,6.6112,2.416,2.5806,2.7246,2.7148,2.9101,3.1074,3.1074,3.1562,3.2031,3.1953,3.248,3.3516,3.5391,3.6309,3.7793,4.0859,4.1465,4.2109,4.3848,4.4219,4.457,4.5293,4.5723,4.5976,4.6016,4.6191,4.666,4.7519,4.7578,4.7994,4.8855,4.8913,4.8913,4.8913,4.8913,4.8913,4.8913,4.8913,4.8913,4.8913,4.8913,4.8913,4.8913,4.8913,4.8913,4.8913,4.8913,4.8913,4.8913,4.8913,4.9304,4.9902,5.0098,5.043,5.0801,5.0762,5.0625,5.0508,5.0723,5.0937,5.1133,5.1319,5.1377,5.1358,5.1211,5.1221,5.1338,5.1191,5.2782,5.5065,5.7475,5.9136,6.0848,6.3505,6.4148,6.4522,6.5828,6.6112,6.6112,6.6112,6.6112,6.6112,6.6112,6.6112,6.6112,6.6112,6.6112,6.6112,6.6112,6.6112,6.6112,6.6112,6.6112,6.6112,6.6112,6.6112,6.6112,6.6112,6.6112,6.6112,6.6112,6.6112,6.6112,6.6112,6.6112,6.6112,6.6112,6.6112,6.6112,6.6112,6.6112,6.6112,2.3906,2.5395,2.7018,2.8308,3.0644,3.2762,3.3269,3.3926,3.4297,3.3945,3.4648,3.5586,3.6465,3.8105,4.0215,4.2949,4.2949,4.3047,4.4355,4.4238,4.4453,4.5683,4.582,4.5957,4.6269,4.6308,4.666,4.7519,4.7578,4.7994,4.8855,4.8913,4.8913,4.8913,4.8913,4.8913,4.8913,4.8913,4.8913,4.8913,4.8913,4.8913,4.8913,4.8913,4.8913,4.8913,4.8913,4.8913,4.8913,4.9011,4.9414,5.0039,5.0137,5.043,5.0762,5.0332,5.0312,5.0508,5.0723,5.0859,5.0996,5.128,5.1377,5.1377,5.1377,5.1377,5.1377,5.1377,5.318,5.5094,5.5094,5.6968,5.9408,6.1911,6.2514,6.3157,6.557,6.6112,6.6112,6.6112,6.6112,6.6112,6.6112,6.6112,6.6112,6.6112,6.6112,6.6112,6.6112,6.6112,6.6112,6.6112,6.6112,6.6112,6.6112,6.6112,6.6112,6.6112,6.6112,6.6112,6.6112,6.6112,6.6112,6.6112,6.6112,6.6112,6.6112,6.6112,6.6112,6.6112,6.6112,6.6112,2.4672,2.6275,2.7897,2.9188,2.9961,3.0957,3.2938,3.3445,3.3848,3.5019,3.625,3.7383,3.8223,4.0137,4.1777,4.2382,4.2812,4.3496,4.4805,4.4961,4.5254,4.6152,4.625,4.6269,4.6289,4.6308,4.666,4.7519,4.7578,4.7994,4.8855,4.8913,4.8913,4.8913,4.8913,4.8913,4.8913,4.8913,4.8913,4.8913,4.8913,4.8913,4.8913,4.8913,4.8913,4.8913,4.8913,4.8913,4.8933,4.9316,4.9465,4.9562,5.0019,5.043,5.0762,5.0332,5.0664,5.124,5.0937,5.1055,5.1338,5.1377,5.1377,5.1377,5.1377,5.1377,5.1377,5.1377,5.318,5.5094,5.5094,5.6968,5.9408,6.1911,6.2514,6.3157,6.557,6.6112,6.6112,6.6112,6.6112,6.6112,6.6112,6.6112,6.6112,6.6112,6.6112,6.6112,6.6112,6.6112,6.6112,6.6112,6.6112,6.6112,6.6112,6.6112,6.6112,6.6112,6.6112,6.6112,6.6112,6.6112,6.6112,6.6112,6.6112,6.6112,6.6112,6.6112,6.6112,6.6112,6.6112,6.6112,2.4394,2.6328,2.8327,2.9344,3.0732,3.2383,3.4551,3.5611,3.6489,3.7559,3.8574,3.9492,4.0116,4.1719,4.2949,4.2851,4.3437,4.416,4.4922,4.5254,4.5644,4.623,4.6308,4.6308,4.6308,4.6543,4.6933,4.7539,4.7812,4.8223,4.8874,4.8913,4.8913,4.8913,4.8913,4.8913,4.8913,4.8913,4.8913,4.8913,4.8913,4.8913,4.8913,4.8913,4.8913,4.8913,4.8913,4.8913,4.8913,4.9043,4.9277,4.9504,4.9707,5.0039,5.0371,4.9941,5.0312,5.1016,5.0859,5.1074,5.1377,5.1377,5.1377,5.1377,5.1377,5.1377,5.1377,5.1377,5.2085,5.2816,5.2816,5.4663,5.7132,5.9636,6.018,6.1285,6.5242,6.6112,6.6112,6.6112,6.6112,6.6112,6.6112,6.6112,6.6112,6.6112,6.6112,6.6112,6.6112,6.6112,6.6112,6.6112,6.6112,6.6112,6.6112,6.6112,6.6112,6.6112,6.6112,6.6112,6.6112,6.6112,6.6112,6.6112,6.6112,6.6112,6.6112,6.6112,6.6112,6.6112,6.6112,6.6112,2.4883,2.6836,2.8973,2.997,3.1504,3.3437,3.5859,3.6992,3.7969,3.9512,4.0312,4.0937,4.168,4.25,4.3105,4.3086,4.3828,4.4551,4.4918,4.5391,4.584,4.625,4.6308,4.6308,4.6308,4.6635,4.7109,4.7539,4.7969,4.8398,4.8874,4.8913,4.8913,4.8913,4.8913,4.8913,4.8913,4.8913,4.8913,4.8913,4.8913,4.8913,4.8913,4.8913,4.8913,4.8913,4.8913,4.8913,4.8913,4.905,4.9258,4.9484,4.9484,4.9785,5.0156,4.998,5.0391,5.0996,5.0996,5.1191,5.1377,5.1377,5.1377,5.1377,5.1377,5.1377,5.1377,5.1377,5.1377,5.1377,5.1377,5.2672,5.4568,5.706,5.8217,5.9954,6.4061,6.557,6.6112,6.6112,6.6112,6.6112,6.6112,6.6112,6.6112,6.6112,6.6112,6.6112,6.6112,6.6112,6.6112,6.6112,6.6112,6.6112,6.6112,6.6112,6.6112,6.6112,6.6112,6.6112,6.6112,6.6112,6.6112,6.6112,6.6112,6.6112,6.6112,6.6112,6.6112,6.6112,6.6112,6.6112,2.6412,2.7976,2.9931,3.1191,3.2187,3.3633,3.6621,3.6992,3.7594,4.0605,4.123,4.1621,4.2892,4.2383,4.209,4.299,4.3828,4.4551,4.4938,4.541,4.584,4.625,4.6308,4.6308,4.6308,4.668,4.7109,4.7558,4.7969,4.8398,4.8874,4.8913,4.8913,4.8913,4.8913,4.8913,4.8913,4.8913,4.8913,4.8913,4.8913,4.8913,4.8913,4.8913,4.8913,4.8913,4.8913,4.8913,4.8933,4.9336,4.9465,4.9465,4.9484,4.9785,5.0234,5.0644,5.1074,5.1377,5.1377,5.1377,5.1377,5.1377,5.1377,5.1377,5.1377,5.1377,5.1377,5.1377,5.1377,5.1377,5.1377,5.1377,5.2036,5.45,5.7014,5.9499,6.198,6.4391,6.6112,6.6112,6.6112,6.6112,6.6112,6.6112,6.6112,6.6112,6.6112,6.6112,6.6112,6.6112,6.6112,6.6112,6.6112,6.6112,6.6112,6.6112,6.6112,6.6112,6.6112,6.6112,6.6112,6.6112,6.6112,6.6112,6.6112,6.6112,6.6112,6.6112,6.6112,6.6112,6.6112,6.6112,2.5493,2.8144,3.0957,3.1055,3.3769,3.6606,3.7539,3.8105,3.9219,4.1953,4.256,4.2677,4.3048,4.3105,4.3223,4.3476,4.4258,4.498,4.543,4.5859,4.6152,4.6289,4.6308,4.6308,4.6308,4.6953,4.7441,4.7578,4.8307,4.8776,4.8894,4.8913,4.8913,4.8913,4.8913,4.8913,4.8913,4.8913,4.8913,4.8913,4.8913,4.8913,4.8913,4.8913,4.8913,4.8913,4.8913,4.8913,4.8913,4.905,4.9062,4.9082,4.9414,4.9785,5.0234,5.0644,5.1074,5.1377,5.1377,5.1377,5.1377,5.1377,5.1377,5.1377,5.1377,5.1377,5.1377,5.1377,5.1377,5.1377,5.1377,5.1377,5.2036,5.45,5.7014,5.9499,6.198,6.4391,6.6112,6.6112,6.6112,6.6112,6.6112,6.6112,6.6112,6.6112,6.6112,6.6112,6.6112,6.6112,6.6112,6.6112,6.6112,6.6112,6.6112,6.6112,6.6112,6.6112,6.6112,6.6112,6.6112,6.6112,6.6112,6.6112,6.6112,6.6112,6.6112,6.6112,6.6112,6.6112,6.6112,6.6338,2.8066,3.0527,3.2969,3.375,3.5957,3.8206,3.9396,4.0079,4.0976,4.2755,4.3127,4.3166,4.3301,4.3398,4.3574,4.3926,4.457,4.5176,4.5625,4.6035,4.6308,4.6308,4.6308,4.6308,4.6308,4.707,4.7578,4.7578,4.8424,4.8913,4.8913,4.8913,4.8913,4.8913,4.8913,4.8913,4.8913,4.8913,4.8913,4.8913,4.8913,4.8913,4.8913,4.8913,4.8913,4.8913,4.8913,4.8913,4.8913,4.8913,4.8913,4.8972,4.9551,4.9941,5.0254,5.084,5.1162,5.1377,5.1377,5.1377,5.1377,5.1377,5.1377,5.1377,5.1377,5.1377,5.1377,5.1377,5.1377,5.1377,5.1377,5.1377,5.1794,5.3275,5.6268,5.9225,6.07,6.3686,6.6112,6.6112,6.6112,6.6112,6.6112,6.6112,6.6112,6.6112,6.6112,6.6112,6.6112,6.6112,6.6112,6.6112,6.6112,6.6112,6.6112,6.6112,6.6112,6.6112,6.6112,6.6112,6.6112,6.6112,6.6112,6.6112,6.6112,6.6112,6.6112,6.6112,6.6112,6.6112,6.6338,6.6639,3.2235,3.3874,3.5391,3.7829,3.8301,3.8928,4.1738,4.2421,4.2617,4.3047,4.3125,4.3262,4.3633,4.3398,4.3418,4.4316,4.4766,4.5195,4.5664,4.6055,4.6308,4.6308,4.6308,4.6308,4.6308,4.707,4.7578,4.7578,4.8424,4.8913,4.8913,4.8913,4.8913,4.8913,4.8913,4.8913,4.8913,4.8913,4.8913,4.8913,4.8913,4.8913,4.8913,4.8913,4.8913,4.8913,4.8913,4.8913,4.8913,4.8913,4.8933,4.905,4.9844,5.0195,5.0332,5.1133,5.1377,5.1377,5.1377,5.1377,5.1377,5.1377,5.1377,5.1377,5.1377,5.1377,5.1377,5.1377,5.1377,5.1377,5.1377,5.1377,5.1474,5.1649,5.5351,5.886,5.9088,6.2824,6.6112,6.6112,6.6112,6.6112,6.6112,6.6112,6.6112,6.6112,6.6112,6.6112,6.6112,6.6112,6.6112,6.6112,6.6112,6.6112,6.6112,6.6112,6.6112,6.6112,6.6112,6.6112,6.6112,6.6112,6.6112,6.6112,6.6112,6.6112,6.6112,6.6112,6.6112,6.6137,6.6714,6.7059,2.9679,3.2723,3.5957,3.689,3.8789,4.082,4.2129,4.2695,4.3066,4.3476,4.3574,4.3594,4.3691,4.3633,4.3867,4.4746,4.4918,4.525,4.6055,4.625,4.6308,4.6308,4.6308,4.6308,4.6308,4.707,4.7578,4.7578,4.8424,4.8913,4.8913,4.8913,4.8913,4.8913,4.8913,4.8913,4.8913,4.8913,4.8913,4.8913,4.8913,4.8913,4.8913,4.8913,4.8913,4.8913,4.8913,4.8913,4.8913,4.8913,4.9109,4.9433,4.9961,5.0371,5.0723,5.125,5.1377,5.1377,5.1377,5.1377,5.1377,5.1377,5.1377,5.1377,5.1377,5.1377,5.1377,5.1377,5.1377,5.1377,5.1377,5.1377,5.1891,5.3808,5.6595,5.9317,6.1285,6.4017,6.6112,6.6112,6.6112,6.6112,6.6112,6.6112,6.6112,6.6112,6.6112,6.6112,6.6112,6.6112,6.6112,6.6112,6.6112,6.6112,6.6112,6.6112,6.6112,6.6112,6.6112,6.6112,6.6112,6.6112,6.6112,6.6112,6.6112,6.6112,6.6112,6.6112,6.6112,6.6137,6.6714,6.7216,3.0781,3.3516,3.623,3.8337,4.0312,4.1953,4.2598,4.3066,4.3437,4.3652,4.3711,4.3711,4.3711,4.3887,4.4258,4.4879,4.5195,4.5566,4.6211,4.6308,4.6308,4.6308,4.6308,4.6387,4.6582,4.7187,4.7656,4.7871,4.8542,4.8913,4.8913,4.8913,4.8913,4.8913,4.8913,4.8913,4.8913,4.8913,4.8913,4.8913,4.8913,4.8913,4.8913,4.8913,4.8913,4.8913,4.8913,4.8913,4.8913,4.9101,4.9316,4.959,5.0234,5.0605,5.0859,5.1221,5.1377,5.1377,5.1377,5.1377,5.1377,5.1377,5.1377,5.1377,5.1377,5.1377,5.1377,5.1377,5.1377,5.1377,5.1377,5.1377,5.2036,5.45,5.7014,5.9499,6.198,6.4391,6.6112,6.6112,6.6112,6.6112,6.6112,6.6112,6.6112,6.6112,6.6112,6.5699,6.4522,6.5397,6.5656,6.4522,6.544,6.6112,6.6112,6.6112,6.6112,6.6112,6.6112,6.6112,6.6112,6.6112,6.6112,6.6112,6.6112,6.6112,6.6112,6.6112,6.6262,6.6538,6.7116,6.7668,3.1905,3.4199,3.6426,4.0312,4.1855,4.2539,4.2969,4.3398,4.3711,4.3711,4.3711,4.3711,4.3711,4.4082,4.4531,4.4918,4.5391,4.582,4.625,4.6308,4.6308,4.6308,4.6308,4.6465,4.685,4.7324,4.7754,4.8164,4.8613,4.8913,4.8913,4.8913,4.8913,4.8913,4.8913,4.8913,4.8913,4.8913,4.8913,4.8913,4.8913,4.8913,4.8913,4.8913,4.8913,4.8913,4.8913,4.8913,4.8933,4.9336,4.9523,4.9707,5.0508,5.0859,5.0957,5.1308,5.1377,5.1377,5.1377,5.1377,5.1377,5.1377,5.1377,5.1377,5.1377,5.1377,5.1377,5.1377,5.1377,5.1377,5.1377,5.1717,5.2575,5.4595,5.7317,5.9999,6.2069,6.4391,6.6112,6.6112,6.6112,6.5983,6.557,6.5828,6.6112,6.6112,6.6112,6.5242,6.2804,6.4609,6.5155,6.2735,6.4653,6.6112,6.6112,6.6112,6.6112,6.6112,6.6112,6.6112,6.6112,6.6112,6.6112,6.6112,6.6112,6.6112,6.6112,6.6212,6.6513,6.7034,6.7643,6.8196,2.8269,3.2148,3.6855,4.0742,4.207,4.2539,4.2969,4.3398,4.3711,4.3711,4.3711,4.3711,4.3711,4.4082,4.4531,4.4918,4.5391,4.582,4.625,4.6308,4.6308,4.6308,4.6308,4.6465,4.685,4.7324,4.7754,4.8164,4.8613,4.8913,4.8913,4.8913,4.8913,4.8913,4.8913,4.8913,4.8913,4.8913,4.8913,4.8913,4.8913,4.8913,4.8913,4.8913,4.8913,4.8913,4.8913,4.8913,4.8933,4.9336,4.9746,5.0137,5.0625,5.1035,5.1319,5.1358,5.1377,5.1377,5.1377,5.1377,5.1377,5.1377,5.1377,5.1377,5.1377,5.1377,5.1377,5.1377,5.1377,5.1377,5.1377,5.2988,5.469,5.5021,5.8654,6.2113,6.2425,6.4391,6.6112,6.6112,6.6112,6.544,6.3334,6.4696,6.6112,6.6112,6.6112,6.5242,6.2804,6.4609,6.5155,6.2735,6.4653,6.6112,6.6112,6.6112,6.6112,6.6112,6.6112,6.6112,6.6112,6.6112,6.6112,6.6112,6.6112,6.6112,6.6112,6.6614,6.689,6.699,6.802,6.8547,2.9922,3.3574,3.7324,4.1191,4.2245,4.2557,4.3281,4.3574,4.3711,4.3711,4.3711,4.3711,4.3711,4.4277,4.4805,4.4957,4.5586,4.6094,4.6269,4.6308,4.6308,4.6308,4.6308,4.6562,4.7226,4.7461,4.7851,4.8516,4.8796,4.8913,4.8913,4.8913,4.8913,4.8913,4.8913,4.8913,4.8913,4.8913,4.8913,4.8913,4.8913,4.8913,4.8913,4.8913,4.8913,4.8913,4.8913,4.8913,4.8952,4.9609,5.0,5.0234,5.0898,5.1221,5.1377,5.1377,5.1377,5.1377,5.1377,5.1377,5.1377,5.1377,5.1377,5.1377,5.1377,5.1377,5.1377,5.1377,5.1377,5.1717,5.3132,5.4284,5.5424,5.6828,5.9885,6.2514,6.2514,6.4391,6.5699,6.4347,6.5155,6.5329,6.2936,6.4522,6.6112,6.6112,6.6112,6.5242,6.2804,6.4609,6.5155,6.2735,6.4653,6.6112,6.6112,6.6112,6.6112,6.6112,6.6112,6.6112,6.6112,6.6112,6.6112,6.6112,6.6112,6.6112,6.6112,6.6689,6.7141,6.7467,6.8246,6.8753,3.0635,3.3457,3.5952,4.0351,4.1621,4.2109,4.3418,4.3711,4.3711,4.3711,4.3711,4.373,4.3867,4.4512,4.5058,4.5176,4.582,4.6308,4.6308,4.6308,4.6308,4.6308,4.6308,4.6641,4.75,4.7578,4.7975,4.8835,4.8913,4.8913,4.8913,4.8913,4.8913,4.8913,4.8913,4.8913,4.8913,4.8913,4.8913,4.8913,4.8913,4.8913,4.8913,4.8913,4.8913,4.8913,4.8913,4.8972,4.9082,4.9863,5.0234,5.041,5.1152,5.1377,5.1377,5.1377,5.1377,5.1377,5.1377,5.1377,5.1377,5.1377,5.1377,5.1377,5.1377,5.1377,5.1377,5.1377,5.1377,5.1988,5.4453,5.5565,5.6502,5.8355,6.1151,6.3245,6.2602,6.3929,6.4478,6.2001,6.351,6.4609,6.2804,6.4522,6.5896,6.5285,6.5699,6.5025,6.1956,6.4236,6.5155,6.2735,6.4653,6.6112,6.6112,6.6112,6.6112,6.6112,6.6112,6.6112,6.6112,6.6112,6.6112,6.6112,6.6112,6.6187,6.6338,6.6915,6.7467,6.802,6.8528,6.9004,2.7578,2.9266,3.1397,3.732,3.9414,4.0664,4.3144,4.3711,4.3711,4.3711,4.3711,4.3848,4.4277,4.4726,4.5156,4.5566,4.6016,4.6308,4.6308,4.6308,4.6308,4.6308,4.6308,4.6641,4.75,4.7578,4.7975,4.8835,4.8913,4.8913,4.8913,4.8913,4.8913,4.8913,4.8913,4.8913,4.8913,4.8913,4.8913,4.8913,4.8913,4.8913,4.8913,4.8913,4.8913,4.8913,4.8913,4.9101,4.9531,5.0,5.041,5.082,5.1201,5.1377,5.1377,5.1377,5.1377,5.1377,5.1377,5.1377,5.1377,5.1377,5.1377,5.1377,5.1377,5.1377,5.1377,5.1377,5.1377,5.1988,5.4453,5.6828,5.863,5.8768,6.2469,6.5285,6.2981,6.2602,6.1956,5.9454,6.1016,6.2647,6.2514,6.4522,6.5329,6.3025,6.4609,6.4367,5.959,6.3133,6.5155,6.2735,6.4653,6.6112,6.6112,6.6112,6.6112,6.6112,6.6112,6.6112,6.6112,6.6112,6.6112,6.6112,6.6112,6.6388,6.694,6.7493,6.8045,6.8597,6.9105,6.9381,2.7194,2.8738,3.0576,3.4701,3.7418,3.9434,4.0918,4.2519,4.3711,4.3711,4.3711,4.3926,4.4668,4.4879,4.5176,4.5605,4.6035,4.6308,4.6308,4.6308,4.6308,4.6308,4.6308,4.6641,4.75,4.7578,4.7975,4.8835,4.8913,4.8913,4.8913,4.8913,4.8913,4.8913,4.8913,4.8913,4.8913,4.8913,4.8913,4.8913,4.8913,4.8913,4.8913,4.8913,4.8913,4.8913,4.916,4.9375,4.9523,5.0,5.043,5.084,5.1221,5.1377,5.1377,5.1377,5.1377,5.1377,5.1377,5.1377,5.1377,5.1377,5.1377,5.1377,5.1377,5.1377,5.1377,5.1377,5.1377,5.1988,5.4453,5.6968,5.918,6.0791,6.2514,6.2691,5.8608,6.0271,6.1801,5.9271,6.2045,6.4347,6.2759,6.3201,6.351,6.2602,6.3245,6.3157,6.142,6.4061,6.5742,6.487,6.557,6.6112,6.6112,6.6112,6.6112,6.6112,6.6112,6.6112,6.6112,6.6112,6.6112,6.6112,6.6488,6.6764,6.7009,6.7518,6.807,6.8603,6.9155,6.9406,2.6001,2.733,2.9082,3.2383,3.4726,3.6934,3.9687,4.1406,4.2676,4.3516,4.3711,4.3984,4.4821,4.4977,4.5215,4.5801,4.6113,4.6308,4.6308,4.6308,4.6308,4.6308,4.6308,4.6641,4.75,4.7578,4.7975,4.8835,4.8913,4.8913,4.8913,4.8913,4.8913,4.8913,4.8913,4.8913,4.8913,4.8913,4.8913,4.8913,4.8913,4.8913,4.8913,4.8913,4.8913,4.8933,4.9336,4.9609,4.9785,5.0215,5.0644,5.1035,5.1328,5.1377,5.1377,5.1377,5.1377,5.1377,5.1377,5.1377,5.1377,5.1377,5.1377,5.1377,5.1377,5.1377,5.1377,5.1377,5.1377,5.1988,5.4453,5.6968,5.9225,6.0881,6.0632,5.9112,5.58,5.8333,6.0791,5.9134,6.209,6.4391,6.2804,6.2514,6.1911,6.0271,6.142,6.2202,6.1375,6.4104,6.6112,6.6112,6.6112,6.6112,6.6112,6.6112,6.6112,6.6112,6.6112,6.6112,6.6112,6.6112,6.6212,6.6388,6.6789,6.7166,6.7518,6.7894,6.8346,6.8854,6.923,6.9406,0.0,0.0,0.0,3.0381,3.1406,3.3144,3.951,4.0332,4.0508,4.3086,4.3613,4.3906,4.4801,4.4977,4.5312,4.6172,4.6308,4.6308,4.6308,4.6308,4.6308,4.6308,4.6308,4.666,4.75,4.7598,4.7949,4.8835,4.8913,4.8913,4.8913,4.8913,4.8913,4.8913,4.8913,4.8913,4.8913,4.8913,4.8913,4.8913,4.8913,4.8913,4.8913,4.8913,4.8913,4.8933,4.9336,4.9785,5.0215,5.0625,5.1055,5.1377,5.1377,5.1377,5.1377,5.1377,5.1377,5.1377,5.1377,5.1377,5.1377,5.1377,5.1377,5.1377,5.1377,5.1377,5.1377,5.1377,5.1377,5.1988,5.4453,5.6921,5.8676,5.8676,5.6874,5.5094,5.5021,5.6968,5.8722,5.8768,6.0722,6.2425,6.2469,6.238,6.0677,5.594,5.9294,6.1554,5.9225,6.3133,6.6112,6.6112,6.6112,6.6112,6.6112,6.6112,6.6112,6.6112,6.6112,6.6112,6.6112,6.6137,6.6413,6.7009,6.7015,6.7543,6.8578,6.8578,6.8854,6.9406,6.9406,6.9406,2.3867,0.0,0.0,0.0,0.0,0.0,3.4055,3.5918,3.791,4.0801,4.1406,4.2148,4.4528,4.4977,4.5312,4.6172,4.6308,4.6308,4.6308,4.6308,4.6308,4.6308,4.6562,4.6973,4.7519,4.7851,4.8262,4.8855,4.8913,4.8913,4.8913,4.8913,4.8913,4.8913,4.8913,4.8913,4.8913,4.8913,4.8913,4.8913,4.8913,4.8913,4.8913,4.8913,4.8913,4.8952,4.9668,5.0058,5.0215,5.0625,5.1055,5.1377,5.1377,5.1377,5.1377,5.1377,5.1377,5.1377,5.1377,5.1377,5.1377,5.1377,5.1377,5.1377,5.1377,5.1377,5.1377,5.1377,5.1377,5.1988,5.4453,5.5612,5.6128,5.6128,5.5612,5.4595,5.2816,5.4379,5.6642,5.8447,5.9362,6.0406,6.2202,5.9522,5.7271,5.7687,5.8951,6.0226,6.133,6.4192,6.6112,6.6112,6.6112,6.6112,6.6112,6.6112,6.6112,6.6112,6.6112,6.6112,6.6112,6.6513,6.6815,6.7009,6.7769,6.8321,6.8578,6.8578,6.8854,6.9406,6.9406,6.9406,2.4492,2.5156,2.6069,2.6445,0.0,0.0,3.3254,3.4941,3.6914,4.1016,4.1855,4.2441,4.4414,4.4902,4.5254,4.5937,4.6191,4.6308,4.6308,4.6308,4.6308,4.6308,4.6523,4.6914,4.7519,4.7793,4.8203,4.8855,4.8913,4.8913,4.8913,4.8913,4.8913,4.8913,4.8913,4.8913,4.8913,4.8913,4.8913,4.8913,4.8913,4.8913,4.8913,4.8913,4.9011,4.918,4.9883,5.0273,5.0469,5.0898,5.1211,5.1377,5.1377,5.1377,5.1377,5.1377,5.1377,5.1377,5.1377,5.1377,5.1377,5.1377,5.1377,5.1377,5.1377,5.1377,5.1377,5.1377,5.1377,5.1697,5.318,5.3542,5.3542,5.3542,5.3542,5.318,5.1697,5.2527,5.4284,5.6781,5.8079,5.8951,5.934,5.7872,5.6781,5.7178,5.9043,6.0881,6.2291,6.4609,6.6112,6.6112,6.6112,6.6112,6.6112,6.6112,6.6112,6.6112,6.6112,6.6112,6.6112,6.6664,6.7134,6.7317,6.817,6.8703,6.8929,6.8929,6.908,6.9406,6.9406,6.9406,2.5571,2.5962,2.6758,2.7448,2.7154,0.0,3.4271,3.5156,3.6211,4.1367,4.2461,4.2715,4.3476,4.3906,4.4316,4.4805,4.5449,4.5976,4.6269,4.6308,4.6308,4.6308,4.6348,4.668,4.7441,4.7598,4.7969,4.8776,4.8874,4.8913,4.8913,4.8913,4.8913,4.8913,4.8913,4.8913,4.8913,4.8913,4.8913,4.8913,4.8913,4.8913,4.8913,4.8913,4.9101,4.9551,5.0,5.041,5.084,5.1201,5.1377,5.1377,5.1377,5.1377,5.1377,5.1377,5.1377,5.1377,5.1377,5.1377,5.1377,5.1377,5.1377,5.1377,5.1377,5.1377,5.1377,5.1377,5.1377,5.1377,5.1377,5.1377,5.1377,5.1377,5.1377,5.1377,5.1377,5.1377,5.2016,5.4284,5.6455,5.7385,5.5424,5.6921,5.7734,5.58,5.9476,6.2602,6.2892,6.4783,6.6112,6.6112,6.6112,6.6112,6.6112,6.6112,6.6112,6.6112,6.6112,6.6112,6.6112,6.6739,6.7292,6.7794,6.8396,6.8904,6.9406,6.9406,6.9406,6.9406,6.9406,6.9406,2.7051,2.7266,2.7793,2.7266,2.7793,0.0,2.8828,2.9844,3.1436,3.3938,3.4687,3.5703,3.8223,3.875,3.9062,3.9881,4.1777,4.3906,4.6016,4.6308,4.6308,4.6308,4.6601,4.6831,4.7051,4.7676,4.8144,4.832,4.8698,4.8913,4.8913,4.8913,4.8913,4.8913,4.8913,4.8913,4.8913,4.8913,4.8913,4.8913,4.8913,4.8913,4.8913,4.8913,4.9101,4.9551,5.0,5.041,5.084,5.1201,5.1377,5.1377,5.1377,5.1377,5.1377,5.1377,5.1377,5.1377,5.1377,5.1377,5.1377,5.1377,5.1377,5.1377,5.1377,5.1377,5.1377,5.1377,5.1377,5.1377,5.1377,5.1377,5.1377,5.1377,5.1377,5.1377,5.1377,5.1377,5.1523,5.2036,5.2499,5.3323,5.4832,5.5518,5.6362,5.7848,6.0587,6.3201,6.5155,6.5785,6.6112,6.6112,6.6112,6.6112,6.6112,6.6112,6.6112,6.6112,6.6112,6.6112,6.6112,6.7091,6.7693,6.7794,6.8728,6.9306,6.9406,6.9406,6.9406,6.9406,6.9406,6.9406,2.8184,2.8125,2.8496,2.8066,2.8281,0.0,0.0,2.9922,3.1045,3.386,3.4062,3.4414,3.6582,3.6992,3.7187,3.7832,4.0469,4.2422,4.2441,4.4668,4.6308,4.6308,4.6484,4.6699,4.687,4.7519,4.8066,4.8496,4.8776,4.8913,4.8913,4.8913,4.8913,4.8913,4.8913,4.8913,4.8913,4.8913,4.8913,4.8913,4.8913,4.9031,4.9199,4.9199,4.9551,5.0176,5.0391,5.0723,5.1133,5.1299,5.1377,5.1377,5.1377,5.1377,5.1377,5.1377,5.1377,5.1377,5.1377,5.1377,5.1377,5.1377,5.1377,5.1377,5.1377,5.1377,5.1377,5.1377,5.1377,5.1377,5.1377,5.1377,5.1377,5.1377,5.1377,5.1377,5.1377,5.1377,5.1377,5.1377,5.1377,5.1794,5.3036,5.5304,5.7385,5.863,6.1911,6.474,6.594,6.6112,6.6112,6.6112,6.6112,6.6112,6.6112,6.6112,6.6112,6.6112,6.6112,6.6112,6.6112,6.7191,6.8045,6.8597,6.913,6.9406,6.9406,6.9406,6.9406,6.9406,6.9406,6.9406,2.9316,2.9043,2.9308,2.8976,2.8926,2.9316,0.0,0.0,0.0,3.4368,3.4192,3.3848,3.5111,3.5268,3.5293,3.5625,3.8574,4.0039,3.7809,4.1699,4.4844,4.4922,4.5742,4.6269,4.6191,4.6504,4.733,4.8679,4.8327,4.8288,4.8874,4.8913,4.8913,4.8913,4.8913,4.8913,4.8913,4.8913,4.8913,4.8913,4.8913,4.9101,4.9484,4.9484,5.0,5.0801,5.0801,5.1035,5.1377,5.1377,5.1377,5.1377,5.1377,5.1377,5.1377,5.1377,5.1377,5.1377,5.1377,5.1377,5.1377,5.1377,5.1377,5.1377,5.1377,5.1377,5.1377,5.1377,5.1377,5.1377,5.1377,5.1377,5.1377,5.1377,5.1377,5.1377,5.1377,5.1377,5.1377,5.1377,5.1794,5.2113,5.2113,5.5821,5.8951,5.9454,6.329,6.6112,6.6112,6.6112,6.6112,6.6112,6.6112,6.6112,6.6112,6.6112,6.6112,6.6112,6.6112,6.6162,6.6287,6.7367,6.8422,6.9381,6.9406,6.9406,6.9406,6.9406,6.9406,6.9406,6.9406,6.9406,3.0879,3.0586,3.083,2.9269,3.0011,3.0498,2.8144,0.0,2.9559,2.8855,0.0,2.9297,3.0243,0.0,0.0,2.9863,3.2773,3.4681,3.3594,3.6914,3.9627,3.9961,4.373,4.5566,4.3691,4.3555,4.4902,4.8047,4.6191,4.6055,4.8757,4.8913,4.8913,4.8913,4.8913,4.8913,4.8913,4.8913,4.8913,4.8913,4.8913,4.9101,4.9484,4.9484,5.0,5.0801,5.0801,5.1035,5.1377,5.1377,5.1377,5.1377,5.1377,5.1377,5.1377,5.1377,5.1377,5.1377,5.1377,5.1377,5.1377,5.1377,5.1377,5.1377,5.1377,5.1377,5.1377,5.1377,5.1377,5.1377,5.1377,5.1377,5.1377,5.1377,5.1377,5.1377,5.1377,5.1377,5.1377,5.1377,5.318,5.469,5.469,5.6968,5.9545,6.1733,6.4367,6.6112,6.6112,6.6112,6.6112,6.6112,6.6112,6.6112,6.6112,6.6112,6.6112,6.6112,6.6112,6.6338,6.6908,6.7945,6.8779,6.9381,6.9406,6.9406,6.9406,6.9406,6.9406,6.9406,6.9406,6.9406,3.0859,3.1387,3.2059,2.9863,3.0781,3.1465,2.8437,2.8151,2.8484,2.8398,0.0,0.0,0.0,0.0,0.0,0.0,3.1601,3.2949,3.084,3.4746,3.8086,3.875,4.0605,4.2148,4.3029,4.3301,4.4766,4.7969,4.6074,4.5957,4.8757,4.8913,4.9031,4.9238,4.9031,4.9031,4.9238,4.9031,4.8913,4.8913,4.9121,4.9473,4.9902,5.0156,5.0605,5.1172,5.1172,5.1221,5.1377,5.1377,5.1377,5.1377,5.1377,5.1377,5.1377,5.1377,5.1377,5.1377,5.1377,5.1377,5.1377,5.1377,5.1377,5.1377,5.1377,5.1377,5.1377,5.1377,5.1377,5.1377,5.1377,5.1377,5.1377,5.1377,5.1377,5.1377,5.1377,5.1377,5.1377,5.1377,5.3399,5.5565,5.7014,5.9317,6.1285,6.2336,6.4566,6.6112,6.6112,6.6112,6.6112,6.6112,6.6112,6.6112,6.6112,6.6112,6.6112,6.6112,6.6112,6.6513,6.7417,6.7894,6.8503,6.9381,6.9406,6.9406,6.9406,6.9406,6.9406,6.9406,6.9406,6.9406,3.1894,3.248,3.3066,3.0146,3.0693,3.125,2.8691,2.8093,2.8184,2.8762,2.8333,0.0,0.0,0.0,2.8672,2.873,0.0,3.1484,2.8926,3.2383,3.5449,3.6226,3.7129,3.8789,4.1621,4.1582,4.2969,4.6699,4.5,4.5273,4.8718,4.8913,4.9004,4.9336,4.907,4.907,4.9336,4.907,4.8913,4.8913,4.9316,4.9766,5.0195,5.0605,5.1035,5.1377,5.1377,5.1377,5.1377,5.1377,5.1377,5.1377,5.1377,5.1377,5.1377,5.1377,5.1377,5.1377,5.1377,5.1377,5.1377,5.1377,5.1377,5.1377,5.1377,5.1377,5.1377,5.1377,5.1377,5.1377,5.1377,5.1377,5.1377,5.1377,5.1377,5.1377,5.1377,5.1377,5.162,5.2258,5.4426,5.6921,5.9408,6.133,6.2691,6.3378,6.4982,6.6112,6.6112,6.6112,6.6112,6.6112,6.6112,6.6112,6.6112,6.6112,6.6112,6.6112,6.6262,6.6789,6.7769,6.7945,6.8472,6.9381,6.9406,6.9406,6.9406,6.9406,6.9406,6.9406,6.9406,6.9406,3.5013,3.4297,3.375,2.9874,2.9316,2.9344,2.8015,2.8301,2.8859,2.8879,2.9551,3.0117,3.0156,2.9833,0.0,0.0,0.0,0.0,0.0,2.8953,3.0009,3.041,3.3437,3.6348,3.8552,3.6855,3.793,4.3437,4.1875,4.3066,4.86,4.8913,4.8913,4.8933,4.8913,4.8913,4.8933,4.8913,4.8913,4.8913,4.9316,4.9766,5.0195,5.0605,5.1035,5.1377,5.1377,5.1377,5.1377,5.1377,5.1377,5.1377,5.1377,5.1377,5.1377,5.1377,5.1377,5.1377,5.1377,5.1377,5.1377,5.1377,5.1377,5.1377,5.1377,5.1377,5.1377,5.1377,5.1377,5.1377,5.1377,5.1377,5.1377,5.1377,5.1377,5.1377,5.1377,5.1377,5.2113,5.45,5.6968,5.9454,6.1956,6.2425,6.329,6.5613,6.6069,6.6112,6.6112,6.6112,6.6112,6.6112,6.6112,6.6112,6.6112,6.6112,6.6112,6.6112,6.6639,6.7216,6.7769,6.8321,6.8804,6.9381,6.9406,6.9406,6.9406,6.9406,6.9406,6.9406,6.9406,6.9406,3.6562,3.7344,3.7422,3.2676,3.2676,3.2832,2.8965,2.8965,2.9609,2.9015,2.9844,3.0469,2.9911,0.0,0.0,0.0,0.0,0.0,0.0,2.7617,2.8144,2.8848,3.2276,3.4837,3.5561,3.6992,3.9414,4.3008,4.3164,4.4648,4.8242,4.8737,4.9031,4.9297,4.907,4.9187,4.9773,4.9206,4.9004,4.9297,4.9746,5.0039,5.0195,5.0898,5.124,5.1377,5.1377,5.1377,5.1377,5.1377,5.1377,5.1377,5.1377,5.1377,5.1377,5.1377,5.1377,5.1377,5.1377,5.1377,5.1377,5.1377,5.1377,5.1377,5.1377,5.1377,5.1377,5.1377,5.1377,5.1377,5.1377,5.1377,5.1377,5.1377,5.1377,5.1377,5.1377,5.1377,5.2113,5.4595,5.7107,5.959,6.2069,6.3841,6.5155,6.5983,6.6112,6.6112,6.6112,6.6112,6.6112,6.6112,6.6112,6.6112,6.6112,6.6112,6.6112,6.6112,6.6664,6.7216,6.7769,6.8321,6.8829,6.9381,6.9406,6.9406,6.9406,6.9406,6.9406,6.9406,6.9406,6.9406,3.8652,3.9473,3.9416,3.5039,3.498,3.4869,3.0644,3.0527,3.1191,3.0616,3.084,3.1367,3.2198,3.0967,0.0,0.0,0.0,0.0,0.0,2.7148,2.7441,2.8034,3.0713,3.2922,3.3997,3.5391,3.8144,4.2734,4.291,4.4375,4.8008,4.8659,4.9031,4.9277,4.905,4.9187,4.9754,4.9187,4.905,4.9297,4.9902,5.0176,5.0215,5.1055,5.1377,5.1377,5.1377,5.1377,5.1377,5.1377,5.1377,5.1377,5.1377,5.1377,5.1377,5.1377,5.1377,5.1377,5.1377,5.1377,5.1377,5.1377,5.1377,5.1377,5.1377,5.1377,5.1377,5.1377,5.1377,5.1377,5.1377,5.1377,5.1377,5.1377,5.1377,5.1377,5.1377,5.2065,5.3467,5.594,5.8425,6.0926,6.3334,6.5069,6.6112,6.6112,6.6112,6.6112,6.6112,6.6112,6.6112,6.6112,6.6112,6.6112,6.6112,6.6112,6.6112,6.6112,6.6664,6.7216,6.7769,6.8321,6.8753,6.9105,6.9306,6.9306,6.9105,6.9306,6.9406,6.9406,6.9406,6.9406]},{"header":{"parameterUnit":"m.s-1","parameterCategory":1,"la1":30.6,"la2":29.2853,"lo1":-89.7004,"lo2":-87.6739,"dx":0.0162,"dy":0.0183,"nx":112,"ny":82,"refTime":"2022-11-07T18:00:00:Z","depth":0,"parameterNumber":3,"parameterNumberName":"V-component_of_WINDS"},"data":[0.0,0.0,0.0,0.0,0.0,0.0,0.0,0.0,0.0,0.0,0.0,0.0,0.0,0.0,0.0,0.0,0.0,0.0,0.0,0.0,0.0,0.0,0.0,0.0,0.0,0.0,0.0,0.0,0.0,0.0,0.0,0.0,0.0,0.0,0.0,0.0,0.0,0.0,0.0,0.0,0.0,0.0,0.0,0.0,0.0,0.0,0.0,0.0,0.0,0.0,0.0,0.0,0.0,0.0,0.0,0.0,0.0,0.0,0.0,0.0,0.0,0.0,0.0,0.0,0.0,0.0,0.0,0.0,0.0,0.0,0.0,0.0,0.0,0.0,0.0,0.0,0.0,0.0,0.0,0.0,0.0,0.0,0.0,0.0,0.0,0.0,0.0,0.0,0.0,0.0,3.1859,3.3668,3.5954,3.7336,3.7336,3.6359,3.4377,3.1039,0.0,0.0,0.0,0.0,0.0,0.0,0.0,0.0,0.0,0.0,0.0,0.0,0.0,0.0,0.0,0.0,0.0,0.0,0.0,0.0,0.0,0.0,0.0,0.0,0.0,0.0,0.0,0.0,0.0,0.0,0.0,0.0,0.0,0.0,0.0,0.0,0.0,0.0,0.0,0.0,0.0,0.0,0.0,0.0,0.0,0.0,0.0,0.0,0.0,0.0,0.0,0.0,0.0,0.0,0.0,0.0,0.0,0.0,0.0,0.0,0.0,0.0,0.0,0.0,0.0,0.0,0.0,0.0,0.0,0.0,0.0,0.0,0.0,0.0,0.0,0.0,0.0,0.0,0.0,0.0,0.0,0.0,0.0,0.0,0.0,0.0,0.0,0.0,0.0,0.0,0.0,0.0,0.0,0.0,0.0,0.0,0.0,0.0,0.0,0.0,0.0,0.0,0.0,0.0,3.1888,3.6734,3.7638,3.7889,3.7889,3.7287,3.5504,3.2169,0.0,0.0,0.0,0.0,0.0,0.0,0.0,0.0,0.0,0.0,0.0,0.0,0.0,0.0,0.0,0.0,0.0,0.0,0.0,0.0,0.0,0.0,0.0,0.0,0.0,0.0,0.0,0.0,0.0,0.0,0.0,0.0,0.0,0.0,0.0,0.0,0.0,0.0,0.0,0.0,0.0,0.0,0.0,0.0,0.0,0.0,0.0,0.0,0.0,0.0,0.0,0.0,0.0,0.0,0.0,0.0,0.0,0.0,0.0,0.0,0.0,0.0,0.0,0.0,0.0,0.0,0.0,0.0,0.0,0.0,0.0,0.0,0.0,0.0,0.0,0.0,0.0,0.0,0.0,0.0,0.0,0.0,0.0,0.0,0.0,0.0,0.0,0.0,0.0,0.0,0.0,0.0,0.0,0.0,0.0,0.0,0.0,0.0,0.0,0.0,0.0,0.0,0.0,3.1637,3.3997,3.8065,3.8492,3.8492,3.8492,3.7965,3.6081,3.242,2.9955,0.0,0.0,0.0,0.0,0.0,0.0,0.0,0.0,0.0,0.0,0.0,0.0,0.0,0.0,0.0,0.0,0.0,0.0,0.0,0.0,0.0,0.0,0.0,0.0,0.0,0.0,0.0,0.0,0.0,0.0,0.0,0.0,0.0,0.0,0.0,0.0,0.0,0.0,0.0,0.0,0.0,0.0,0.0,0.0,0.0,0.0,0.0,0.0,0.0,0.0,0.0,0.0,0.0,0.0,0.0,0.0,0.0,0.0,0.0,0.0,0.0,0.0,0.0,0.0,0.0,0.0,0.0,0.0,0.0,0.0,0.0,0.0,0.0,0.0,0.0,0.0,0.0,0.0,0.0,0.0,0.0,0.0,0.0,0.0,0.0,0.0,0.0,0.0,0.0,0.0,0.0,0.0,0.0,0.0,0.0,0.0,0.0,0.0,0.0,0.0,0.0,0.0,3.5102,3.6936,3.922,3.9472,3.9421,3.9296,3.8743,3.6684,3.2667,3.0758,0.0,0.0,0.0,0.0,0.0,0.0,0.0,0.0,0.0,0.0,0.0,0.0,0.0,0.0,0.0,0.0,0.0,0.0,0.0,0.0,0.0,0.0,0.0,0.0,0.0,0.0,0.0,0.0,0.0,0.0,0.0,0.0,0.0,0.0,0.0,0.0,0.0,0.0,0.0,0.0,0.0,0.0,0.0,0.0,0.0,0.0,0.0,0.0,0.0,0.0,0.0,0.0,0.0,0.0,0.0,0.0,0.0,0.0,0.0,0.0,0.0,0.0,0.0,0.0,0.0,0.0,0.0,0.0,0.0,0.0,0.0,0.0,0.0,0.0,0.0,0.0,0.0,0.0,0.0,0.0,0.0,0.0,0.0,0.0,0.0,0.0,0.0,0.0,0.0,0.0,0.0,0.0,0.0,0.0,0.0,0.0,0.0,0.0,0.0,0.0,0.0,0.0,3.7211,4.0349,4.1076,4.1152,4.0926,4.0424,3.9898,3.7688,3.3316,3.1004,0.0,0.0,0.0,0.0,0.0,0.0,0.0,0.0,0.0,0.0,0.0,0.0,0.0,0.0,0.0,0.0,0.0,0.0,0.0,0.0,0.0,0.0,0.0,0.0,0.0,0.0,0.0,0.0,0.0,0.0,0.0,0.0,0.0,0.0,0.0,0.0,0.0,0.0,0.0,0.0,0.0,0.0,0.0,0.0,0.0,0.0,0.0,0.0,0.0,0.0,0.0,0.0,0.0,0.0,0.0,0.0,0.0,0.0,0.0,0.0,0.0,0.0,0.0,0.0,0.0,0.0,0.0,0.0,0.0,0.0,0.0,0.0,0.0,0.0,0.0,0.0,0.0,0.0,0.0,0.0,0.0,0.0,0.0,0.0,0.0,0.0,0.0,0.0,0.0,0.0,0.0,0.0,0.0,0.0,0.0,0.0,0.0,0.0,0.0,0.0,0.0,0.0,3.7696,4.0514,4.1207,4.1302,4.1227,4.1026,4.1619,3.9612,3.3963,0.0,0.0,0.0,0.0,0.0,0.0,0.0,0.0,0.0,0.0,0.0,0.0,0.0,0.0,0.0,0.0,0.0,0.0,0.0,0.0,0.0,0.0,0.0,0.0,0.0,0.0,0.0,0.0,0.0,0.0,0.0,0.0,0.0,0.0,0.0,0.0,0.0,0.0,0.0,0.0,0.0,0.0,0.0,0.0,0.0,0.0,0.0,0.0,0.0,0.0,0.0,0.0,0.0,0.0,0.0,0.0,0.0,0.0,0.0,0.0,0.0,0.0,0.0,0.0,0.0,0.0,0.0,0.0,0.0,0.0,0.0,0.0,0.0,0.0,0.0,0.0,0.0,0.0,0.0,0.0,0.0,0.0,0.0,0.0,0.0,0.0,0.0,0.0,0.0,0.0,0.0,0.0,0.0,0.0,0.0,0.0,0.0,0.0,0.0,0.0,0.0,0.0,3.5757,3.9578,4.2355,4.3048,4.275,4.2592,4.2864,4.3363,4.1054,3.4944,0.0,0.0,0.0,0.0,0.0,0.0,0.0,0.0,0.0,0.0,0.0,0.0,0.0,0.0,0.0,0.0,0.0,0.0,0.0,0.0,0.0,0.0,0.0,0.0,0.0,0.0,0.0,0.0,0.0,0.0,0.0,0.0,0.0,0.0,0.0,0.0,0.0,0.0,0.0,0.0,0.0,0.0,0.0,0.0,0.0,0.0,0.0,0.0,0.0,0.0,0.0,0.0,0.0,0.0,0.0,0.0,0.0,0.0,0.0,0.0,0.0,0.0,0.0,0.0,0.0,0.0,0.0,0.0,0.0,0.0,0.0,0.0,0.0,0.0,0.0,0.0,0.0,0.0,0.0,0.0,0.0,0.0,0.0,0.0,0.0,0.0,0.0,0.0,0.0,0.0,0.0,0.0,0.0,0.0,0.0,0.0,0.0,0.0,0.0,0.0,0.0,0.0,3.8684,4.3294,4.6533,4.7039,4.5846,4.5367,4.624,4.5064,4.1921,0.0,0.0,0.0,0.0,0.0,0.0,0.0,0.0,0.0,0.0,0.0,0.0,0.0,0.0,0.0,0.0,0.0,0.0,0.0,0.0,0.0,0.0,0.0,0.0,0.0,0.0,0.0,0.0,0.0,0.0,0.0,0.0,0.0,0.0,0.0,0.0,0.0,0.0,0.0,0.0,0.0,0.0,0.0,0.0,0.0,0.0,0.0,0.0,0.0,0.0,0.0,0.0,0.0,0.0,0.0,0.0,0.0,0.0,0.0,0.0,0.0,0.0,0.0,0.0,0.0,0.0,0.0,0.0,0.0,0.0,0.0,0.0,0.0,0.0,0.0,0.0,0.0,0.0,0.0,0.0,0.0,0.0,0.0,0.0,0.0,0.0,0.0,0.0,0.0,0.0,0.0,0.0,0.0,0.0,0.0,0.0,0.0,0.0,0.0,0.0,0.0,0.0,0.0,3.951,4.4739,4.8041,4.7169,4.6733,4.6601,4.6846,4.7404,4.4538,3.7059,0.0,0.0,0.0,0.0,0.0,0.0,0.0,0.0,0.0,0.0,0.0,0.0,0.0,0.0,0.0,0.0,0.0,0.0,0.0,0.0,0.0,0.0,0.0,0.0,0.0,0.0,0.0,0.0,0.0,0.0,0.0,0.0,0.0,0.0,0.0,0.0,0.0,0.0,0.0,0.0,0.0,0.0,0.0,0.0,0.0,0.0,0.0,0.0,0.0,0.0,0.0,0.0,0.0,0.0,0.0,0.0,0.0,0.0,0.0,0.0,0.0,0.0,0.0,0.0,0.0,0.0,0.0,0.0,0.0,0.0,0.0,0.0,0.0,0.0,0.0,0.0,0.0,0.0,0.0,0.0,0.0,0.0,0.0,0.0,0.0,0.0,0.0,0.0,0.0,0.0,0.0,0.0,0.0,0.0,0.0,0.0,0.0,0.0,0.0,0.0,0.0,0.0,4.1522,4.7027,5.0484,4.9606,4.9025,4.881,4.9113,4.9412,4.6881,4.0467,0.0,0.0,0.0,0.0,0.0,0.0,0.0,0.0,0.0,0.0,0.0,0.0,0.0,0.0,0.0,0.0,0.0,0.0,0.0,0.0,0.0,0.0,0.0,0.0,0.0,0.0,0.0,0.0,0.0,0.0,0.0,0.0,0.0,0.0,0.0,0.0,0.0,0.0,0.0,0.0,0.0,0.0,0.0,0.0,0.0,0.0,0.0,0.0,0.0,0.0,0.0,0.0,0.0,0.0,0.0,0.0,0.0,0.0,0.0,0.0,0.0,0.0,0.0,0.0,0.0,0.0,0.0,0.0,0.0,0.0,0.0,0.0,0.0,0.0,0.0,0.0,0.0,0.0,0.0,0.0,0.0,0.0,0.0,0.0,0.0,0.0,0.0,0.0,0.0,0.0,0.0,0.0,0.0,0.0,0.0,0.0,0.0,0.0,0.0,0.0,0.0,0.0,4.4057,4.9494,5.3198,5.3198,5.205,5.1591,5.224,5.1175,4.8982,4.5427,0.0,0.0,0.0,0.0,0.0,0.0,0.0,0.0,0.0,0.0,0.0,0.0,0.0,0.0,0.0,0.0,0.0,0.0,0.0,0.0,0.0,0.0,0.0,0.0,0.0,0.0,0.0,0.0,0.0,0.0,0.0,0.0,0.0,0.0,0.0,0.0,0.0,0.0,0.0,0.0,0.0,0.0,0.0,0.0,0.0,0.0,0.0,0.0,0.0,0.0,0.0,0.0,0.0,0.0,0.0,0.0,0.0,0.0,0.0,0.0,3.0865,2.7165,0.0,0.0,0.0,0.0,0.0,0.0,0.0,0.0,0.0,0.0,0.0,0.0,0.0,0.0,0.0,0.0,0.0,0.0,0.0,0.0,0.0,0.0,0.0,0.0,0.0,0.0,0.0,0.0,0.0,0.0,0.0,0.0,0.0,0.0,0.0,0.0,0.0,0.0,0.0,0.0,4.4197,4.9494,5.3198,5.3198,5.2925,5.2816,5.2965,5.2716,5.0851,4.6829,4.4749,0.0,0.0,0.0,0.0,0.0,0.0,0.0,0.0,0.0,0.0,0.0,0.0,0.0,0.0,0.0,0.0,0.0,0.0,0.0,0.0,0.0,0.0,0.0,0.0,0.0,0.0,0.0,0.0,0.0,0.0,0.0,0.0,0.0,0.0,0.0,0.0,0.0,0.0,0.0,0.0,0.0,0.0,0.0,0.0,0.0,0.0,0.0,0.0,0.0,0.0,0.0,0.0,0.0,0.0,0.0,0.0,0.0,0.0,0.0,3.534,3.2781,0.0,0.0,0.0,0.0,0.0,0.0,0.0,0.0,0.0,0.0,0.0,0.0,0.0,0.0,0.0,0.0,0.0,0.0,0.0,0.0,0.0,0.0,0.0,0.0,0.0,0.0,0.0,0.0,0.0,0.0,0.0,0.0,0.0,0.0,0.0,0.0,0.0,0.0,0.0,0.0,4.6052,5.1409,5.5059,5.5059,5.5059,5.4845,5.4216,5.4186,5.2944,5.0159,4.7525,0.0,0.0,0.0,0.0,0.0,0.0,0.0,0.0,0.0,0.0,0.0,0.0,0.0,0.0,0.0,0.0,0.0,0.0,0.0,0.0,0.0,0.0,0.0,0.0,0.0,0.0,0.0,0.0,0.0,0.0,0.0,0.0,0.0,0.0,0.0,0.0,0.0,0.0,0.0,0.0,0.0,0.0,0.0,0.0,0.0,0.0,0.0,0.0,0.0,0.0,0.0,0.0,0.0,3.926,4.0068,4.1145,4.1145,4.2293,4.4147,4.0367,3.9619,4.0726,3.6221,0.0,0.0,0.0,0.0,0.0,0.0,0.0,0.0,0.0,0.0,0.0,0.0,0.0,0.0,0.0,0.0,0.0,0.0,0.0,0.0,0.0,0.0,4.3738,4.4775,4.6809,4.7309,4.2921,0.0,0.0,0.0,0.0,0.0,0.0,0.0,0.0,0.0,0.0,0.0,4.8686,5.3713,5.7094,5.7094,5.7094,5.6675,5.5598,5.5508,5.5059,5.3947,5.0437,4.8024,0.0,0.0,0.0,0.0,0.0,0.0,0.0,0.0,0.0,0.0,0.0,0.0,0.0,0.0,0.0,0.0,0.0,0.0,0.0,0.0,0.0,0.0,0.0,0.0,0.0,0.0,0.0,0.0,0.0,0.0,0.0,0.0,3.0883,3.1645,0.0,0.0,0.0,0.0,0.0,0.0,0.0,0.0,0.0,0.0,0.0,0.0,0.0,3.9619,4.0475,4.2821,4.4077,4.4287,4.6612,4.781,4.7989,4.7989,4.8169,4.8468,4.787,0.0,4.3688,4.2412,0.0,0.0,0.0,0.0,0.0,0.0,0.0,0.0,0.0,0.0,0.0,0.0,0.0,0.0,0.0,0.0,0.0,0.0,0.0,0.0,0.0,0.0,5.1702,5.1851,5.2606,5.3114,5.2396,4.7706,4.3549,4.319,4.313,4.2113,0.0,0.0,0.0,0.0,0.0,0.0,5.1289,5.485,5.7094,5.7094,5.7094,5.7034,5.6855,5.6855,5.6765,5.6585,5.5018,5.3058,5.0641,4.8581,0.0,0.0,0.0,0.0,0.0,0.0,0.0,0.0,0.0,0.0,0.0,0.0,0.0,0.0,0.0,0.0,0.0,0.0,0.0,0.0,0.0,0.0,0.0,0.0,0.0,0.0,0.0,0.0,0.0,2.979,3.2033,3.3455,3.2437,3.124,0.0,0.0,0.0,0.0,0.0,0.0,0.0,0.0,0.0,4.2641,4.3389,4.4407,4.5834,4.6972,4.7698,4.8065,4.9254,5.0002,5.0361,5.0361,5.0571,5.0923,5.0511,4.9942,4.9045,4.5783,4.309,4.0816,0.0,0.0,0.0,0.0,3.9128,3.9817,4.2791,4.3818,4.3728,4.313,0.0,0.0,0.0,0.0,0.0,0.0,0.0,4.6172,4.8693,5.099,5.2905,5.4067,5.4845,5.5418,5.5748,5.3862,5.1295,4.8663,4.7608,4.5933,4.2233,4.3658,0.0,0.0,0.0,5.2516,5.467,5.7543,5.9368,5.9368,5.9368,5.9039,5.8291,5.8231,5.7902,5.7154,5.6585,5.5748,5.4551,5.1917,4.8775,0.0,0.0,0.0,0.0,0.0,0.0,0.0,0.0,0.0,0.0,0.0,0.0,0.0,0.0,0.0,0.0,0.0,0.0,0.0,0.0,0.0,0.0,0.0,0.0,0.0,0.0,0.0,0.0,3.2303,3.4277,3.5595,3.5459,3.4606,0.0,0.0,0.0,0.0,0.0,0.0,4.2132,4.3259,4.4876,4.701,4.7728,4.8775,5.0265,5.0295,5.0511,5.0966,5.0966,5.1236,5.1708,5.1708,5.1977,5.2426,5.1947,5.2276,5.2869,4.8745,4.677,4.6133,4.4187,4.299,4.2541,4.3728,4.4178,4.4627,4.7728,4.8805,4.8775,4.8596,4.8207,4.7489,4.5822,0.0,0.0,0.0,0.0,4.9553,5.1684,5.309,5.4341,5.5837,5.6731,5.733,5.7752,5.8261,5.7517,5.3927,5.2576,5.0863,4.7018,4.8566,0.0,4.9172,5.2845,5.6346,5.8141,6.0116,6.1313,6.1134,6.1076,6.0715,5.9697,5.9608,5.9189,5.8171,5.7962,5.7782,5.7603,5.5089,5.2761,5.0757,0.0,0.0,0.0,0.0,0.0,0.0,0.0,0.0,0.0,0.0,0.0,0.0,0.0,0.0,0.0,0.0,0.0,0.0,0.0,0.0,0.0,0.0,0.0,0.0,0.0,0.0,0.0,0.0,0.0,3.9212,4.1305,0.0,0.0,0.0,0.0,4.1044,4.1841,4.3648,4.68,4.7608,4.9187,5.1768,5.2486,5.2899,5.2989,5.2989,5.3019,5.3049,5.3049,5.3079,5.3109,5.3109,5.3109,5.3169,5.3109,5.3139,5.3139,5.2217,5.075,4.909,4.8947,4.7361,4.5445,4.7989,4.8947,4.9307,5.1971,5.2899,5.2809,5.2157,5.069,4.9396,5.0481,4.9553,0.0,0.0,5.2785,5.4461,5.7038,5.8205,5.877,5.889,5.9398,5.9934,5.9937,5.9994,5.9727,5.886,5.9159,5.8527,5.5149,0.0,5.5983,5.6466,5.6795,5.8171,6.1433,6.1972,6.1822,6.1194,6.1076,6.1046,6.1014,6.1014,6.0956,6.0896,6.0296,5.9668,5.9039,5.8205,5.5991,5.2187,5.1289,0.0,0.0,0.0,0.0,0.0,0.0,0.0,0.0,0.0,0.0,0.0,0.0,0.0,0.0,0.0,0.0,0.0,0.0,0.0,0.0,0.0,0.0,0.0,0.0,0.0,0.0,0.0,0.0,4.1498,4.3269,0.0,4.2064,4.3878,4.5364,4.5804,4.763,4.9426,5.099,5.1312,5.2067,5.3443,5.3713,5.4042,5.4461,5.4486,5.4486,5.4486,5.4486,5.4486,5.4486,5.4486,5.4725,5.5114,5.4665,5.494,5.5658,5.5025,5.3618,5.1821,5.1821,5.1492,5.1139,5.2097,5.2749,5.3228,5.4186,5.4486,5.4546,5.4725,5.4576,5.4426,5.485,5.482,5.4795,5.5722,5.6974,5.8201,5.9129,5.9877,6.0505,6.0924,6.1194,6.1613,6.2421,6.26,6.266,6.2841,6.1732,6.0116,5.8052,5.9668,6.0715,5.9249,6.0835,6.263,6.3798,6.3947,6.3858,6.3618,6.3588,6.3259,6.245,6.2391,6.2032,6.1136,6.0894,6.0655,6.0416,6.0149,5.9159,5.7304,5.6645,5.2851,0.0,0.0,0.0,0.0,0.0,0.0,0.0,0.0,0.0,0.0,0.0,0.0,0.0,0.0,0.0,0.0,0.0,0.0,0.0,0.0,0.0,0.0,0.0,0.0,0.0,4.2629,4.512,4.3769,4.594,4.6875,4.5145,4.7735,4.9664,4.9928,5.1768,5.3054,5.3503,5.3977,5.4426,5.485,5.5089,5.5388,5.5837,5.5837,5.5957,5.6166,5.6166,5.6286,5.6526,5.6526,5.6765,5.715,5.6705,5.7004,5.7752,5.7334,5.6402,5.5174,5.4695,5.479,5.5179,5.5179,5.5448,5.5867,5.6107,5.6316,5.6615,5.73,5.7809,5.8141,5.8381,5.877,5.9102,5.9102,6.0086,6.1132,6.1132,6.1762,6.2512,6.2989,6.3079,6.3318,6.4156,6.4515,6.4814,6.5233,6.3738,6.2123,6.1225,6.2899,6.3677,6.1702,6.3647,6.5174,6.4725,6.5054,6.5233,6.5024,6.4994,6.4635,6.3797,6.2929,6.2421,6.2422,6.1584,6.1313,6.1762,6.0924,5.9997,5.9126,5.865,5.5299,4.8962,0.0,0.0,0.0,0.0,0.0,0.0,0.0,0.0,0.0,0.0,0.0,0.0,0.0,0.0,0.0,0.0,0.0,0.0,0.0,0.0,0.0,0.0,0.0,4.5195,4.6185,4.7013,4.6339,4.9688,5.1106,4.8802,5.1846,5.3791,5.3344,5.3936,5.4306,5.4311,5.5559,5.6303,5.6282,5.6881,5.7184,5.7214,5.7214,5.7543,5.8175,5.8175,5.8534,5.9159,5.9159,5.9159,5.9159,5.9159,5.9159,5.9159,5.9159,5.9159,5.9039,5.7693,5.7184,5.7184,5.7184,5.7214,5.7304,5.7965,5.8623,5.9279,5.9907,6.0174,6.0266,6.0954,6.1136,6.1194,6.1194,6.2151,6.3168,6.3168,6.4066,6.4994,6.5024,6.5024,6.5024,6.5054,6.5562,6.6041,6.6041,6.5503,6.5054,6.5054,6.5054,6.4845,6.4186,6.5203,0.0,6.4246,6.5233,6.5772,6.5084,6.4994,6.4994,6.4964,6.2631,6.2272,6.4845,6.2601,6.1792,6.3108,6.0655,5.865,5.7334,5.7184,5.6196,5.4311,0.0,0.0,0.0,0.0,0.0,0.0,0.0,0.0,0.0,0.0,0.0,0.0,0.0,0.0,0.0,0.0,0.0,0.0,0.0,0.0,0.0,4.8391,5.0674,4.8537,5.0908,5.2721,5.2348,5.3712,5.4591,5.448,5.5053,5.5573,5.5927,5.6603,5.6829,5.6338,5.7583,5.8298,5.8288,5.8471,5.9009,5.9997,6.0027,6.0089,6.0268,6.0268,6.0358,6.0565,6.0565,6.0565,6.0565,6.0565,6.0565,6.0565,6.0565,6.0565,6.0416,5.9069,5.883,5.9306,5.9306,5.9578,6.0027,6.0209,6.0388,6.0595,6.0775,6.1164,6.1583,6.1762,6.248,6.3199,6.3199,6.3827,6.4485,6.4485,6.4725,6.5114,6.5592,6.5742,6.5862,6.634,6.658,6.6729,6.6729,6.658,6.646,6.646,6.646,6.64,6.6191,6.649,6.658,6.6221,6.649,6.6281,6.5114,6.4994,6.4785,6.4336,6.3617,6.3737,6.4904,6.4336,6.4097,6.4456,6.3768,6.2989,6.2121,5.9308,5.7334,0.0,0.0,0.0,0.0,0.0,0.0,0.0,0.0,0.0,0.0,0.0,0.0,0.0,0.0,0.0,0.0,0.0,0.0,0.0,0.0,0.0,0.0,5.2404,5.4728,5.3694,5.5018,5.6021,5.584,5.6732,5.7418,5.7676,5.8115,5.8249,5.7918,5.903,5.945,5.8831,5.9773,6.0727,6.1628,6.053,6.0598,6.1923,6.1651,6.1672,6.1942,6.2211,6.2452,6.2721,6.2721,6.2721,6.2721,6.2721,6.2721,6.2721,6.2721,6.2721,6.2541,0.0,0.0,0.0,0.0,6.1343,6.1972,6.2241,6.251,6.2721,6.2721,6.3019,6.3318,6.3318,6.3827,6.4425,6.4425,6.4874,6.5413,6.5413,6.5652,6.5951,6.634,6.643,6.652,6.6909,6.7208,6.7449,6.7449,6.7627,0.0,6.7837,6.7358,6.6819,6.6251,6.664,6.6789,6.6251,6.664,6.67,6.5922,6.5862,6.5682,6.5293,6.4246,0.0,0.0,0.0,6.4096,6.3827,6.3499,0.0,0.0,0.0,5.97,6.0416,5.8085,0.0,0.0,5.3982,5.3593,0.0,0.0,0.0,0.0,0.0,0.0,0.0,0.0,0.0,0.0,0.0,0.0,0.0,0.0,0.0,0.0,5.6646,5.9013,5.9115,5.8441,5.7972,5.7972,5.9117,5.9802,5.9564,6.099,6.1333,5.9847,6.1432,6.2229,6.167,6.2237,0.0,0.0,0.0,6.2445,6.3817,6.3069,6.2976,6.3577,6.3944,6.4425,6.4994,6.4994,6.4994,6.4994,6.4994,6.4994,6.4994,6.4994,6.4994,6.4755,6.2452,6.1525,6.1584,6.2211,6.278,6.3407,6.3917,0.0,0.0,6.4994,6.5054,6.5114,6.5114,6.5174,6.5233,6.5233,6.5622,6.6131,6.6221,6.667,6.7119,6.7208,6.7208,6.7208,6.7208,6.7687,6.8107,6.8107,6.8585,6.9004,6.9004,6.8016,6.6819,6.5622,6.646,6.6789,6.5592,6.649,6.7119,6.6909,6.6879,0.0,6.6759,6.4635,6.4395,6.6819,6.4844,6.3287,6.266,6.2091,6.1792,6.1792,6.1792,6.29,6.5233,6.5233,6.5263,6.5144,5.7304,5.5897,0.0,0.0,0.0,0.0,0.0,0.0,0.0,0.0,0.0,0.0,0.0,0.0,0.0,0.0,0.0,5.416,5.7002,5.9216,5.981,6.0772,6.143,6.143,6.17,6.2293,6.3399,6.3436,6.3483,6.3763,6.4676,6.4964,6.4438,6.5506,6.6347,6.6894,6.6363,6.6774,6.8181,6.6858,6.6265,6.6388,6.5312,0.0,6.4994,6.4994,6.4994,6.4994,6.4994,6.4994,6.4994,6.4994,6.4994,6.4964,6.4426,6.4246,6.4246,6.4396,6.4516,6.4635,6.4755,6.4874,6.4994,6.4994,6.5353,6.5832,6.5832,6.6191,0.0,6.661,6.67,6.6909,6.7479,6.7718,6.7958,6.8465,6.8615,6.8615,6.8615,6.8704,6.8794,6.8794,6.8914,6.9004,6.9004,6.8794,6.8525,6.8286,6.8465,6.8525,6.8256,6.8465,6.7986,6.637,6.6191,6.5981,6.5413,6.4904,6.5323,6.6879,6.652,6.6191,6.6041,6.5922,6.5862,6.5862,6.5862,6.6101,6.661,6.661,6.6879,6.7359,6.4066,6.3289,0.0,0.0,0.0,0.0,0.0,0.0,0.0,0.0,0.0,0.0,0.0,4.8917,5.0423,0.0,5.509,5.6562,5.8998,6.0825,6.1197,6.255,6.3226,6.2502,6.3382,6.4478,6.5595,6.5798,6.588,6.5981,6.6944,6.7482,6.7321,6.7845,6.8837,7.036,6.9069,6.904,7.0452,6.9329,6.8787,6.8787,6.7652,6.7113,6.7083,6.6342,6.6011,6.6011,6.6011,6.6011,6.6011,6.6011,6.6011,6.6011,6.6011,6.5562,6.5024,6.5383,6.5503,6.5532,6.5892,6.6011,6.6011,6.6011,6.6221,6.649,6.649,6.6969,6.7508,6.7508,6.7717,6.8076,6.8405,6.8495,6.8585,6.8914,6.9004,6.9004,6.9004,6.9243,6.9482,6.9482,6.9752,6.9961,6.9961,6.9961,6.9722,6.9093,6.9004,6.9004,6.9004,6.9004,6.8615,6.7627,6.7508,6.7388,6.7029,6.7029,6.7298,6.7956,6.7986,6.7986,6.7986,6.7986,6.7986,6.7986,6.7986,6.7986,6.7986,6.7986,6.8166,6.8465,6.7478,6.7208,0.0,0.0,0.0,0.0,0.0,0.0,0.0,4.4809,4.623,4.9206,5.0777,5.2215,5.4194,5.553,5.7085,5.9284,6.1197,6.2502,6.2787,6.4106,6.458,6.3396,6.4816,6.6271,6.7163,6.7793,6.8067,6.7926,6.892,6.9727,7.0163,7.0111,7.117,7.3623,7.1564,7.1019,7.2299,7.1454,7.1032,7.1005,7.0084,6.949,6.9143,6.7969,6.7274,6.6999,6.6999,6.6999,6.6999,6.7119,6.7178,6.7208,6.7328,6.6729,6.5802,6.6101,6.6281,6.646,6.6999,6.7268,6.7388,6.7388,6.7388,6.7388,6.7388,6.7778,6.8197,6.8197,6.8585,6.9034,6.9153,6.9183,6.9213,6.9333,6.9363,6.9363,6.9363,6.9782,7.0171,7.0171,7.056,7.0889,7.0889,7.0889,7.056,6.9512,6.9363,6.9363,6.9363,6.9363,6.9333,6.9213,6.9183,6.9123,6.9004,6.9004,6.9004,6.9004,6.9004,6.9004,6.9004,6.9004,6.9004,6.9004,6.9004,6.9004,6.9004,6.9004,6.9064,6.9183,6.9183,6.9123,3.9017,3.9153,4.0743,4.4012,4.5365,4.753,0.0,5.3653,5.3213,5.6156,5.6918,5.7306,5.8201,5.8506,5.9351,6.1637,6.2212,6.2854,6.4174,6.5628,6.6487,6.6318,6.6542,6.7252,6.8707,6.891,6.9487,7.076,7.0951,7.1616,7.2977,7.3021,7.3473,7.4458,7.4198,7.4407,7.5214,7.3915,7.3229,7.3237,7.1816,7.048,6.9201,6.9027,6.8236,6.6999,6.6999,6.6999,6.7029,6.7658,6.7898,6.7958,6.8525,6.8675,6.8435,6.7298,6.7238,6.7808,6.7868,6.8287,6.8764,6.8764,6.8764,6.8764,6.8764,6.8824,6.8884,6.8884,6.8944,6.9123,6.9722,6.9903,7.0021,7.056,7.0679,7.0679,7.0679,7.0739,7.0799,7.0799,7.0859,7.0889,7.0889,7.0889,7.0859,7.0709,7.0679,7.0679,7.0679,7.0679,7.047,6.9963,6.9903,6.9632,6.9064,6.9004,6.9004,6.9004,6.9004,6.9004,6.9004,6.9004,6.9004,6.9004,6.9004,6.9004,6.9004,6.9004,6.9303,6.9903,6.9903,6.9572,4.5771,4.5399,4.5432,4.8714,5.0135,5.142,5.4228,5.4499,5.4972,5.7915,5.8558,5.8761,5.9505,6.0385,6.1298,6.2265,6.3483,6.4681,6.573,6.6779,6.776,6.8673,6.918,6.9666,7.0331,7.0376,7.1007,7.2462,7.2563,7.3037,7.4086,7.4153,7.4492,7.5236,7.5236,7.5405,7.5709,7.5112,7.481,7.4819,7.3814,7.3004,7.2383,7.1005,7.0085,6.9487,6.9487,6.9487,6.9517,6.9793,6.9395,6.8585,6.8884,6.9004,6.8944,6.8375,6.8345,6.8555,6.8555,6.8764,6.9004,6.9004,6.9004,6.9004,6.9004,6.9273,6.9572,6.9572,6.9842,7.0171,7.044,7.053,7.059,7.0829,7.0889,7.0889,7.0889,7.0889,7.1009,7.1398,7.1487,7.1607,7.1996,7.2086,7.2086,7.2086,7.1398,7.0889,7.0889,7.0889,7.0799,7.056,7.053,7.041,7.0141,7.0111,7.0111,7.0111,7.0111,7.0111,7.0111,7.047,7.0679,7.0679,7.1068,7.1278,7.1278,7.1278,7.1427,7.1697,7.1697,7.1547,4.9138,4.9273,4.9172,5.1961,5.3687,5.4702,5.4702,5.5108,5.6156,5.8506,5.9013,5.9351,6.052,6.1656,6.2584,6.3213,6.4816,6.6271,6.7015,6.7929,6.9011,7.0331,7.1142,7.1763,7.2168,7.2056,7.2428,7.3713,7.3781,7.4119,7.4864,7.4897,7.5168,7.5676,7.5709,7.5811,7.6014,7.6014,7.6115,7.6318,7.5857,7.5397,7.4924,7.2882,7.1925,7.1925,7.1925,7.1925,7.1927,7.1671,7.0923,6.9874,6.9643,6.9512,6.9512,6.9512,6.9423,6.9273,6.9273,6.9393,6.9512,6.9512,6.9512,6.9512,6.9512,6.9991,7.0502,7.029,7.0679,7.1188,7.1188,7.1188,7.1218,7.1427,7.1457,7.1457,7.1457,7.1457,7.1607,7.2086,7.2176,7.2325,7.2834,7.2924,7.2924,7.2924,7.2086,7.1457,7.1457,7.1457,7.1457,7.1457,7.1457,7.1457,7.1457,7.1457,7.1457,7.1457,7.1457,7.1457,7.1457,7.1906,7.2176,7.2176,7.2654,7.2924,7.2924,7.2924,7.2924,7.2924,7.3103,7.3103,4.653,4.8458,5.0574,5.2875,5.5615,5.7764,5.7764,5.7798,5.8017,5.881,5.9013,5.9656,6.1907,6.2367,6.3111,6.5243,6.6271,6.6994,6.776,6.9147,7.0398,7.1176,7.1921,7.2935,7.4333,7.3849,7.3747,7.4525,7.4593,7.4897,7.5642,7.5676,7.5676,7.5709,7.5709,7.6082,7.686,7.686,7.7198,7.7933,7.7918,7.7145,7.5701,7.419,7.3528,7.3528,7.3528,7.3528,7.3447,7.2615,7.2238,7.2088,7.1201,7.0829,7.0829,7.0829,7.047,6.9961,6.9961,7.035,7.0829,7.0829,7.0829,7.0829,7.0829,7.1308,7.1697,7.1068,7.1338,7.1846,7.1846,7.1846,7.2026,7.2684,7.2864,7.2864,7.2864,7.2864,7.2864,7.2894,7.2894,7.2894,7.2924,7.2924,7.2924,7.2924,7.2894,7.2864,7.2864,7.2864,7.2864,7.2864,7.2864,7.2864,7.2864,7.2864,7.2864,7.2864,7.2864,7.2864,7.2864,7.2864,7.2894,7.2894,7.2894,7.2924,7.2924,7.2924,7.2924,7.2924,7.3582,7.3522,4.9052,5.1014,5.301,5.575,5.7189,5.8035,5.8524,5.8626,5.8998,6.0283,5.9689,5.9554,6.1332,6.2076,6.2956,6.4681,6.6406,6.7963,6.9248,7.0297,7.121,7.1954,7.3105,7.4028,7.4536,7.439,7.4525,7.527,7.5337,7.5439,7.5676,7.5709,7.5946,7.6487,7.6487,7.686,7.7604,7.7638,7.7739,7.8034,7.8483,7.8185,7.7184,7.6665,7.6736,7.7188,7.7188,7.7482,7.7884,7.7605,7.6866,7.5897,7.5608,7.5176,7.4769,7.4769,7.3631,7.1963,7.0946,7.0739,7.0979,7.1427,7.1248,7.0979,7.1427,7.1398,7.1278,7.1487,7.1727,7.1996,7.2445,7.2565,7.2624,7.2864,7.2924,7.2924,7.2924,7.2924,7.3043,7.3492,7.3552,7.3702,7.4151,7.421,7.421,7.421,7.3462,7.2924,7.2924,7.2924,7.2924,7.2924,7.2924,7.2924,7.2924,7.2924,7.2924,7.2924,7.2924,7.2924,7.2924,7.3343,7.3552,7.3552,7.4001,7.421,7.421,7.421,7.445,7.4899,7.5138,7.5318,5.1438,5.3145,5.46,5.7543,5.8287,5.849,5.9235,5.9404,5.9844,6.1366,6.0283,5.9554,6.1366,6.2279,6.3091,6.4038,6.6745,6.9079,7.0082,7.1075,7.2056,7.3071,7.4018,7.4705,7.4965,7.4999,7.5202,7.5676,7.5709,7.5709,7.5709,7.598,7.6352,7.6893,7.7164,7.7638,7.8382,7.8382,7.8653,7.9185,7.9667,7.975,7.9489,7.9489,7.9781,8.0214,8.0214,8.048,8.0859,8.0036,7.9126,7.8183,7.7631,7.7139,7.6726,7.6982,7.6139,7.4647,7.3416,7.2634,7.2217,7.2641,7.2672,7.2422,7.2013,7.1936,7.2026,7.2206,7.2415,7.2714,7.3163,7.3283,7.3313,7.3552,7.3612,7.3612,7.3612,7.3612,7.3732,7.4151,7.445,7.4749,7.5168,7.5437,7.5587,7.5587,7.4869,7.4151,7.3672,7.3612,7.3612,7.3612,7.3612,7.3612,7.3612,7.3612,7.3612,7.3612,7.3612,7.3612,7.3612,7.4031,7.424,7.424,7.4693,7.5023,7.5258,7.5258,7.5587,7.6245,7.6485,7.6664,5.3416,5.4702,5.548,5.8303,5.9013,5.925,5.9979,6.0182,6.0622,6.1994,6.052,5.9622,6.1738,6.2821,6.3409,6.3545,6.732,7.0285,7.0353,7.1616,7.3037,7.4434,7.4637,7.4931,7.5642,7.5709,7.5709,7.5743,7.5743,7.5743,7.5743,7.6521,7.6961,7.7029,7.7671,7.8416,7.9135,7.9169,7.9938,8.1384,8.1317,8.1663,8.234,8.234,8.2374,8.2408,8.2441,8.2475,8.2337,8.02,7.9265,7.9128,7.7665,7.7087,7.712,7.7821,7.8016,7.7829,7.7248,7.5902,7.4439,7.4408,7.4748,7.4803,7.2641,7.2864,7.3732,7.3133,7.3402,7.3911,7.3941,7.3941,7.4091,7.4753,7.4903,7.4903,7.4903,7.4903,7.4933,7.4963,7.5497,7.5946,7.5946,7.639,7.6779,7.6779,7.6779,7.633,7.5138,7.5023,7.5023,7.5023,7.5023,7.4993,7.4963,7.4963,7.4963,7.4903,7.4903,7.4903,7.4903,7.4933,7.4963,7.4963,7.4993,7.5288,7.5946,7.5946,7.6275,7.6868,7.7502,7.7502,5.4126,5.619,5.8084,5.881,5.9419,6.0047,6.0825,6.14,6.1603,6.0825,5.981,5.8844,5.8321,6.0216,6.2415,6.4038,6.8098,7.1413,7.2518,7.3443,7.4187,7.4559,7.51,7.5506,7.5676,7.5709,7.5946,7.6555,7.6589,7.6589,7.6589,7.7299,7.7976,7.8517,7.872,7.916,7.9904,8.0445,8.119,8.2103,8.1562,8.1418,8.1562,8.1562,8.1866,8.2441,8.2983,8.3524,8.3978,8.3396,8.3161,8.3134,8.2722,8.2252,8.1811,8.1978,8.0962,7.9721,8.1231,7.8816,7.4963,7.4258,7.3801,7.3521,7.3417,7.3283,7.3223,7.3552,7.3762,7.4001,7.4544,7.4663,7.4693,7.4873,7.4903,7.4903,7.4903,7.4903,7.5053,7.5557,7.6155,7.6569,7.6569,7.6689,7.6779,7.6779,7.6779,7.6659,7.6365,7.6335,7.6335,7.6335,7.6335,7.6125,7.5677,7.5647,7.5437,7.4933,7.4903,7.4903,7.4903,7.5377,7.5647,7.5647,7.6096,7.6425,7.6569,7.6569,7.6933,7.7562,7.7741,7.7981,5.5666,5.7509,5.9081,5.9385,6.008,6.0655,6.0757,6.1095,6.096,5.9438,5.8287,5.7288,5.6477,5.9573,6.2584,6.3497,6.8504,7.2563,7.3375,7.4119,7.4705,7.5033,7.5439,7.5709,7.5709,7.6014,7.642,7.686,7.6893,7.7029,7.7367,7.8077,7.8686,7.9092,7.9431,7.9938,8.0682,8.1088,8.1663,8.2408,8.1629,8.1655,8.2272,8.2272,8.2678,8.3362,8.3828,8.4208,8.458,8.4242,8.4133,8.4133,8.4133,8.3862,8.3524,8.3862,8.3154,8.2137,8.2734,8.0906,7.8195,7.737,7.6586,7.5819,7.5162,7.4399,7.3851,7.421,7.433,7.442,7.4813,7.4903,7.4903,7.4903,7.4903,7.4903,7.4903,7.4903,7.5113,7.5766,7.6185,7.6569,7.7137,7.7227,7.7352,7.7652,7.7682,7.7682,7.7682,7.7137,7.6779,7.6779,7.6779,7.6659,7.63,7.6305,7.6155,7.5766,7.5736,7.5736,7.5736,7.6096,7.6305,7.6305,7.6629,7.6928,7.7227,7.7227,7.7592,7.825,7.825,7.843,5.7392,5.8524,5.9284,5.9945,6.0791,6.1197,6.0317,6.0114,5.9607,5.7832,5.6427,5.5496,5.5293,5.9351,6.2753,6.2685,6.8525,7.3229,7.3737,7.4356,7.4999,7.5608,7.5777,7.5845,7.5845,7.6589,7.7096,7.7198,7.7198,7.7468,7.8111,7.8855,7.9261,7.9261,7.987,8.0547,8.1317,8.1418,8.1765,8.2382,8.1832,8.2205,8.3355,8.3456,8.3862,8.4444,8.4546,8.4614,8.4546,8.393,8.3659,8.3659,8.3659,8.3659,8.3727,8.4343,8.4614,8.4392,8.2998,8.2515,8.2359,8.1326,8.0483,7.9399,7.7403,7.6206,7.5489,7.5282,7.5214,7.518,7.4971,7.4903,7.4903,7.4903,7.4903,7.4903,7.4903,7.4993,7.5198,7.5796,7.6036,7.6514,7.7622,7.7891,7.813,7.8699,7.8789,7.8789,7.8789,7.7801,7.7048,7.7048,7.7048,7.7018,7.6928,7.6928,7.6898,7.6808,7.6779,7.6779,7.6779,7.6868,7.6928,7.6928,7.7018,7.7382,7.7951,7.7951,7.822,7.8789,7.8789,7.8789,5.7798,5.8863,5.9945,6.008,6.1163,6.1839,6.0419,6.0114,5.9167,5.5852,5.4972,5.4397,5.3112,5.6156,6.0047,6.3632,6.7895,7.1842,7.4897,7.5439,7.5574,7.5676,7.6284,7.669,7.669,7.7367,7.8044,7.8662,7.872,7.8788,7.8923,7.96,8.0006,8.0006,8.0141,8.0547,8.1317,8.19,8.2272,8.2408,8.2881,8.2915,8.2611,8.3219,8.3558,8.3727,8.4343,8.4614,8.458,8.4444,8.4411,8.4411,8.4411,8.4411,8.4411,8.4546,8.4614,8.4553,8.4251,8.417,8.3723,8.0962,7.995,7.971,7.9306,7.9062,7.8659,7.7288,7.6865,7.6568,7.5248,7.4903,7.4903,7.4903,7.4903,7.4903,7.4903,7.5318,7.5766,7.5886,7.6754,7.7562,7.7771,7.825,7.8669,7.8759,7.8789,7.8789,7.8789,7.8579,7.846,7.846,7.846,7.822,7.7682,7.7652,7.7412,7.6838,7.6779,7.6779,7.6779,7.7317,7.7652,7.7652,7.816,7.8519,7.8609,7.8609,7.8669,7.8789,7.8789,7.8789,5.79,5.8964,6.0114,6.0114,6.1264,6.167,5.8998,5.8389,5.7205,5.3078,5.257,5.2604,5.186,5.5108,5.8998,6.2347,6.6981,7.1075,7.3612,7.4965,7.5709,7.5709,7.642,7.6893,7.6893,7.7908,7.872,7.9067,7.9464,7.9667,7.9667,8.0006,8.0378,8.075,8.075,8.1291,8.2408,8.2408,8.2611,8.2983,8.2949,8.2949,8.2983,8.3321,8.3693,8.4072,8.4444,8.4614,8.4614,8.4614,8.4614,8.4614,8.4614,8.4614,8.4614,8.4614,8.4614,8.4614,8.4614,8.4614,8.4366,8.2802,8.1737,8.1033,8.1062,7.9862,7.8345,7.7516,7.67,7.5866,7.5078,7.4903,7.4903,7.4903,7.4903,7.4903,7.4903,7.5138,7.5377,7.5377,7.5856,7.6395,7.6754,7.7352,7.7891,7.822,7.8579,7.8789,7.8789,7.8789,7.8789,7.8789,7.8789,7.8669,7.834,7.831,7.819,7.7861,7.7861,7.7861,7.7861,7.816,7.831,7.831,7.8639,7.8789,7.8789,7.8789,7.8789,7.8789,7.8789,7.8789,5.7866,5.8964,6.0114,6.0114,6.1264,6.14,5.7645,5.6697,5.5344,5.0996,5.0439,5.0829,5.1133,5.4228,5.7645,6.0554,6.5392,6.9553,7.1853,7.3916,7.5405,7.5912,7.6657,7.7198,7.7367,7.8585,7.9363,7.9363,7.987,8.0209,8.0209,8.0209,8.0445,8.1046,8.1215,8.1858,8.3016,8.278,8.2847,8.3253,8.3016,8.3084,8.349,8.3659,8.4065,8.4614,8.4614,8.4614,8.4614,8.4614,8.4614,8.4614,8.4614,8.4614,8.4614,8.4614,8.4614,8.4614,8.4614,8.4715,8.485,8.485,8.389,8.2628,8.2316,8.0406,7.8218,7.7516,7.6401,7.532,7.5006,7.4903,7.4903,7.4903,7.4903,7.4963,7.5083,7.5078,7.5138,7.5258,7.5407,7.5677,7.6215,7.6844,7.7442,7.7951,7.846,7.8789,7.8789,7.8789,7.8789,7.8789,7.8789,7.8789,7.8789,7.8789,7.8789,7.8789,7.8789,7.8789,7.8789,7.8789,7.8789,7.8789,7.8789,7.8789,7.8789,7.8789,7.8789,7.8789,7.8789,7.8789,5.773,5.8964,6.0114,6.0114,6.1264,6.14,5.7645,5.6274,5.4718,5.0895,4.9627,4.9627,5.0964,5.208,5.4431,5.9404,6.2415,6.5811,7.0714,7.2732,7.4458,7.6555,7.7435,7.8145,7.8855,7.9634,8.0107,8.0107,8.0175,8.0209,8.0209,8.0209,8.0242,8.031,8.0953,8.1384,8.152,8.2746,8.3084,8.2543,8.3768,8.4072,8.3524,8.4174,8.4546,8.4614,8.4614,8.4614,8.4614,8.4614,8.4614,8.4614,8.4614,8.4614,8.4614,8.4614,8.4614,8.4614,8.4614,8.508,8.5716,8.5716,8.5101,8.4116,8.2628,8.1997,8.115,7.8123,7.7193,7.6735,7.5282,7.4903,7.4903,7.4903,7.4903,7.5083,7.5677,7.5826,7.5976,7.6509,7.7143,7.7562,7.7622,7.819,7.8639,7.8699,7.8759,7.8789,7.8789,7.8789,7.8789,7.8789,7.8789,7.8789,7.8789,7.8789,7.8789,7.8789,7.8789,7.8789,7.8789,7.8789,7.8789,7.8789,7.8789,7.8789,7.8789,7.8789,7.8789,7.8789,7.8789,7.8789,5.7595,5.8964,6.0114,6.0114,6.0554,6.0148,5.69,5.5225,5.345,5.0135,4.9187,4.9442,5.093,5.1438,5.3078,5.7408,6.0013,6.2665,6.6115,6.9823,7.2699,7.4018,7.6454,7.828,7.9025,7.9769,8.0209,8.0209,8.0209,8.0209,8.0209,8.0209,8.0818,8.2137,8.1596,8.1934,8.3287,8.3422,8.3592,8.3734,8.4309,8.4444,8.4174,8.4444,8.4614,8.4614,8.4614,8.4614,8.4614,8.4614,8.4614,8.4614,8.4614,8.4614,8.4614,8.4614,8.4614,8.4614,8.4614,8.5148,8.5817,8.5817,8.5587,8.5209,8.457,8.3364,8.2038,8.113,7.9447,7.787,7.767,7.6838,7.6036,7.6036,7.6036,7.6125,7.636,7.6185,7.5976,7.6215,7.6485,7.6664,7.6664,7.7502,7.819,7.819,7.8519,7.8789,7.8789,7.8789,7.8789,7.8789,7.8789,7.8789,7.8789,7.8789,7.8789,7.8789,7.8789,7.8789,7.8789,7.8789,7.8789,7.8789,7.8789,7.8789,7.8789,7.8789,7.8789,7.8789,7.8789,7.8789,5.7103,5.8795,6.0114,6.0114,6.0114,5.9336,5.6375,5.4549,5.2638,4.9627,4.9018,4.9442,5.093,5.1201,5.2351,5.5919,5.8152,6.0486,6.3409,6.7557,7.0906,7.2529,7.5236,7.7468,7.8653,7.9634,8.0209,8.0209,8.0412,8.0615,8.0851,8.0851,8.146,8.2813,8.2238,8.2712,8.4242,8.3998,8.4099,8.4614,8.4614,8.4614,8.4614,8.4614,8.4614,8.4614,8.4614,8.4614,8.4614,8.4614,8.4614,8.4614,8.4614,8.4614,8.4614,8.4614,8.4614,8.4614,8.485,8.5486,8.6163,8.6366,8.646,8.646,8.646,8.4606,8.2424,8.1972,7.9922,7.7976,7.8504,7.7698,7.6779,7.6779,7.6779,7.6838,7.7048,7.6784,7.6514,7.6724,7.6754,7.6754,7.6754,7.7502,7.81,7.81,7.8489,7.8789,7.8789,7.8789,7.8789,7.8789,7.8789,7.8789,7.8789,7.8789,7.8789,7.8789,7.8789,7.8789,7.8789,7.8789,7.8789,7.8789,7.8789,7.8789,7.8789,7.8789,7.8789,7.8789,7.8789,7.8789,5.6224,5.8423,6.0114,6.0114,6.0114,5.9336,5.6375,5.4549,5.2638,4.9627,4.9018,4.9442,5.093,5.1201,5.2182,5.5225,5.6968,5.9471,6.3971,6.6508,6.9316,7.306,7.4153,7.554,7.7797,7.9329,8.0209,8.0209,8.0885,8.1596,8.234,8.2408,8.2069,8.1351,8.2712,8.349,8.3524,8.4234,8.458,8.4614,8.4614,8.4614,8.4614,8.4614,8.4614,8.4614,8.4614,8.4614,8.4614,8.4614,8.4614,8.4614,8.4614,8.4614,8.4614,8.4614,8.4614,8.4715,8.552,8.6264,8.7008,8.7753,8.7989,8.7989,8.7989,8.5805,8.2606,7.9285,7.7596,7.6814,7.6814,7.6814,7.6779,7.6779,7.6779,7.6958,7.7652,7.7801,7.7981,7.8639,7.8759,7.8759,7.8759,7.8759,7.8789,7.8789,7.8789,7.8789,7.8789,7.8789,7.8789,7.8789,7.8789,7.8789,7.8789,7.8789,7.8789,7.8789,7.8789,7.8789,7.8789,7.8789,7.8789,7.8789,7.8789,7.8789,7.8789,7.8789,7.8789,7.8789,7.8789,7.8789,5.2655,5.4989,5.6849,5.5852,5.5953,5.5818,5.3822,5.2621,5.1505,5.0033,4.9729,5.0202,5.1691,5.1961,5.3264,5.7288,5.8337,5.9877,6.3342,6.7083,7.0094,7.1819,7.5811,7.872,7.9431,7.9938,8.0209,8.0209,8.0885,8.1418,8.1629,8.2611,8.3287,8.3558,8.3524,8.3727,8.4242,8.4478,8.4614,8.4614,8.4614,8.4614,8.4614,8.4614,8.4614,8.4614,8.4614,8.4614,8.4614,8.4614,8.4614,8.4614,8.4614,8.4614,8.4647,8.5215,8.5418,8.552,8.6298,8.7042,8.7685,8.7922,8.7989,8.7922,8.7414,8.6543,8.5131,8.22,8.0672,7.9659,7.8451,7.816,7.816,7.816,7.816,7.822,7.843,7.813,7.7861,7.8071,7.813,7.813,7.813,7.8489,7.8789,7.8789,7.8789,7.8789,7.8789,7.8789,7.8789,7.8789,7.8789,7.8789,7.8789,7.8789,7.8789,7.8789,7.8789,7.8789,7.8789,7.8789,7.8789,7.8789,7.8789,7.8789,7.8789,7.8789,7.8789,7.8789,7.8789,7.8789,4.9848,5.2554,5.4651,5.3754,5.3856,5.3856,5.2604,5.1522,5.0642,5.0168,5.0117,5.0541,5.2029,5.23,5.3518,5.7153,5.7999,5.952,6.3376,6.6812,6.9823,7.2236,7.6589,7.9363,7.9363,7.987,8.031,8.0581,8.1291,8.1832,8.2129,8.3253,8.4133,8.458,8.414,8.4133,8.4614,8.4614,8.4614,8.4614,8.4614,8.4614,8.4614,8.4614,8.4614,8.4614,8.4614,8.4614,0.0,8.4614,8.4614,8.4614,8.4614,8.4614,8.4681,8.5486,8.5817,8.5953,8.6974,8.7617,8.8057,8.8328,8.8395,8.826,8.755,8.646,8.5107,8.3338,8.1936,8.0562,7.887,7.8609,7.8729,7.8489,7.8609,7.8789,7.8789,7.846,7.819,7.819,7.819,7.819,7.819,7.8519,7.8789,7.8789,7.8789,7.8789,7.8789,7.8789,7.8789,7.8789,7.8789,7.8789,7.8789,7.8789,7.8789,7.8789,7.8789,7.8789,7.8789,7.8789,7.8789,7.8789,7.8789,7.8789,7.8789,7.8789,7.8789,7.8789,7.8789,7.8789,0.0,5.0676,5.301,5.2976,5.3044,5.2909,5.2164,5.098,0.0,5.015,5.0184,5.0642,5.2266,5.2503,5.3281,5.5699,5.6765,5.9066,6.4106,6.6318,6.926,7.4164,7.6758,7.8136,7.8102,7.9363,8.0513,8.1249,8.1968,8.2746,8.3456,8.4174,8.4614,8.4614,8.4614,8.4614,8.4614,8.4614,8.4614,8.4614,8.4614,8.4614,8.4614,8.4614,8.4614,8.4614,8.4614,8.4614,8.4614,8.4614,8.4614,8.4614,8.4647,8.4681,8.4783,8.5621,8.5987,8.6156,8.7583,8.8091,8.8192,8.8897,8.9066,8.8897,8.8158,8.5781,8.3271,8.2866,8.1623,7.9989,7.8237,7.8357,7.8729,7.8046,7.834,7.8789,7.8789,7.8789,7.8789,7.8789,7.8789,7.8789,7.8789,7.8789,7.8789,7.8789,7.8789,7.8789,7.8789,7.8789,7.8789,7.8789,7.8789,7.8789,7.8789,7.8789,7.8789,7.8789,7.8789,7.8789,7.8789,7.8789,7.8789,7.8789,7.8789,7.8789,7.8789,7.8789,7.8789,7.8789,7.8789,7.8789,4.2794,0.0,4.824,4.7665,4.836,4.9172,0.0,4.9104,4.9593,5.0694,5.093,5.1742,5.4414,5.4431,5.5344,5.9336,6.1076,6.3139,6.6643,7.0872,7.4289,7.6149,7.8314,7.9464,7.8923,7.9667,8.0513,8.1249,8.1968,8.2746,8.3456,8.4174,8.4614,8.4614,8.4614,8.4614,8.4614,8.4614,8.4614,8.4614,8.4614,8.4614,8.4614,8.4614,8.4614,8.4614,8.4614,8.4614,8.4614,8.4614,8.4614,8.4647,8.5283,8.552,8.5689,8.6974,8.7482,8.7617,8.8558,8.8835,8.8897,8.9066,8.8728,8.8125,8.738,8.6087,8.4481,8.2639,8.1761,8.083,7.8402,7.8854,7.9701,7.8782,7.8669,7.8789,7.8789,7.8789,7.8789,7.8789,7.8789,7.8789,7.8789,7.8789,7.8789,7.8789,7.8789,7.8789,7.8789,7.8789,7.8789,7.8789,7.8789,7.8789,7.8789,7.8789,7.8789,7.8789,7.8789,7.8789,7.8789,7.8789,7.8789,7.8789,7.8789,7.8789,7.8789,7.8789,7.8789,7.8789,7.8789,7.8789,4.1102,4.3944,4.6684,4.6312,4.7564,4.8917,4.8917,4.9221,4.983,5.0964,5.1472,5.2418,5.4769,5.5987,5.7543,6.0317,6.3159,6.6149,6.9485,7.3274,7.6115,7.7266,7.8754,7.9667,7.9634,7.9972,8.0648,8.1731,8.2171,8.2881,8.3964,8.4377,8.4614,8.4614,8.4614,8.4614,8.4614,8.4614,8.4614,8.4614,8.4614,8.4614,8.4614,8.4614,8.4614,8.4614,8.4614,8.4614,8.4614,8.4614,8.4817,8.5182,8.5621,8.5993,8.6433,8.7583,8.7989,8.8057,8.8463,8.8626,8.8632,8.8998,8.8829,8.8361,8.7617,8.6998,8.6094,8.3704,8.3189,8.2741,7.9755,7.9919,8.0374,7.8708,7.8579,7.8789,7.8789,7.8789,7.8789,7.8789,7.8789,7.8789,7.8789,7.8789,7.8789,7.8789,7.8789,7.8789,7.8789,7.8789,7.8789,7.8789,7.8789,7.8789,7.8789,7.8789,7.8789,7.8789,7.8789,7.8789,7.8789,7.8789,7.8789,7.8789,7.8789,7.8789,7.8789,7.8789,7.8789,7.8789,7.8789,7.8789,4.1271,4.4282,4.7037,4.6597,4.8222,4.9932,4.9932,5.0015,5.0338,5.1201,5.1945,5.3112,5.5209,5.7577,5.9607,6.0926,6.4613,6.8639,7.2394,7.4728,7.6521,7.7865,7.8754,7.9464,7.9972,8.0141,8.0818,8.2306,8.2408,8.3024,8.4512,8.4614,8.4614,8.4614,8.4614,8.4614,8.4614,8.4614,8.4614,8.4614,8.4614,8.4614,8.4614,8.4614,8.4614,8.4614,8.4614,8.4614,8.4614,8.4614,8.508,8.5817,8.5892,8.6433,8.7177,8.7888,8.8091,8.7989,8.7989,8.8057,8.826,8.8897,8.91,8.8965,8.8226,8.8091,8.7705,8.5467,8.5046,8.4483,8.126,8.0792,8.0686,7.8503,7.84,7.8789,7.8789,7.8789,7.8789,7.8789,7.8789,7.8789,7.8789,7.8789,7.8789,7.8789,7.8789,7.8789,7.8789,7.8789,7.8789,7.8789,7.8789,7.8789,7.8789,7.8789,7.8789,7.8789,7.8789,7.8789,7.8789,7.8789,7.8789,7.8789,7.8789,7.8789,7.8789,7.8789,7.8789,7.8789,7.8789,7.8789,4.251,4.579,4.8071,4.5548,4.7056,4.9187,4.9187,4.9661,5.0489,5.186,5.2773,5.4735,5.9404,6.008,6.1231,6.5155,6.7963,7.0973,7.4661,7.6589,7.7705,7.7967,7.9194,7.9837,7.9329,7.9837,8.0818,8.2306,8.2408,8.3024,8.4512,8.4614,8.4614,8.4614,8.4614,8.4614,8.4614,8.4614,8.4614,8.4614,8.4614,8.4614,8.4614,8.4614,8.4614,8.4614,8.4614,8.4614,8.4614,8.4614,8.508,8.5885,8.6501,8.7177,8.7922,8.8632,8.8531,8.7989,8.7989,8.8395,8.8965,8.9066,8.91,8.8965,8.8226,8.8429,8.8739,8.7711,8.5987,8.383,8.1102,8.0451,8.0155,7.8919,7.8729,7.8789,7.8789,7.8789,7.8789,7.8789,7.8789,7.8789,7.8789,7.8789,7.8789,7.8789,7.8789,7.8789,7.8789,7.8789,7.8789,7.8789,7.8789,7.8789,7.8789,7.8789,7.8789,7.8789,7.8789,7.8789,7.8789,7.8789,7.8789,7.8789,7.8789,7.8789,7.8789,7.8789,7.8789,7.8789,7.8789,7.8789,4.1847,4.464,4.7192,4.7022,5.0405,5.3822,5.3822,5.4668,5.548,5.5344,5.6258,5.8051,6.1298,6.2888,6.5459,7.077,7.1819,7.3026,7.5946,7.6589,7.7198,7.845,7.9194,7.9634,7.9701,8.0006,8.0818,8.2306,8.2408,8.3024,8.4512,8.4614,8.4614,8.4614,8.4614,8.4614,8.4614,8.4614,8.4614,8.4614,8.4614,8.4614,8.4614,8.4614,8.4614,8.4614,8.4614,8.4614,8.4614,8.4614,8.529,8.6433,8.6771,8.7347,8.7989,8.7922,8.7685,8.7482,8.7854,8.8226,8.8564,8.8998,8.91,8.9066,8.87,8.8829,8.9032,8.8666,8.7089,8.5199,8.4019,8.3002,8.195,8.0556,8.0195,7.9945,7.8975,7.8789,7.8789,7.8789,7.8789,7.8789,7.8789,7.8789,7.8789,7.8789,7.8789,7.8789,7.8789,7.8789,7.8789,7.8789,7.8789,7.8789,7.8789,7.8789,7.8789,7.8789,7.8789,7.8789,7.8789,7.8789,7.8789,7.8789,7.8789,7.8789,7.8789,7.8789,7.8789,7.8789,7.8789,7.8789,4.1407,4.393,4.6737,4.8969,5.3078,5.6817,5.7697,5.8761,5.9404,5.8795,6.0013,6.1637,6.3159,6.6,6.9654,7.439,7.439,7.4559,7.6826,7.6623,7.6995,7.9126,7.9363,7.96,8.0141,8.0209,8.0818,8.2306,8.2408,8.3024,8.4512,8.4614,8.4614,8.4614,8.4614,8.4614,8.4614,8.4614,8.4614,8.4614,8.4614,8.4614,8.4614,8.4614,8.4614,8.4614,8.4614,8.4614,8.4614,8.4783,8.5587,8.667,8.6839,8.7347,8.7922,8.7177,8.7144,8.7482,8.7854,8.8091,8.8328,8.8931,8.91,8.91,8.91,8.91,8.91,8.91,8.7853,8.648,8.648,8.5258,8.3576,8.1787,8.1377,8.0929,7.919,7.8789,7.8789,7.8789,7.8789,7.8789,7.8789,7.8789,7.8789,7.8789,7.8789,7.8789,7.8789,7.8789,7.8789,7.8789,7.8789,7.8789,7.8789,7.8789,7.8789,7.8789,7.8789,7.8789,7.8789,7.8789,7.8789,7.8789,7.8789,7.8789,7.8789,7.8789,7.8789,7.8789,7.8789,7.8789,4.2679,4.5452,4.8259,5.0491,5.1894,5.3619,5.7121,5.8001,5.8626,6.0655,6.2787,6.4749,6.6203,6.9519,7.236,7.35,7.4153,7.5337,7.7604,7.7874,7.8382,7.9938,8.0107,8.0141,8.0175,8.0209,8.0818,8.2306,8.2408,8.3024,8.4512,8.4614,8.4614,8.4614,8.4614,8.4614,8.4614,8.4614,8.4614,8.4614,8.4614,8.4614,8.4614,8.4614,8.4614,8.4614,8.4614,8.4614,8.4647,8.5418,8.5784,8.5953,8.6636,8.7347,8.7922,8.7177,8.7753,8.8863,8.8226,8.8429,8.9032,8.91,8.91,8.91,8.91,8.91,8.91,8.91,8.7853,8.648,8.648,8.5258,8.3576,8.1787,8.1377,8.0929,7.919,7.8789,7.8789,7.8789,7.8789,7.8789,7.8789,7.8789,7.8789,7.8789,7.8789,7.8789,7.8789,7.8789,7.8789,7.8789,7.8789,7.8789,7.8789,7.8789,7.8789,7.8789,7.8789,7.8789,7.8789,7.8789,7.8789,7.8789,7.8789,7.8789,7.8789,7.8789,7.8789,7.8789,7.8789,7.8789,4.2252,4.5602,4.9003,5.0761,5.3162,5.6089,5.9844,6.1757,6.328,6.5053,6.6812,6.8402,6.9395,7.2259,7.439,7.4221,7.5236,7.6487,7.7807,7.8382,7.9058,8.0073,8.0209,8.0209,8.0209,8.0615,8.1291,8.234,8.2813,8.3524,8.4546,8.4614,8.4614,8.4614,8.4614,8.4614,8.4614,8.4614,8.4614,8.4614,8.4614,8.4614,8.4614,8.4614,8.4614,8.4614,8.4614,8.4614,8.4614,8.4945,8.5351,8.5851,8.6095,8.667,8.7245,8.6501,8.7144,8.8361,8.8091,8.8463,8.91,8.91,8.91,8.91,8.91,8.91,8.91,8.91,8.8643,8.8118,8.8118,8.6846,8.5101,8.3413,8.3021,8.2258,7.9409,7.8789,7.8789,7.8789,7.8789,7.8789,7.8789,7.8789,7.8789,7.8789,7.8789,7.8789,7.8789,7.8789,7.8789,7.8789,7.8789,7.8789,7.8789,7.8789,7.8789,7.8789,7.8789,7.8789,7.8789,7.8789,7.8789,7.8789,7.8789,7.8789,7.8789,7.8789,7.8789,7.8789,7.8789,7.8789,4.3098,4.6481,5.0119,5.1844,5.4566,5.7915,6.211,6.4072,6.5764,6.8436,6.9823,7.0906,7.2101,7.3612,7.4661,7.4627,7.5912,7.7164,7.7899,7.8619,7.9397,8.0107,8.0209,8.0209,8.0209,8.0877,8.1596,8.234,8.3084,8.3828,8.4546,8.4614,8.4614,8.4614,8.4614,8.4614,8.4614,8.4614,8.4614,8.4614,8.4614,8.4614,8.4614,8.4614,8.4614,8.4614,8.4614,8.4614,8.4614,8.485,8.5317,8.5817,8.5817,8.623,8.6873,8.6569,8.7279,8.8328,8.8328,8.8666,8.91,8.91,8.91,8.91,8.91,8.91,8.91,8.91,8.91,8.91,8.91,8.8204,8.6905,8.5196,8.441,8.3185,8.0265,7.919,7.8789,7.8789,7.8789,7.8789,7.8789,7.8789,7.8789,7.8789,7.8789,7.8789,7.8789,7.8789,7.8789,7.8789,7.8789,7.8789,7.8789,7.8789,7.8789,7.8789,7.8789,7.8789,7.8789,7.8789,7.8789,7.8789,7.8789,7.8789,7.8789,7.8789,7.8789,7.8789,7.8789,7.8789,4.5689,4.8394,5.1776,5.4025,5.575,5.8254,6.3429,6.4072,6.5033,7.0241,7.1323,7.1999,7.4198,7.3409,7.2902,7.4367,7.5912,7.7164,7.7933,7.8653,7.9397,8.0107,8.0209,8.0209,8.0209,8.0851,8.1596,8.2374,8.3084,8.3828,8.4546,8.4614,8.4614,8.4614,8.4614,8.4614,8.4614,8.4614,8.4614,8.4614,8.4614,8.4614,8.4614,8.4614,8.4614,8.4614,8.4614,8.4614,8.4647,8.5452,8.5784,8.5784,8.5817,8.623,8.7008,8.7719,8.8463,8.91,8.91,8.91,8.91,8.91,8.91,8.91,8.91,8.91,8.91,8.91,8.91,8.91,8.91,8.91,8.8671,8.6902,8.5227,8.3511,8.1785,8.0051,7.8789,7.8789,7.8789,7.8789,7.8789,7.8789,7.8789,7.8789,7.8789,7.8789,7.8789,7.8789,7.8789,7.8789,7.8789,7.8789,7.8789,7.8789,7.8789,7.8789,7.8789,7.8789,7.8789,7.8789,7.8789,7.8789,7.8789,7.8789,7.8789,7.8789,7.8789,7.8789,7.8789,7.8789,4.4099,4.8748,5.3619,5.3788,5.849,6.3483,6.5019,6.6,6.7929,7.2665,7.3623,7.3826,7.4468,7.4661,7.4864,7.5303,7.6657,7.7908,7.8686,7.9431,7.9938,8.0175,8.0209,8.0209,8.0209,8.1325,8.2171,8.2408,8.3565,8.4377,8.458,8.4614,8.4614,8.4614,8.4614,8.4614,8.4614,8.4614,8.4614,8.4614,8.4614,8.4614,8.4614,8.4614,8.4614,8.4614,8.4614,8.4614,8.4614,8.485,8.4979,8.5012,8.5587,8.623,8.7008,8.7719,8.8463,8.91,8.91,8.91,8.91,8.91,8.91,8.91,8.91,8.91,8.91,8.91,8.91,8.91,8.91,8.91,8.8671,8.6902,8.5227,8.3511,8.1785,8.0051,7.8789,7.8789,7.8789,7.8789,7.8789,7.8789,7.8789,7.8789,7.8789,7.8789,7.8789,7.8789,7.8789,7.8789,7.8789,7.8789,7.8789,7.8789,7.8789,7.8789,7.8789,7.8789,7.8789,7.8789,7.8789,7.8789,7.8789,7.8789,7.8789,7.8789,7.8789,7.8789,7.8789,7.9058,4.8612,5.2875,5.7103,5.8457,6.2279,6.6258,6.8322,6.9507,7.0973,7.3961,7.4603,7.4671,7.4999,7.5168,7.5473,7.6082,7.7198,7.8247,7.9025,7.9735,8.0209,8.0209,8.0209,8.0209,8.0209,8.1528,8.2408,8.2408,8.3768,8.4614,8.4614,8.4614,8.4614,8.4614,8.4614,8.4614,8.4614,8.4614,8.4614,8.4614,8.4614,8.4614,8.4614,8.4614,8.4614,8.4614,8.4614,8.4614,8.4614,8.4614,8.4614,8.4715,8.5824,8.6501,8.7042,8.8057,8.8728,8.91,8.91,8.91,8.91,8.91,8.91,8.91,8.91,8.91,8.91,8.91,8.91,8.91,8.91,8.91,8.8813,8.7795,8.5721,8.3705,8.269,8.0513,7.8789,7.8789,7.8789,7.8789,7.8789,7.8789,7.8789,7.8789,7.8789,7.8789,7.8789,7.8789,7.8789,7.8789,7.8789,7.8789,7.8789,7.8789,7.8789,7.8789,7.8789,7.8789,7.8789,7.8789,7.8789,7.8789,7.8789,7.8789,7.8789,7.8789,7.8789,7.8789,7.9058,7.9417,5.5903,5.8746,6.1298,6.5439,6.6339,6.751,7.2383,7.3567,7.3815,7.4559,7.4695,7.4931,7.5574,7.5168,7.5202,7.6758,7.7536,7.828,7.9092,7.9769,8.0209,8.0209,8.0209,8.0209,8.0209,8.1528,8.2408,8.2408,8.3768,8.4614,8.4614,8.4614,8.4614,8.4614,8.4614,8.4614,8.4614,8.4614,8.4614,8.4614,8.4614,8.4614,8.4614,8.4614,8.4614,8.4614,8.4614,8.4614,8.4614,8.4614,8.4647,8.485,8.6332,8.6941,8.7177,8.8564,8.91,8.91,8.91,8.91,8.91,8.91,8.91,8.91,8.91,8.91,8.91,8.91,8.91,8.91,8.91,8.91,8.9044,8.8898,8.6363,8.3963,8.3802,8.1138,7.8789,7.8789,7.8789,7.8789,7.8789,7.8789,7.8789,7.8789,7.8789,7.8789,7.8789,7.8789,7.8789,7.8789,7.8789,7.8789,7.8789,7.8789,7.8789,7.8789,7.8789,7.8789,7.8789,7.8789,7.8789,7.8789,7.8789,7.8789,7.8789,7.8789,7.8789,7.8819,7.9507,7.9829,5.147,5.6749,6.2279,6.3815,6.7184,7.0703,7.2969,7.395,7.4593,7.5303,7.5473,7.5506,7.5676,7.5574,7.598,7.7502,7.7899,7.8474,7.9769,8.0107,8.0209,8.0209,8.0209,8.0209,8.0209,8.1528,8.2408,8.2408,8.3768,8.4614,8.4614,8.4614,8.4614,8.4614,8.4614,8.4614,8.4614,8.4614,8.4614,8.4614,8.4614,8.4614,8.4614,8.4614,8.4614,8.4614,8.4614,8.4614,8.4614,8.4614,8.4952,8.5621,8.6535,8.7245,8.7854,8.8767,8.91,8.91,8.91,8.91,8.91,8.91,8.91,8.91,8.91,8.91,8.91,8.91,8.91,8.91,8.91,8.91,8.8756,8.7378,8.5506,8.3641,8.2258,8.03,7.8789,7.8789,7.8789,7.8789,7.8789,7.8789,7.8789,7.8789,7.8789,7.8789,7.8789,7.8789,7.8789,7.8789,7.8789,7.8789,7.8789,7.8789,7.8789,7.8789,7.8789,7.8789,7.8789,7.8789,7.8789,7.8789,7.8789,7.8789,7.8789,7.8789,7.8789,7.8819,7.9507,8.0105,5.3315,5.8051,6.2753,6.6318,6.9823,7.2665,7.3781,7.4593,7.5236,7.5608,7.5709,7.5709,7.5709,7.6014,7.6657,7.7831,7.828,7.8923,8.004,8.0209,8.0209,8.0209,8.0209,8.0344,8.0682,8.1731,8.2543,8.2915,8.3971,8.4614,8.4614,8.4614,8.4614,8.4614,8.4614,8.4614,8.4614,8.4614,8.4614,8.4614,8.4614,8.4614,8.4614,8.4614,8.4614,8.4614,8.4614,8.4614,8.4614,8.5046,8.5418,8.5892,8.7008,8.7651,8.8091,8.8829,8.91,8.91,8.91,8.91,8.91,8.91,8.91,8.91,8.91,8.91,8.91,8.91,8.91,8.91,8.91,8.91,8.8671,8.6902,8.5227,8.3511,8.1785,8.0051,7.8789,7.8789,7.8789,7.8789,7.8789,7.8789,7.8789,7.8789,7.8789,7.9082,7.9945,7.9332,7.9118,7.9945,7.9297,7.8789,7.8789,7.8789,7.8789,7.8789,7.8789,7.8789,7.8789,7.8789,7.8789,7.8789,7.8789,7.8789,7.8789,7.8789,7.8968,7.9297,7.9986,8.0644,5.5192,5.9235,6.3091,6.9823,7.2496,7.368,7.4424,7.5168,7.5709,7.5709,7.5709,7.5709,7.5709,7.6352,7.713,7.7899,7.8619,7.9363,8.0107,8.0209,8.0209,8.0209,8.0209,8.0479,8.1249,8.1968,8.2712,8.3422,8.42,8.4614,8.4614,8.4614,8.4614,8.4614,8.4614,8.4614,8.4614,8.4614,8.4614,8.4614,8.4614,8.4614,8.4614,8.4614,8.4614,8.4614,8.4614,8.4614,8.4647,8.5452,8.5885,8.6095,8.7482,8.8091,8.826,8.8869,8.91,8.91,8.91,8.91,8.91,8.91,8.91,8.91,8.91,8.91,8.91,8.91,8.91,8.91,8.91,8.8903,8.8262,8.6842,8.4976,8.3152,8.1717,8.0051,7.8789,7.8789,7.8789,7.8897,7.919,7.8975,7.8789,7.8789,7.8789,7.9409,8.1203,7.9875,7.948,8.1207,7.9839,7.8789,7.8789,7.8789,7.8789,7.8789,7.8789,7.8789,7.8789,7.8789,7.8789,7.8789,7.8789,7.8789,7.8789,7.8908,7.9267,7.9799,8.0614,8.1272,4.8901,5.5683,6.3835,7.0567,7.2868,7.368,7.4424,7.5168,7.5709,7.5709,7.5709,7.5709,7.5709,7.6352,7.713,7.7899,7.8619,7.9363,8.0107,8.0209,8.0209,8.0209,8.0209,8.0479,8.1249,8.1968,8.2712,8.3422,8.42,8.4614,8.4614,8.4614,8.4614,8.4614,8.4614,8.4614,8.4614,8.4614,8.4614,8.4614,8.4614,8.4614,8.4614,8.4614,8.4614,8.4614,8.4614,8.4614,8.4647,8.5452,8.6163,8.6839,8.7685,8.8395,8.8998,8.9066,8.91,8.91,8.91,8.91,8.91,8.91,8.91,8.91,8.91,8.91,8.91,8.91,8.91,8.91,8.91,8.7969,8.6783,8.6573,8.4059,8.1683,8.1446,8.0051,7.8789,7.8789,7.8789,7.9297,8.0791,7.9804,7.8789,7.8789,7.8789,7.9409,8.1203,7.9875,7.948,8.1207,7.9839,7.8789,7.8789,7.8789,7.8789,7.8789,7.8789,7.8789,7.8789,7.8789,7.8789,7.8789,7.8789,7.8789,7.8789,7.9387,7.9716,7.9836,8.1063,8.1691,5.1826,5.8152,6.4647,7.1345,7.3263,7.3804,7.4965,7.5473,7.5709,7.5709,7.5709,7.5709,7.5709,7.669,7.7604,7.7967,7.8957,7.9837,8.0141,8.0209,8.0209,8.0209,8.0209,8.0648,8.1799,8.2205,8.2881,8.4031,8.4411,8.4614,8.4614,8.4614,8.4614,8.4614,8.4614,8.4614,8.4614,8.4614,8.4614,8.4614,8.4614,8.4614,8.4614,8.4614,8.4614,8.4614,8.4614,8.4614,8.4681,8.5926,8.6602,8.7008,8.8158,8.8829,8.91,8.91,8.91,8.91,8.91,8.91,8.91,8.91,8.91,8.91,8.91,8.91,8.91,8.91,8.91,8.8903,8.7882,8.7083,8.6269,8.5351,8.3186,8.1377,8.1377,8.0051,7.9082,8.0086,7.948,7.9338,8.11,7.9945,7.8789,7.8789,7.8789,7.9409,8.1203,7.9875,7.948,8.1207,7.9839,7.8789,7.8789,7.8789,7.8789,7.8789,7.8789,7.8789,7.8789,7.8789,7.8789,7.8789,7.8789,7.8789,7.8789,7.9477,8.0016,8.0405,8.1332,8.2028,5.3128,5.7949,6.2192,6.9891,7.209,7.2935,7.5202,7.5709,7.5709,7.5709,7.5709,7.5743,7.598,7.7096,7.8044,7.8247,7.9363,8.0209,8.0209,8.0209,8.0209,8.0209,8.0209,8.0784,8.2272,8.2408,8.299,8.4478,8.4614,8.4614,8.4614,8.4614,8.4614,8.4614,8.4614,8.4614,8.4614,8.4614,8.4614,8.4614,8.4614,8.4614,8.4614,8.4614,8.4614,8.4614,8.4614,8.4715,8.5012,8.6366,8.7008,8.7313,8.8598,8.91,8.91,8.91,8.91,8.91,8.91,8.91,8.91,8.91,8.91,8.91,8.91,8.91,8.91,8.91,8.91,8.87,8.6932,8.6179,8.5567,8.4314,8.2358,8.086,8.1309,8.037,7.998,8.172,8.0652,7.9875,8.1203,7.9945,7.8969,7.9374,7.9082,7.9587,8.1754,8.0125,7.948,8.1207,7.9839,7.8789,7.8789,7.8789,7.8789,7.8789,7.8789,7.8789,7.8789,7.8789,7.8789,7.8789,7.8789,7.8878,7.9058,7.9746,8.0405,8.1063,8.1759,8.2327,4.7767,5.0626,5.4312,6.4559,6.8267,7.0432,7.4728,7.5709,7.5709,7.5709,7.5709,7.5946,7.669,7.7468,7.8213,7.8923,7.9701,8.0209,8.0209,8.0209,8.0209,8.0209,8.0209,8.0784,8.2272,8.2408,8.299,8.4478,8.4614,8.4614,8.4614,8.4614,8.4614,8.4614,8.4614,8.4614,8.4614,8.4614,8.4614,8.4614,8.4614,8.4614,8.4614,8.4614,8.4614,8.4614,8.4614,8.5046,8.579,8.6602,8.7313,8.8023,8.8795,8.91,8.91,8.91,8.91,8.91,8.91,8.91,8.91,8.91,8.91,8.91,8.91,8.91,8.91,8.91,8.91,8.87,8.6932,8.5351,8.4123,8.4027,8.1411,7.9374,8.1066,8.1309,8.1754,8.3543,8.2458,8.1275,8.1377,7.9945,7.9338,8.1032,7.9875,8.002,8.3446,8.0898,7.948,8.1207,7.9839,7.8789,7.8789,7.8789,7.8789,7.8789,7.8789,7.8789,7.8789,7.8789,7.8789,7.8789,7.8789,7.9118,7.9776,8.0434,8.1093,8.1751,8.2447,8.2776,4.7041,4.9713,5.2892,6.0028,6.4728,6.8301,7.0872,7.3646,7.5709,7.5709,7.5709,7.6082,7.7367,7.7831,7.8247,7.8991,7.9735,8.0209,8.0209,8.0209,8.0209,8.0209,8.0209,8.0784,8.2272,8.2408,8.299,8.4478,8.4614,8.4614,8.4614,8.4614,8.4614,8.4614,8.4614,8.4614,8.4614,8.4614,8.4614,8.4614,8.4614,8.4614,8.4614,8.4614,8.4614,8.4614,8.5148,8.552,8.5885,8.6602,8.7347,8.8057,8.8829,8.91,8.91,8.91,8.91,8.91,8.91,8.91,8.91,8.91,8.91,8.91,8.91,8.91,8.91,8.91,8.91,8.87,8.6932,8.5258,8.3737,8.2624,8.1377,8.1241,8.4091,8.2956,8.192,8.3673,8.1686,8.0086,8.1238,8.0894,8.0652,8.1309,8.086,8.0929,8.2157,8.0265,7.9046,7.9663,7.919,7.8789,7.8789,7.8789,7.8789,7.8789,7.8789,7.8789,7.8789,7.8789,7.8789,7.8789,7.9238,7.9567,7.977,8.0464,8.1123,8.1848,8.2507,8.2806,4.4978,4.7278,5.0371,5.6089,6.0148,6.3971,6.8741,7.1718,7.3916,7.5371,7.5709,7.6183,7.773,7.8,7.8314,7.9329,7.987,8.0209,8.0209,8.0209,8.0209,8.0209,8.0209,8.0784,8.2272,8.2408,8.299,8.4478,8.4614,8.4614,8.4614,8.4614,8.4614,8.4614,8.4614,8.4614,8.4614,8.4614,8.4614,8.4614,8.4614,8.4614,8.4614,8.4614,8.4614,8.4647,8.5452,8.5926,8.623,8.6974,8.7719,8.8395,8.8903,8.91,8.91,8.91,8.91,8.91,8.91,8.91,8.91,8.91,8.91,8.91,8.91,8.91,8.91,8.91,8.91,8.87,8.6932,8.5258,8.3705,8.2558,8.2692,8.3738,8.6027,8.4282,8.2624,8.377,8.1652,8.0051,8.1203,8.1377,8.1787,8.2956,8.2157,8.1615,8.2191,8.023,7.8789,7.8789,7.8789,7.8789,7.8789,7.8789,7.8789,7.8789,7.8789,7.8789,7.8789,7.8789,7.8908,7.9118,7.9597,8.0045,8.0464,8.0913,8.1452,8.2148,8.2597,8.2806,0.0,0.0,0.0,5.2688,5.4397,5.7408,6.8347,6.9857,7.0161,7.4627,7.554,7.6048,7.7696,7.8,7.8483,7.9972,8.0209,8.0209,8.0209,8.0209,8.0209,8.0209,8.0209,8.0818,8.2272,8.2441,8.305,8.4478,8.4614,8.4614,8.4614,8.4614,8.4614,8.4614,8.4614,8.4614,8.4614,8.4614,8.4614,8.4614,8.4614,8.4614,8.4614,8.4614,8.4614,8.4647,8.5452,8.623,8.6974,8.7685,8.8429,8.91,8.91,8.91,8.91,8.91,8.91,8.91,8.91,8.91,8.91,8.91,8.91,8.91,8.91,8.91,8.91,8.91,8.91,8.87,8.6932,8.5289,8.4091,8.4091,8.532,8.648,8.6573,8.5258,8.4059,8.4027,8.2626,8.1446,8.1411,8.148,8.2659,8.5935,8.3609,8.2057,8.3705,8.0898,7.8789,7.8789,7.8789,7.8789,7.8789,7.8789,7.8789,7.8789,7.8789,7.8789,7.8789,7.8819,7.9148,7.977,7.9866,8.0494,8.1818,8.1818,8.2148,8.2806,8.2806,8.2806,4.1339,0.0,0.0,0.0,0.0,0.0,5.8912,6.2212,6.5662,7.0669,7.1718,7.3003,7.7222,7.8,7.8483,7.9972,8.0209,8.0209,8.0209,8.0209,8.0209,8.0209,8.0648,8.1359,8.2306,8.2881,8.3592,8.4512,8.4614,8.4614,8.4614,8.4614,8.4614,8.4614,8.4614,8.4614,8.4614,8.4614,8.4614,8.4614,8.4614,8.4614,8.4614,8.4614,8.4614,8.4681,8.6027,8.6704,8.6974,8.7685,8.8429,8.91,8.91,8.91,8.91,8.91,8.91,8.91,8.91,8.91,8.91,8.91,8.91,8.91,8.91,8.91,8.91,8.91,8.91,8.87,8.6932,8.6148,8.5813,8.5813,8.6148,8.6842,8.8118,8.7024,8.5475,8.4251,8.3608,8.2857,8.1615,8.3447,8.5007,8.4725,8.3899,8.2989,8.2224,8.016,7.8789,7.8789,7.8789,7.8789,7.8789,7.8789,7.8789,7.8789,7.8789,7.8789,7.8789,7.9267,7.9627,7.977,8.0764,8.1422,8.1818,8.1818,8.2148,8.2806,8.2806,8.2806,4.2422,4.3572,4.521,4.5805,0.0,0.0,5.7525,6.052,6.3937,7.1041,7.2496,7.351,7.6927,7.7773,7.8382,7.9566,8.0006,8.0209,8.0209,8.0209,8.0209,8.0209,8.0581,8.1257,8.2306,8.278,8.349,8.4512,8.4614,8.4614,8.4614,8.4614,8.4614,8.4614,8.4614,8.4614,8.4614,8.4614,8.4614,8.4614,8.4614,8.4614,8.4614,8.4614,8.4783,8.5182,8.6399,8.7076,8.7414,8.8158,8.87,8.91,8.91,8.91,8.91,8.91,8.91,8.91,8.91,8.91,8.91,8.91,8.91,8.91,8.91,8.91,8.91,8.91,8.91,8.8869,8.7853,8.7587,8.7587,8.7587,8.7587,8.7853,8.8869,8.829,8.7083,8.5382,8.4505,8.3899,8.3576,8.4599,8.5382,8.507,8.3834,8.2558,8.1548,7.9875,7.8789,7.8789,7.8789,7.8789,7.8789,7.8789,7.8789,7.8789,7.8789,7.8789,7.8789,7.9447,7.9919,8.0225,8.1242,8.1968,8.2238,8.2238,8.2417,8.2806,8.2806,8.2806,4.4234,4.4911,4.6346,4.7481,4.6974,0.0,5.9284,6.0892,6.2719,7.165,7.3544,7.3984,7.5303,7.6048,7.6758,7.7604,7.872,7.9634,8.0141,8.0209,8.0209,8.0209,8.0276,8.0851,8.2171,8.2441,8.3084,8.4377,8.4546,8.4614,8.4614,8.4614,8.4614,8.4614,8.4614,8.4614,8.4614,8.4614,8.4614,8.4614,8.4614,8.4614,8.4614,8.4614,8.5046,8.5824,8.6602,8.7313,8.8057,8.8795,8.91,8.91,8.91,8.91,8.91,8.91,8.91,8.91,8.91,8.91,8.91,8.91,8.91,8.91,8.91,8.91,8.91,8.91,8.91,8.91,8.91,8.91,8.91,8.91,8.91,8.91,8.91,8.91,8.8638,8.7083,8.5598,8.4977,8.6269,8.5289,8.4694,8.6027,8.3479,8.1309,8.1135,7.9734,7.8789,7.8789,7.8789,7.8789,7.8789,7.8789,7.8789,7.8789,7.8789,7.8789,7.8789,7.9537,8.0195,8.0794,8.1512,8.2208,8.2806,8.2806,8.2806,8.2806,8.2806,8.2806,4.6853,4.7225,4.8139,4.7225,4.8139,0.0,4.9932,5.1691,5.438,5.8709,6.008,6.1839,6.6203,6.7117,6.7658,6.899,7.236,7.6048,7.9701,8.0209,8.0209,8.0209,8.0716,8.1215,8.1494,8.2577,8.3389,8.3693,8.4242,8.4614,8.4614,8.4614,8.4614,8.4614,8.4614,8.4614,8.4614,8.4614,8.4614,8.4614,8.4614,8.4614,8.4614,8.4614,8.5046,8.5824,8.6602,8.7313,8.8057,8.8795,8.91,8.91,8.91,8.91,8.91,8.91,8.91,8.91,8.91,8.91,8.91,8.91,8.91,8.91,8.91,8.91,8.91,8.91,8.91,8.91,8.91,8.91,8.91,8.91,8.91,8.91,8.91,8.91,8.9016,8.8671,8.8353,8.7766,8.6693,8.6209,8.566,8.4663,8.2725,8.0894,7.948,7.9011,7.8789,7.8789,7.8789,7.8789,7.8789,7.8789,7.8789,7.8789,7.8789,7.8789,7.8789,7.9956,8.0674,8.0794,8.1998,8.2687,8.2806,8.2806,8.2806,8.2806,8.2806,8.2806,4.8815,4.8714,4.9357,4.8612,4.8984,0.0,0.0,5.1826,5.3704,5.8573,5.8998,5.9607,6.3362,6.4072,6.441,6.5527,7.0094,7.3477,7.351,7.7367,8.0209,8.0209,8.0513,8.0885,8.1283,8.2306,8.3253,8.3998,8.4377,8.4614,8.4614,8.4614,8.4614,8.4614,8.4614,8.4614,8.4614,8.4614,8.4614,8.4614,8.4614,8.4817,8.5215,8.5215,8.5824,8.6907,8.7279,8.7854,8.8564,8.8965,8.91,8.91,8.91,8.91,8.91,8.91,8.91,8.91,8.91,8.91,8.91,8.91,8.91,8.91,8.91,8.91,8.91,8.91,8.91,8.91,8.91,8.91,8.91,8.91,8.91,8.91,8.91,8.91,8.91,8.91,8.91,8.8813,8.794,8.6393,8.4977,8.4123,8.1787,7.9769,7.8933,7.8789,7.8789,7.8789,7.8789,7.8789,7.8789,7.8789,7.8789,7.8789,7.8789,7.8789,7.8789,8.0075,8.1093,8.1751,8.2477,8.2806,8.2806,8.2806,8.2806,8.2806,8.2806,8.2806,5.0777,5.0304,5.0827,5.0252,5.0101,5.0777,0.0,0.0,0.0,5.9453,5.9148,5.8626,6.0738,6.1008,6.1129,6.1704,6.6812,6.935,6.5405,7.2225,7.7671,7.7807,7.9228,8.0141,8.0006,8.0547,8.1874,8.4208,8.3599,8.3531,8.4546,8.4614,8.4614,8.4614,8.4614,8.4614,8.4614,8.4614,8.4614,8.4614,8.4614,8.5046,8.5817,8.5817,8.6602,8.7989,8.7989,8.8395,8.91,8.91,8.91,8.91,8.91,8.91,8.91,8.91,8.91,8.91,8.91,8.91,8.91,8.91,8.91,8.91,8.91,8.91,8.91,8.91,8.91,8.91,8.91,8.91,8.91,8.91,8.91,8.91,8.91,8.91,8.91,8.91,8.8813,8.8581,8.8581,8.606,8.3899,8.3543,8.0825,7.8789,7.8789,7.8789,7.8789,7.8789,7.8789,7.8789,7.8789,7.8789,7.8789,7.8789,7.8789,7.8849,7.8998,8.0285,8.1542,8.2776,8.2806,8.2806,8.2806,8.2806,8.2806,8.2806,8.2806,8.2806,5.3484,5.2976,5.3467,5.076,5.2045,5.2891,4.8748,0.0,5.1133,4.9916,0.0,5.0744,5.2317,0.0,0.0,5.1725,5.6765,5.9994,5.8186,6.3937,6.855,6.9214,7.5743,7.8923,7.5676,7.5439,7.7773,8.3219,8.0006,7.9769,8.4343,8.4614,8.4614,8.4614,8.4614,8.4614,8.4614,8.4614,8.4614,8.4614,8.4614,8.5046,8.5817,8.5817,8.6602,8.7989,8.7989,8.8395,8.91,8.91,8.91,8.91,8.91,8.91,8.91,8.91,8.91,8.91,8.91,8.91,8.91,8.91,8.91,8.91,8.91,8.91,8.91,8.91,8.91,8.91,8.91,8.91,8.91,8.91,8.91,8.91,8.91,8.91,8.91,8.91,8.7853,8.6783,8.6783,8.5258,8.3478,8.1922,8.002,7.8789,7.8789,7.8789,7.8789,7.8789,7.8789,7.8789,7.8789,7.8789,7.8789,7.8789,7.8789,7.9058,7.965,8.0973,8.2058,8.2776,8.2806,8.2806,8.2806,8.2806,8.2806,8.2806,8.2806,8.2806,5.345,5.4363,5.5599,5.1725,5.3315,5.4499,4.9255,4.8698,4.9273,4.9187,0.0,0.0,0.0,0.0,0.0,0.0,5.4735,5.707,5.3416,6.0182,6.5967,6.7117,7.0331,7.3003,7.4434,7.4999,7.7536,8.3084,7.9803,7.96,8.4343,8.4614,8.4817,8.5283,8.4817,8.4817,8.5283,8.4817,8.4614,8.4614,8.508,8.5689,8.6433,8.6873,8.7651,8.8632,8.8632,8.8829,8.91,8.91,8.91,8.91,8.91,8.91,8.91,8.91,8.91,8.91,8.91,8.91,8.91,8.91,8.91,8.91,8.91,8.91,8.91,8.91,8.91,8.91,8.91,8.91,8.91,8.91,8.91,8.91,8.91,8.91,8.91,8.91,8.7675,8.6179,8.5227,8.3641,8.2258,8.1514,7.991,7.8789,7.8789,7.8789,7.8789,7.8789,7.8789,7.8789,7.8789,7.8789,7.8789,7.8789,7.8789,7.9267,8.0345,8.0913,8.1729,8.2776,8.2806,8.2806,8.2806,8.2806,8.2806,8.2806,8.2806,8.2806,5.5243,5.6258,5.7273,5.2148,5.3095,5.4126,4.9695,4.8597,4.8815,4.988,4.9135,0.0,0.0,0.0,4.9661,4.9763,0.0,5.4532,5.0101,5.6089,6.14,6.2665,6.4309,6.7184,7.1999,7.2022,7.4424,8.0885,7.7942,7.8416,8.4275,8.4614,8.4877,8.5452,8.4884,8.4884,8.5452,8.4884,8.4614,8.4614,8.5418,8.6196,8.6941,8.7651,8.8395,8.91,8.91,8.91,8.91,8.91,8.91,8.91,8.91,8.91,8.91,8.91,8.91,8.91,8.91,8.91,8.91,8.91,8.91,8.91,8.91,8.91,8.91,8.91,8.91,8.91,8.91,8.91,8.91,8.91,8.91,8.91,8.91,8.91,8.8959,8.8495,8.6994,8.5289,8.3576,8.2224,8.1241,8.0756,7.9622,7.8789,7.8789,7.8789,7.8789,7.8789,7.8789,7.8789,7.8789,7.8789,7.8789,7.8789,7.8968,7.9597,8.0764,8.0973,8.1601,8.2776,8.2806,8.2806,8.2806,8.2806,8.2806,8.2806,8.2806,8.2806,6.0569,5.9404,5.8457,5.1809,5.0777,5.0761,4.8462,4.9018,5.0049,5.0083,5.1183,5.2164,5.2232,5.1607,0.0,0.0,0.0,0.0,0.0,5.0085,5.1911,5.2672,5.7915,6.2956,6.669,6.3835,6.5696,7.5236,7.2529,7.4593,8.4072,8.4614,8.4614,8.4647,8.4614,8.4614,8.4647,8.4614,8.4614,8.4614,8.5418,8.6196,8.6941,8.7651,8.8395,8.91,8.91,8.91,8.91,8.91,8.91,8.91,8.91,8.91,8.91,8.91,8.91,8.91,8.91,8.91,8.91,8.91,8.91,8.91,8.91,8.91,8.91,8.91,8.91,8.91,8.91,8.91,8.91,8.91,8.91,8.91,8.91,8.91,8.8581,8.6902,8.5258,8.3543,8.1754,8.1446,8.0825,7.9154,7.8825,7.8789,7.8789,7.8789,7.8789,7.8789,7.8789,7.8789,7.8789,7.8789,7.8789,7.8789,7.9417,8.0105,8.0764,8.1422,8.2088,8.2776,8.2806,8.2806,8.2806,8.2806,8.2806,8.2806,8.2806,8.2806,6.3328,6.4681,6.4816,5.6596,5.6596,5.6867,5.0168,5.0168,5.1285,5.032,5.1691,5.2773,5.1742,0.0,0.0,0.0,0.0,0.0,0.0,4.7834,4.8748,4.9965,5.5834,6.0264,6.1516,6.4072,6.8267,7.4492,7.4762,7.7333,8.3558,8.4309,8.4817,8.5384,8.4884,8.5087,8.6102,8.5121,8.4877,8.5384,8.6163,8.667,8.6941,8.8158,8.8863,8.91,8.91,8.91,8.91,8.91,8.91,8.91,8.91,8.91,8.91,8.91,8.91,8.91,8.91,8.91,8.91,8.91,8.91,8.91,8.91,8.91,8.91,8.91,8.91,8.91,8.91,8.91,8.91,8.91,8.91,8.91,8.91,8.91,8.8581,8.6842,8.5165,8.3446,8.1717,8.044,7.948,7.8897,7.8789,7.8789,7.8789,7.8789,7.8789,7.8789,7.8789,7.8789,7.8789,7.8789,7.8789,7.8789,7.9447,8.0105,8.0764,8.1422,8.2118,8.2776,8.2806,8.2806,8.2806,8.2806,8.2806,8.2806,8.2806,8.2806,6.6948,6.8368,6.8356,6.0689,6.0588,6.0472,5.3078,5.2875,5.4025,5.3094,5.3416,5.4329,5.5699,5.3568,0.0,0.0,0.0,0.0,0.0,4.7022,4.753,4.8496,5.3129,5.695,5.881,6.1298,6.6068,7.4018,7.4322,7.686,8.3152,8.4174,8.4817,8.5351,8.485,8.5087,8.6068,8.5087,8.485,8.5384,8.6433,8.6907,8.6974,8.8429,8.91,8.91,8.91,8.91,8.91,8.91,8.91,8.91,8.91,8.91,8.91,8.91,8.91,8.91,8.91,8.91,8.91,8.91,8.91,8.91,8.91,8.91,8.91,8.91,8.91,8.91,8.91,8.91,8.91,8.91,8.91,8.91,8.91,8.8609,8.7679,8.5935,8.4219,8.2524,8.0791,7.9551,7.8789,7.8789,7.8789,7.8789,7.8789,7.8789,7.8789,7.8789,7.8789,7.8789,7.8789,7.8789,7.8789,7.8789,7.9447,8.0105,8.0764,8.1422,8.2028,8.2447,8.2687,8.2687,8.2447,8.2687,8.2806,8.2806,8.2806,8.2806]}]]